Date StartTime U_cm/s V_cm/s W_cm/s Ustd_cm/s Vstd_cm/s Wstd_cm/s Uvar_(cm/s)^2 Vvar_(cm/s)^2 Wvar_(cm/s)^2 KE_(m/s)^2 TurbulentKE_(m/s)^2 HorizWindSpeed_cm/s FrictionSpeec_cm/s DragCoef SpeedOfSound_m/s SonicTemperature_C Pressure_mb 
11/25/2013  00:00:00     -135.947      -47.233       -4.201       32.457       27.172       19.728     1053.457      738.301      389.207        1.146        0.109      143.919       17.415        0.015      331.182       -0.968      869.035
11/25/2013  00:01:00     -109.697      -45.675        1.069       36.806       26.776       22.501     1354.684      716.954      506.278        0.835        0.129      118.826       21.682        0.033      331.164       -0.997      869.065
11/25/2013  00:02:00     -113.686      -41.766        1.201       30.327       23.839       16.569      919.748      568.319      274.537        0.822        0.088      121.115       16.701        0.019      331.161       -1.002      869.080
11/25/2013  00:03:00     -124.703      -61.855        2.445       36.054       23.017       16.892     1299.925      529.794      285.334        1.075        0.106      139.201       18.442        0.018      331.206       -0.928      869.078
11/25/2013  00:04:00     -135.302      -66.366        1.226       28.371       22.490       15.695      804.938      505.787      246.317        1.213        0.078      150.702       15.952        0.011      331.223       -0.900      869.058
11/25/2013  00:05:00     -137.546      -66.152       -3.139       28.354       23.037       16.865      803.976      530.706      284.424        1.246        0.081      152.627       16.083        0.011      331.233       -0.884      869.033
11/25/2013  00:06:00     -133.542      -50.052       -7.487       15.454       21.382       13.778      238.817      457.183      189.841        1.064        0.044      142.614        5.314        0.001      331.220       -0.906      869.024
11/25/2013  00:07:00     -144.496      -53.427      -11.259       20.539       16.290       11.353      421.851      265.379      128.890        1.234        0.041      154.057        6.646        0.002      331.161       -1.002      869.032
11/25/2013  00:08:00     -140.411      -53.652       -5.534       19.168       14.428       11.741      367.431      208.164      137.852        1.167        0.036      150.313        9.325        0.004      331.133       -1.049      869.042
11/25/2013  00:09:00     -134.978      -59.845      -12.261       12.083       14.545        8.952      146.007      211.566       80.135        1.119        0.022      147.650        7.616        0.003      331.152       -1.018      869.042
11/25/2013  00:10:00     -132.784      -58.981      -16.101        9.916       13.558       11.438       98.336      183.829      130.831        1.089        0.021      145.294        8.715        0.004      331.112       -1.083      869.046
11/25/2013  00:11:00     -119.675      -48.569       -9.870       27.539       16.955       12.574      758.408      287.466      158.105        0.899        0.060      129.155       15.220        0.014      331.057       -1.175      869.047
11/25/2013  00:12:00     -134.305      -50.435      -10.933       15.763       14.751       10.666      248.483      217.598      113.767        1.064        0.029      143.463        4.024        0.001      331.023       -1.230      869.049
11/25/2013  00:13:00     -121.410      -55.076       -7.028       26.409       20.381       16.686      697.452      415.376      278.439        0.961        0.070      133.318       14.011        0.011      330.977       -1.303      869.066
11/25/2013  00:14:00     -115.389      -61.780      -15.634       21.096       19.174       18.439      445.028      367.646      340.002        0.926        0.058      130.887       10.663        0.007      330.943       -1.360      869.085
11/25/2013  00:15:00     -121.230      -60.190      -13.721       22.006       23.429       16.193      484.286      548.930      262.204        0.990        0.065      135.350       10.319        0.006      330.942       -1.362      869.102
11/25/2013  00:16:00     -122.090      -51.960      -10.516       25.380       21.443       16.348      644.130      459.802      267.258        0.954        0.069      132.687       12.987        0.010      330.900       -1.430      869.102
11/25/2013  00:17:00     -149.275      -64.347      -13.110       23.804       23.790       16.533      566.638      565.966      273.332        1.400        0.070      162.554        8.789        0.003      330.914       -1.407      869.097
11/25/2013  00:18:00     -157.105      -50.631       -3.360       26.096       18.302       14.445      680.997      334.977      208.648        1.424        0.061      165.062       10.517        0.004      330.972       -1.312      869.091
11/25/2013  00:19:00     -147.405      -55.319       -4.466       33.927       30.952       22.234     1151.027      958.001      494.368        1.371        0.130      157.444       17.069        0.012      331.067       -1.156      869.095
11/25/2013  00:20:00     -160.321      -76.264       -1.589       43.562       28.164       20.835     1897.691      793.185      434.106        1.732        0.156      177.536       16.463        0.009      331.091       -1.119      869.096
11/25/2013  00:21:00     -141.887      -72.352      -11.954       41.289       32.577       23.812     1704.776     1061.247      567.019        1.442        0.167      159.269       16.176        0.010      331.068       -1.155      869.102
11/25/2013  00:22:00     -170.276      -27.420      -14.666       35.706       23.259       22.187     1274.906      540.984      492.247        1.613        0.115      172.470       19.575        0.013      330.996       -1.274      869.120
11/25/2013  00:23:00     -170.175      -33.418      -21.893       24.931       28.448       17.368      621.552      809.301      301.655        1.614        0.087      173.425        7.224        0.002      330.941       -1.364      869.135
11/25/2013  00:24:00     -146.726      -19.724      -13.457       23.133       32.505       14.780      535.148     1056.567      218.440        1.195        0.091      148.045        8.727        0.003      330.899       -1.432      869.154
11/25/2013  00:25:00     -173.631       -7.181      -20.330       39.347       27.870       26.371     1548.149      776.721      695.449        1.682        0.151      173.779       21.050        0.015      330.893       -1.442      869.163
11/25/2013  00:26:00     -134.057       -5.259      -14.585       25.088       24.431       16.005      629.424      596.894      256.151        0.985        0.074      134.161       10.853        0.007      330.843       -1.524      869.171
11/25/2013  00:27:00     -137.362       -1.469      -19.517       26.112       38.843       19.212      681.846     1508.752      369.118        1.091        0.128      137.370       10.485        0.006      330.867       -1.485      869.169
11/25/2013  00:28:00     -139.764       -9.197      -13.812       31.623       27.689       18.892     1000.041      766.669      356.892        1.097        0.106      140.067       14.376        0.011      330.899       -1.431      869.158
11/25/2013  00:29:00      -87.972      -27.314       -9.584       35.008       29.122       18.073     1225.575      848.082      326.644        0.549        0.120       92.114       17.445        0.036      330.879       -1.465      869.140
11/25/2013  00:30:00      -41.784      -27.700        4.465       47.643       29.614       21.456     2269.819      876.992      460.372        0.307        0.180       50.132       23.382        0.218      330.919       -1.400      869.135
11/25/2013  00:31:00      -23.961      -26.700       -2.110       30.864       18.666       20.764      952.559      348.421      431.124        0.151        0.087       35.875        8.076        0.051      330.977       -1.305      869.144
11/25/2013  00:32:00      -13.452      -21.910      -14.606       21.956       16.912       15.412      482.062      286.026      237.523        0.094        0.050       25.710        8.548        0.111      330.967       -1.321      869.140
11/25/2013  00:33:00        9.054      -11.603       -5.960       13.795       10.956       12.471      190.310      120.034      155.535        0.036        0.023       14.718        4.619        0.098      330.935       -1.373      869.129
11/25/2013  00:34:00      -34.807      -16.748       -3.426       26.299       18.358       24.617      691.645      337.031      605.991        0.157        0.082       38.627       17.264        0.200      330.894       -1.440      869.113
11/25/2013  00:35:00      -37.616      -35.759       -8.280       27.544       17.201       19.479      758.688      295.890      379.432        0.210        0.072       51.901       13.499        0.068      330.846       -1.520      869.113
11/25/2013  00:36:00      -51.235      -33.623       -3.060       35.502       18.955       20.375     1260.410      359.285      415.157        0.290        0.102       61.283       20.480        0.112      330.795       -1.604      869.110
11/25/2013  00:37:00       -6.743      -20.089        4.245       19.637       17.733       14.050      385.596      314.474      197.394        0.068        0.045       21.191        8.279        0.153      330.830       -1.547      869.119
11/25/2013  00:38:00      -32.595      -16.799       -7.113       23.142       17.359       15.158      535.534      301.326      229.764        0.123        0.053       36.669       12.810        0.122      330.837       -1.536      869.130
11/25/2013  00:39:00      -53.186      -25.017      -16.116       26.590       18.657       17.800      707.010      348.067      316.832        0.254        0.069       58.776       10.352        0.031      330.905       -1.421      869.148
11/25/2013  00:40:00      -15.147      -42.972       -5.474       28.888       19.179       19.446      834.503      367.826      378.144        0.184        0.079       45.563       16.221        0.127      330.875       -1.473      869.161
11/25/2013  00:41:00      -29.991      -51.433       -5.075       27.580       27.660       20.979      760.663      765.069      440.113        0.277        0.098       59.539       14.827        0.062      330.869       -1.481      869.170
11/25/2013  00:42:00      -38.980      -62.456       -5.094       21.982       25.806       16.879      483.220      665.971      284.892        0.344        0.072       73.622        6.944        0.009      330.928       -1.384      869.175
11/25/2013  00:43:00      -54.136      -16.015        2.596       43.311       36.194       21.624     1875.866     1310.014      467.597        0.342        0.183       56.455       17.994        0.102      330.892       -1.443      869.184
11/25/2013  00:44:00      -74.989      -53.777      -11.655       17.237       14.232       11.331      297.107      202.556      128.392        0.464        0.031       92.279        7.039        0.006      330.906       -1.421      869.185
11/25/2013  00:45:00      -94.563      -36.067      -18.324       10.295       10.677       12.934      105.981      113.992      167.295        0.548        0.019      101.208        6.061        0.004      330.888       -1.451      869.178
11/25/2013  00:46:00      -97.754       -8.489      -13.512       16.932       18.706       14.729      286.700      349.897      216.937        0.533        0.043       98.121        8.424        0.007      330.829       -1.548      869.161
11/25/2013  00:47:00     -123.084      -50.335      -11.604       24.246       18.052       11.259      587.850      325.883      126.761        0.943        0.052      132.978        4.792        0.001      330.853       -1.508      869.146
11/25/2013  00:48:00     -120.594      -55.445      -14.015       23.514       27.515       16.387      552.886      757.068      268.548        0.970        0.079      132.730       12.817        0.009      330.825       -1.555      869.137
11/25/2013  00:49:00     -118.621      -40.489       -3.059       23.149       20.708       14.531      535.874      428.809      211.154        0.845        0.059      125.340        9.469        0.006      330.815       -1.571      869.134
11/25/2013  00:50:00     -105.960      -57.984       -0.942       31.170       22.679       17.303      971.540      514.356      299.403        0.819        0.089      120.788       15.774        0.017      330.805       -1.589      869.146
11/25/2013  00:51:00      -83.445      -39.934       -5.079       18.857       19.338       16.320      355.585      373.951      266.332        0.479        0.050       92.508       12.641        0.019      330.792       -1.609      869.189
11/25/2013  00:52:00      -42.959      -29.084        2.896       40.106       24.097       15.536     1608.453      580.683      241.370        0.256        0.122       51.878       18.979        0.134      330.826       -1.553      869.231
11/25/2013  00:53:00      -71.599      -15.684       -0.993       26.623       15.999       11.311      708.778      255.956      127.932        0.323        0.055       73.297        9.871        0.018      330.838       -1.533      869.248
11/25/2013  00:54:00      -76.207      -39.842       -8.092       17.566       15.003       11.521      308.550      225.100      132.738        0.406        0.033       85.994        8.278        0.009      330.905       -1.422      869.247
11/25/2013  00:55:00     -114.671      -46.851      -14.068       17.197       19.210       13.812      295.728      369.042      190.778        0.820        0.043      123.872        7.275        0.003      330.937       -1.369      869.225
11/25/2013  00:56:00     -112.521      -51.265       -9.481       31.647       21.820       15.811     1001.522      476.130      249.995        0.855        0.086      123.649       15.646        0.016      330.894       -1.439      869.190
11/25/2013  00:57:00     -121.840      -55.960       -8.377       34.932       28.257       17.601     1220.232      798.445      309.805        1.019        0.116      134.077       15.559        0.013      330.831       -1.545      869.171
11/25/2013  00:58:00     -124.552      -33.359      -13.975       27.910       23.828       16.004      778.970      567.770      256.114        0.921        0.080      128.942       12.999        0.010      330.828       -1.549      869.158
11/25/2013  00:59:00     -121.414      -22.419      -13.065       17.367       18.349       12.530      301.610      336.683      157.009        0.810        0.040      123.466        7.916        0.004      330.865       -1.489      869.173
11/25/2013  01:00:00      -84.494      -22.716       -3.261       25.951       13.978       12.350      673.478      195.398      152.531        0.434        0.051       87.495       13.150        0.023      330.841       -1.529      869.199
11/25/2013  01:01:00      -66.881      -22.548       -5.890       17.957       16.518       12.456      322.447      272.838      155.157        0.288        0.038       70.579        8.855        0.016      330.876       -1.469      869.228
11/25/2013  01:02:00      -63.431      -40.674       -5.334       25.817       12.939       14.584      666.515      167.413      212.705        0.338        0.052       75.352       15.888        0.044      330.930       -1.381      869.240
11/25/2013  01:03:00      -58.891      -36.763        0.263       26.780       13.269       18.159      717.190      176.074      329.749        0.302        0.061       69.424       16.846        0.059      330.895       -1.439      869.233
11/25/2013  01:04:00      -51.027      -50.180        1.165       33.571       23.970       16.488     1126.980      574.563      271.860        0.355        0.099       71.566       17.773        0.062      330.935       -1.372      869.207
11/25/2013  01:05:00      -76.777      -46.491        2.984       28.220       18.960       18.443      796.369      359.497      340.137        0.478        0.075       89.756       16.048        0.032      330.831       -1.544      869.183
11/25/2013  01:06:00     -114.695      -55.253       -4.450       35.640       23.013       17.952     1270.217      529.597      322.276        0.917        0.106      127.310       16.537        0.017      330.847       -1.516      869.170
11/25/2013  01:07:00     -108.457      -52.250      -12.859       18.282       19.344       14.444      334.247      374.201      208.631        0.779        0.046      120.387        7.775        0.004      330.856       -1.503      869.160
11/25/2013  01:08:00      -94.417      -36.956       -8.372       25.271       24.149       16.709      638.648      583.184      279.193        0.593        0.075      101.392       11.001        0.012      330.809       -1.581      869.154
11/25/2013  01:09:00     -105.961      -25.382       -9.781       20.269       16.375       12.796      410.827      268.153      163.731        0.641        0.042      108.959        7.027        0.004      330.801       -1.595      869.170
11/25/2013  01:10:00     -104.324      -26.627       -9.191       16.777       22.041       11.963      281.462      485.799      143.104        0.629        0.046      107.669        7.561        0.005      330.830       -1.547      869.182
11/25/2013  01:11:00      -68.732      -19.633       -1.462       26.784       24.263       17.660      717.375      588.700      311.870        0.336        0.081       71.481       16.023        0.050      330.830       -1.546      869.203
11/25/2013  01:12:00     -102.599      -10.581      -11.759       17.365       16.175       15.248      301.560      261.643      232.494        0.579        0.040      103.143        8.100        0.006      330.835       -1.537      869.215
11/25/2013  01:13:00     -111.227      -23.627      -13.860       16.935       15.191        9.359      286.795      230.774       87.584        0.686        0.030      113.708        2.438        0.000      330.840       -1.529      869.232
11/25/2013  01:14:00     -124.752      -35.887       -9.591       24.515       22.389       15.317      600.976      501.257      234.612        0.914        0.067      129.811        8.938        0.005      330.786       -1.620      869.237
11/25/2013  01:15:00     -134.361      -42.462       -7.285       32.082       24.733       13.702     1029.259      611.708      187.755        1.087        0.091      140.911        4.892        0.001      330.782       -1.626      869.240
11/25/2013  01:16:00     -116.809      -62.769       -2.821       30.185       19.278       14.160      911.136      371.659      200.497        0.954        0.074      132.606        9.982        0.006      330.766       -1.652      869.230
11/25/2013  01:17:00      -98.710      -40.222       -8.382       32.715       25.086       16.651     1070.254      629.314      277.260        0.670        0.099      106.590       15.859        0.022      330.798       -1.599      869.214
11/25/2013  01:18:00      -85.733      -46.991       -1.333       25.038       27.409       15.520      626.904      751.269      240.877        0.559        0.081       97.766       13.309        0.019      330.768       -1.648      869.213
11/25/2013  01:19:00     -101.861      -39.855      -11.263       18.891       25.921       14.730      356.861      671.901      216.960        0.667        0.062      109.380       11.128        0.010      330.795       -1.603      869.224
11/25/2013  01:20:00     -109.053      -45.621      -11.511       21.530       22.352       14.387      463.552      499.620      206.974        0.764        0.059      118.211       13.775        0.014      330.786       -1.618      869.250
11/25/2013  01:21:00      -89.006      -31.503       -7.810       19.014       25.771       11.182      361.514      664.124      125.037        0.506        0.058       94.416        9.646        0.010      330.805       -1.589      869.286
11/25/2013  01:22:00      -88.814      -26.851       -6.649       16.454       19.893       15.822      270.747      395.749      250.337        0.478        0.046       92.784        9.884        0.011      330.819       -1.565      869.326
11/25/2013  01:23:00      -91.943       -9.802       -9.635       20.927       15.008       14.882      437.921      225.238      221.481        0.476        0.044       92.464       14.123        0.023      330.761       -1.661      869.354
11/25/2013  01:24:00      -91.629      -27.611       -8.700       17.137       14.143        8.249      293.675      200.013       68.038        0.490        0.028       95.698        6.737        0.005      330.782       -1.627      869.374
11/25/2013  01:25:00      -48.650      -26.219       -1.485       16.832       10.197       10.554      283.315      103.987      111.393        0.178        0.025       55.265        8.031        0.021      330.735       -1.700      869.390
11/25/2013  01:26:00      -70.736      -27.474      -10.992       10.749        7.973        8.239      115.546       63.573       67.889        0.306        0.012       75.884        3.609        0.002      330.789       -1.615      869.396
11/25/2013  01:27:00      -84.359      -23.981      -16.488        9.453        8.701        7.380       89.359       75.707       54.472        0.409        0.011       87.701        5.157        0.003      330.804       -1.588      869.404
11/25/2013  01:28:00      -75.546      -25.334       -9.187       10.036       14.569        8.985      100.725      212.243       80.727        0.341        0.020       79.680        6.383        0.006      330.782       -1.626      869.412
11/25/2013  01:29:00      -87.822      -13.970      -14.204        9.166        9.194        7.699       84.021       84.531       59.273        0.417        0.011       88.926        4.091        0.002      330.743       -1.692      869.406
11/25/2013  01:30:00      -81.165      -12.387      -12.790        6.996       10.003        7.539       48.951      100.059       56.837        0.356        0.010       82.105        3.131        0.001      330.789       -1.613      869.395
11/25/2013  01:31:00      -82.199      -15.325      -13.983        9.892        9.062        7.002       97.858       82.127       49.031        0.371        0.011       83.615        5.048        0.004      330.684       -1.786      869.395
11/25/2013  01:32:00      -80.892      -14.908      -11.276       12.532       14.809       10.179      157.061      219.302      103.620        0.369        0.024       82.255        9.428        0.013      330.693       -1.771      869.407
11/25/2013  01:33:00      -59.037       -4.816      -10.297       11.112        7.933        5.927      123.475       62.925       35.132        0.192        0.011       59.233        3.174        0.003      330.848       -1.517      869.425
11/25/2013  01:34:00      -27.927        6.150       -4.870        6.802        6.962        3.920       46.270       48.466       15.369        0.048        0.006       28.596        3.541        0.015      330.829       -1.547      869.458
11/25/2013  01:35:00        7.094       22.708       -2.853       21.216        8.196        6.642      450.121       67.182       44.116        0.057        0.028       23.790        8.143        0.117      330.918       -1.399      869.494
11/25/2013  01:36:00       30.646       25.492        5.012        9.974       12.070        8.754       99.479      145.689       76.636        0.097        0.016       39.863        7.790        0.038      330.848       -1.516      869.510
11/25/2013  01:37:00       49.188       44.191        5.765       11.289        8.257       11.578      127.439       68.177      134.058        0.237        0.016       66.123        6.775        0.010      330.773       -1.640      869.512
11/25/2013  01:38:00       36.603       32.882       -5.922        9.659        9.639       12.237       93.296       92.906      149.742        0.140        0.017       49.203        5.270        0.011      330.710       -1.743      869.504
11/25/2013  01:39:00       15.228       11.573        0.117       13.508        9.380        8.901      182.479       87.986       79.231        0.036        0.017       19.126        8.801        0.212      330.669       -1.810      869.494
11/25/2013  01:40:00        6.870       41.881       -6.761        7.750       19.032        5.859       60.059      362.214       34.332        0.115        0.023       42.440        7.275        0.029      330.962       -1.329      869.495
11/25/2013  01:41:00       10.187       51.518       -5.037        7.344       13.576        4.487       53.933      184.312       20.134        0.152        0.013       52.515        3.987        0.006      331.154       -1.015      869.497
11/25/2013  01:42:00        3.696       35.560       -3.727        8.111        9.228        3.734       65.784       85.160       13.944        0.073        0.008       35.751        1.871        0.003      331.168       -0.993      869.514
11/25/2013  01:43:00        3.618       20.438       -2.327        7.630       11.470        4.605       58.216      131.553       21.210        0.032        0.011       20.756        1.274        0.004      331.102       -1.099      869.541
11/25/2013  01:44:00       16.255        0.249       -5.609       13.332        9.965        5.904      177.750       99.305       34.856        0.030        0.016       16.257        7.394        0.207      331.164       -0.997      869.569
11/25/2013  01:45:00        6.379       23.292       -3.469       13.682       12.374        5.035      187.198      153.116       25.354        0.048        0.018       24.149        2.269        0.009      331.253       -0.849      869.589
11/25/2013  01:46:00       21.960       17.164        0.984        8.851       16.578        8.603       78.338      274.819       74.006        0.060        0.021       27.872        6.660        0.057      331.236       -0.877      869.596
11/25/2013  01:47:00       33.801       11.886        6.999       13.003        6.022       10.134      169.088       36.268      102.692        0.082        0.015       35.830        9.295        0.067      331.155       -1.010      869.606
11/25/2013  01:48:00       31.200        4.772        1.777        5.527        5.495        6.173       30.546       30.191       38.107        0.055        0.005       31.563        2.626        0.007      331.092       -1.117      869.613
11/25/2013  01:49:00       42.483       -1.520       -4.810        8.523        8.556        8.701       72.649       73.211       75.705        0.103        0.011       42.510        5.636        0.018      331.272       -0.819      869.605
11/25/2013  01:50:00       16.258       10.515        6.722        6.662        7.691        6.492       44.385       59.155       42.152        0.028        0.007       19.362        2.420        0.016      331.190       -0.955      869.595
11/25/2013  01:51:00       -9.030       -3.842        3.282       11.686        5.833        5.283      136.570       34.023       27.908        0.015        0.010        9.814        4.786        0.238      330.948       -1.352      869.584
11/25/2013  01:52:00      -32.530       -0.930       -2.233       16.435        6.864        5.844      270.103       47.120       34.149        0.071        0.018       32.543        5.298        0.027      330.955       -1.342      869.567
11/25/2013  01:53:00      -47.224      -17.582       -2.320        9.706       12.758        7.078       94.214      162.754       50.105        0.143        0.015       50.391        5.982        0.014      330.867       -1.485      869.555
11/25/2013  01:54:00      -30.013      -20.682       -3.839       19.576        7.806        7.884      383.207       60.930       62.162        0.092        0.025       36.449        7.176        0.039      330.797       -1.600      869.550
11/25/2013  01:55:00      -68.724      -32.221      -11.672       11.492       10.804        8.146      132.071      116.729       66.361        0.311        0.016       75.902        4.958        0.004      330.758       -1.665      869.549
11/25/2013  01:56:00      -70.638      -25.551       -5.893       13.952       10.896        8.019      194.672      118.714       64.301        0.303        0.019       75.117        4.523        0.004      330.704       -1.751      869.559
11/25/2013  01:57:00      -34.991      -26.791       -1.339       24.406       17.020       13.093      595.659      289.666      171.420        0.150        0.053       44.070       12.892        0.086      330.719       -1.728      869.568
11/25/2013  01:58:00      -61.348      -17.410       -8.665       13.377       11.520        8.087      178.941      132.717       65.401        0.226        0.019       63.771        5.527        0.008      330.758       -1.664      869.579
11/25/2013  01:59:00      -55.818      -10.815       -7.035       12.747       13.695       10.600      162.492      187.554      112.369        0.187        0.023       56.856        9.680        0.029      330.710       -1.744      869.587
11/25/2013  02:00:00      -28.143        8.459       -9.879        9.261       10.131        6.897       85.758      102.646       47.562        0.060        0.012       29.387        3.706        0.016      330.826       -1.553      869.592
11/25/2013  02:01:00      -38.015       15.980       -4.918        9.981        8.012        6.307       99.612       64.194       39.772        0.096        0.010       41.237        2.415        0.003      330.844       -1.521      869.583
11/25/2013  02:02:00      -47.754       14.281       -2.174       10.989        6.664        7.571      120.762       44.405       57.327        0.136        0.011       49.843        5.096        0.010      330.961       -1.330      869.577
11/25/2013  02:03:00      -66.353       -5.154       -9.175        7.292        9.865       10.793       53.176       97.324      116.491        0.239        0.013       66.553        3.780        0.003      330.879       -1.464      869.566
11/25/2013  02:04:00      -60.855       -0.401       -9.549        8.810        5.434        6.808       77.621       29.525       46.353        0.197        0.008       60.856        3.494        0.003      330.814       -1.574      869.547
11/25/2013  02:05:00      -57.245       -8.027        0.415       20.015       15.809       11.022      400.591      249.912      121.480        0.206        0.039       57.805       10.377        0.032      330.726       -1.717      869.533
11/25/2013  02:06:00      -57.904       -8.861       -6.610       17.301       11.780        9.847      299.335      138.765       96.960        0.200        0.027       58.578        9.901        0.029      330.709       -1.745      869.524
11/25/2013  02:07:00      -72.923       -1.867      -12.708        6.127        6.311        6.825       37.541       39.830       46.576        0.280        0.006       72.947        1.207        0.000      330.712       -1.741      869.519
11/25/2013  02:08:00      -74.188       -5.582      -14.078       12.209       12.570        8.685      149.068      158.001       75.437        0.306        0.019       74.397        8.378        0.013      330.674       -1.801      869.520
11/25/2013  02:09:00      -83.575      -18.602       -7.875       16.249       12.874        9.474      264.027      165.738       89.749        0.396        0.026       85.621        8.787        0.011      330.615       -1.897      869.534
11/25/2013  02:10:00      -90.837      -17.909       -9.623       12.894       13.021        9.117      166.247      169.554       83.117        0.454        0.021       92.586        3.601        0.002      330.586       -1.946      869.533
11/25/2013  02:11:00      -97.713      -18.049       -6.608       20.587       15.494       13.208      423.829      240.055      174.457        0.538        0.042       99.366       11.051        0.012      330.515       -2.063      869.525
11/25/2013  02:12:00      -97.548      -11.943       -3.707       22.682       15.697       15.294      514.495      246.395      233.893        0.533        0.050       98.276       13.454        0.019      330.456       -2.159      869.504
11/25/2013  02:13:00     -100.522       -9.171       -0.076       33.395       17.590       16.874     1115.228      309.423      284.739        0.595        0.085      100.939       19.440        0.037      330.397       -2.256      869.496
11/25/2013  02:14:00     -125.651      -10.641       -8.129       21.742       16.317       13.872      472.734      266.230      192.433        0.845        0.047      126.101       10.835        0.007      330.390       -2.267      869.491
11/25/2013  02:15:00     -119.433      -10.359       -7.833       22.685       14.329       13.801      514.618      205.326      190.463        0.767        0.046      119.881       13.596        0.013      330.413       -2.231      869.499
11/25/2013  02:16:00     -102.553      -19.258       -5.134       20.761       19.037       15.856      431.026      362.394      251.411        0.598        0.052      104.345       12.859        0.015      330.441       -2.184      869.512
11/25/2013  02:17:00     -129.407      -28.658       -6.213       21.855       18.389       13.350      477.661      338.161      178.229        0.930        0.050      132.542       10.542        0.006      330.503       -2.082      869.518
11/25/2013  02:18:00     -122.393      -55.734      -13.675       19.760       15.659       14.256      390.453      245.192      203.229        0.956        0.042      134.486       11.911        0.008      330.421       -2.216      869.508
11/25/2013  02:19:00     -124.931      -57.684       -7.561       31.267       32.356       16.403      977.619     1046.927      269.060        1.064        0.115      137.606       17.985        0.017      330.321       -2.382      869.487
11/25/2013  02:20:00      -92.865      -15.779        0.707       53.636       34.611       25.684     2876.864     1197.944      659.660        0.680        0.237       94.196       26.598        0.080      330.242       -2.511      869.454
11/25/2013  02:21:00     -122.468        5.014       -2.514       56.979       46.627       33.496     3246.561     2174.104     1121.999        1.078        0.327      122.570       33.009        0.073      330.186       -2.603      869.429
11/25/2013  02:22:00     -146.990       25.279       -9.141       39.229       31.740       22.306     1538.908     1007.449      497.568        1.269        0.152      149.148       17.038        0.013      330.245       -2.505      869.415
11/25/2013  02:23:00     -182.741       44.696      -11.223       32.750       24.908       22.147     1072.556      620.390      490.472        1.885        0.109      188.127       20.380        0.012      330.347       -2.340      869.415
11/25/2013  02:24:00     -149.021       25.920      -11.486       43.339       37.751       22.005     1878.279     1425.132      484.240        1.340        0.189      151.258       20.069        0.018      330.366       -2.308      869.415
11/25/2013  02:25:00     -151.354       28.318      -11.089       38.332       24.391       18.324     1469.361      594.903      335.753        1.312        0.120      153.980       16.340        0.011      330.432       -2.199      869.418
11/25/2013  02:26:00     -107.143      -31.512      -10.842       27.957       36.296       19.812      781.574     1317.435      392.511        0.754        0.125      111.681       13.603        0.015      330.435       -2.195      869.426
11/25/2013  02:27:00      -78.470      -31.171       -3.582       28.171       23.616       20.277      793.609      557.704      411.174        0.445        0.088       84.434       16.372        0.038      330.429       -2.204      869.439
11/25/2013  02:28:00      -98.597      -31.024       -8.004       23.047       30.840       15.678      531.181      951.112      245.796        0.624        0.086      103.363       11.367        0.012      330.428       -2.205      869.435
11/25/2013  02:29:00      -70.008      -29.453       -1.889       40.306       24.869       13.866     1624.605      618.461      192.266        0.410        0.122       75.951       13.330        0.031      330.387       -2.273      869.422
11/25/2013  02:30:00      -81.577      -13.388      -10.195       22.583       26.669       12.922      510.012      711.234      166.990        0.416        0.069       82.668        6.426        0.006      330.423       -2.214      869.407
11/25/2013  02:31:00      -98.629       -1.155       -7.315       22.387       24.115       13.095      501.174      581.548      171.479        0.552        0.063       98.636       10.715        0.012      330.424       -2.212      869.395
11/25/2013  02:32:00     -126.421       20.375       -9.469       22.396       20.755       13.877      501.577      430.786      192.584        0.881        0.056      128.053       11.714        0.008      330.647       -1.846      869.383
11/25/2013  02:33:00     -114.143       42.743      -12.018       29.522       19.616       15.589      871.542      384.781      243.005        0.825        0.075      121.884        7.952        0.004      330.708       -1.747      869.370
11/25/2013  02:34:00     -105.819       44.396      -11.569       28.929       22.799       21.321      836.864      519.782      454.571        0.756        0.091      114.755       15.766        0.019      330.712       -1.739      869.368
11/25/2013  02:35:00      -75.964       40.987       -8.095       26.547       20.526       16.721      704.736      421.313      279.593        0.446        0.070       86.316        7.429        0.007      330.800       -1.594      869.373
11/25/2013  02:36:00      -51.561        1.948       -2.348       15.576       17.242        8.959      242.608      297.297       80.267        0.164        0.031       51.597        3.110        0.004      330.752       -1.673      869.367
11/25/2013  02:37:00      -24.832       -6.937       -3.595       12.841       16.329       10.560      164.902      266.650      111.513        0.061        0.027       25.783        4.972        0.037      330.801       -1.594      869.353
11/25/2013  02:38:00       -9.737      -12.935       -1.634       14.987        6.747        7.706      224.599       45.525       59.380        0.030        0.016       16.190        5.415        0.112      330.687       -1.781      869.353
11/25/2013  02:39:00      -15.642      -17.282       -9.114       12.627       10.813        7.421      159.443      116.926       55.072        0.048        0.017       23.310        5.776        0.061      330.699       -1.762      869.354
11/25/2013  02:40:00      -14.280       -4.420       -1.843        8.345        6.546        5.471       69.635       42.855       29.927        0.018        0.007       14.948        3.708        0.062      330.640       -1.858      869.365
11/25/2013  02:41:00       14.022       10.679       -7.666       11.327        8.648        8.570      128.300       74.786       73.439        0.032        0.014       17.626        7.278        0.171      330.857       -1.502      869.377
11/25/2013  02:42:00       19.421       29.310        2.478       10.925        7.035        9.878      119.363       49.496       97.577        0.075        0.013       35.160        4.299        0.015      330.802       -1.593      869.397
11/25/2013  02:43:00       14.113       34.861       -2.753        9.056        8.588        7.154       82.011       73.748       51.185        0.081        0.010       37.610        7.486        0.040      330.823       -1.557      869.410
11/25/2013  02:44:00       16.821       29.855       -5.695        8.955       13.571        8.205       80.187      184.168       67.329        0.077        0.017       34.267        6.108        0.032      330.888       -1.451      869.404
11/25/2013  02:45:00       20.214       11.421       -1.361       11.511        8.895        6.917      132.508       79.126       47.839        0.040        0.013       23.217        5.149        0.049      330.788       -1.617      869.394
11/25/2013  02:46:00       -4.332        1.126       -1.625        5.798        8.696        3.666       33.614       75.625       13.443        0.007        0.006        4.475        1.584        0.125      330.763       -1.658      869.375
11/25/2013  02:47:00      -28.292      -10.996       -5.501       17.261        9.467        7.146      297.955       89.621       51.062        0.070        0.022       30.354        4.533        0.022      330.568       -1.976      869.376
11/25/2013  02:48:00      -13.637       -8.838       -4.190       10.495        7.922        5.669      110.154       62.765       32.143        0.024        0.010       16.250        5.054        0.097      330.645       -1.849      869.372
11/25/2013  02:49:00      -24.577      -16.393       -4.457        9.237        6.026        6.776       85.321       36.315       45.911        0.053        0.008       29.543        3.823        0.017      330.532       -2.035      869.371
11/25/2013  02:50:00      -26.911      -21.653       -7.291        7.325        6.178        4.937       53.655       38.173       24.378        0.068        0.006       34.541        1.876        0.003      330.522       -2.053      869.368
11/25/2013  02:51:00      -40.507       -6.946       -9.626       10.855       10.244        5.135      117.838      104.949       26.365        0.102        0.012       41.098        2.973        0.005      330.568       -1.975      869.370
11/25/2013  02:52:00      -38.730       -1.935       -1.756       19.548       10.222       10.369      382.118      104.486      107.525        0.105        0.030       38.778        7.756        0.040      330.526       -2.044      869.366
11/25/2013  02:53:00      -67.001      -19.078       -9.413        9.880       10.829        7.857       97.607      117.268       61.728        0.261        0.014       69.664        3.484        0.003      330.385       -2.278      869.365
11/25/2013  02:54:00      -47.549      -38.212       -4.538       16.439       10.554       11.158      270.232      111.387      124.512        0.212        0.025       61.001        8.288        0.018      330.328       -2.368      869.372
11/25/2013  02:55:00      -62.220      -22.476       -6.649       23.107       16.914       11.269      533.915      286.067      126.980        0.268        0.047       66.155        5.737        0.008      330.259       -2.483      869.372
11/25/2013  02:56:00      -83.755       -7.390      -14.492       17.303        9.276        9.139      299.389       86.052       83.522        0.387        0.023       84.080        6.348        0.006      330.245       -2.507      869.365
11/25/2013  02:57:00      -58.366      -13.723      -15.157       14.508       21.091       12.558      210.495      444.837      157.702        0.232        0.041       59.957       10.561        0.031      330.196       -2.587      869.359
11/25/2013  02:58:00      -75.894       -8.517      -10.648       20.058       14.095       12.249      402.326      198.679      150.029        0.335        0.038       76.370        9.108        0.014      330.183       -2.608      869.341
11/25/2013  02:59:00      -84.166       -6.185      -12.368       19.301        8.158       10.071      372.514       66.557      101.433        0.391        0.027       84.393        9.402        0.012      330.289       -2.433      869.337
11/25/2013  03:00:00     -102.402       -6.067      -17.471       13.649       11.121       10.859      186.282      123.667      117.918        0.563        0.021      102.582        7.514        0.005      330.259       -2.481      869.332
11/25/2013  03:01:00      -85.280      -11.361      -16.685       20.477       10.278       11.723      419.323      105.629      137.431        0.417        0.033       86.033        5.009        0.003      330.263       -2.477      869.340
11/25/2013  03:02:00      -93.520       -2.035      -15.230       24.668       11.201       12.641      608.525      125.453      159.800        0.494        0.045       93.543       11.739        0.016      330.304       -2.408      869.344
11/25/2013  03:03:00     -103.077        1.296      -17.671        9.456        7.805        7.847       89.408       60.921       61.579        0.558        0.011      103.085        2.707        0.001      330.345       -2.342      869.339
11/25/2013  03:04:00     -115.280       -8.803      -17.577        7.211        8.178        7.963       51.997       66.881       63.402        0.693        0.009      115.616        4.824        0.002      330.331       -2.364      869.327
11/25/2013  03:05:00     -126.884      -17.997      -19.863       10.020        7.741        7.327      100.401       59.917       53.692        0.852        0.011      128.154        5.131        0.002      330.348       -2.337      869.315
11/25/2013  03:06:00      -97.816      -27.213       -6.058       25.601       21.335       15.629      655.408      455.194      244.253        0.585        0.068      101.530       14.338        0.020      330.293       -2.425      869.297
11/25/2013  03:07:00      -64.812      -37.520        0.562       19.382       19.182       15.419      375.673      367.960      237.756        0.329        0.049       74.889       11.962        0.026      330.259       -2.482      869.282
11/25/2013  03:08:00      -17.200      -11.672        2.962       15.307       16.656       10.556      234.291      277.430      111.420        0.053        0.031       20.786        8.669        0.174      330.286       -2.438      869.277
11/25/2013  03:09:00      -24.022       -8.372        0.080       10.281        9.121        9.527      105.696       83.197       90.766        0.046        0.014       25.440        5.866        0.053      330.350       -2.334      869.281
11/25/2013  03:10:00      -34.387      -16.465       -1.319        7.708        8.438        6.471       59.416       71.206       41.868        0.081        0.009       38.125        3.543        0.009      330.470       -2.136      869.280
11/25/2013  03:11:00      -16.380      -12.646       -1.150       14.247       10.081        7.174      202.966      101.620       51.473        0.039        0.018       20.693        7.719        0.139      330.458       -2.157      869.287
11/25/2013  03:12:00        2.386       -5.529        7.114       10.769        7.524        8.628      115.964       56.605       74.445        0.017        0.012        6.022        3.730        0.384      330.512       -2.069      869.292
11/25/2013  03:13:00      -28.125      -20.026        0.930       16.343        9.174        7.799      267.095       84.171       60.821        0.080        0.021       34.526        7.536        0.048      330.530       -2.039      869.303
11/25/2013  03:14:00      -55.154      -52.433       -6.591       12.484       11.806        8.929      155.854      139.377       79.727        0.310        0.019       76.100        5.153        0.005      330.506       -2.078      869.313
11/25/2013  03:15:00      -55.698      -41.909       -5.662       22.474       10.910       11.273      505.103      119.036      127.088        0.282        0.038       69.704       11.365        0.027      330.487       -2.109      869.317
11/25/2013  03:16:00      -91.042      -30.323       -7.255       12.854       10.179        8.683      165.237      103.615       75.401        0.480        0.017       95.959        4.756        0.002      330.378       -2.290      869.313
11/25/2013  03:17:00      -96.121      -27.164       -8.138       19.583       26.635       12.479      383.489      709.443      155.731        0.565        0.062       99.886        8.608        0.007      330.337       -2.355      869.316
11/25/2013  03:18:00       -5.761      -30.026       10.389       43.058       18.141       19.370     1853.984      329.094      375.202        0.180        0.128       30.574       20.495        0.449      330.349       -2.335      869.323
11/25/2013  03:19:00      -82.451      -56.188       -0.232       63.032       53.783       26.417     3973.074     2892.620      697.836        0.876        0.378       99.776       28.183        0.080      330.436       -2.192      869.333
11/25/2013  03:20:00     -101.375      -75.377        5.792       56.856       44.267       29.484     3232.561     1959.607      869.311        1.103        0.303      126.327       29.666        0.055      330.592       -1.937      869.340
11/25/2013  03:21:00      -77.080      -64.722       -0.605       56.607       46.433       31.585     3204.348     2156.024      997.605        0.824        0.318      100.649       33.922        0.114      330.544       -2.016      869.361
11/25/2013  03:22:00      -61.180      -54.151        8.351       64.968       38.694       25.070     4220.803     1497.239      628.495        0.654        0.317       81.703       30.338        0.138      330.564       -1.982      869.382
11/25/2013  03:23:00      -87.134      -75.318        1.192       57.792       41.821       25.392     3339.953     1748.986      644.777        0.950        0.287      115.175       27.905        0.059      330.542       -2.019      869.403
11/25/2013  03:24:00      -50.673      -67.004       -0.895       41.522       30.509       22.298     1724.099      930.822      497.207        0.510        0.158       84.007       17.322        0.043      330.552       -2.002      869.426
11/25/2013  03:25:00      -57.700      -45.774       -2.384       45.903       27.975       17.514     2107.047      782.621      306.745        0.431        0.160       73.652       17.691        0.058      330.396       -2.258      869.438
11/25/2013  03:26:00      -77.225      -61.520        0.926       56.238       36.898       24.677     3162.699     1361.493      608.934        0.744        0.257       98.734       28.918        0.086      330.399       -2.254      869.426
11/25/2013  03:27:00      -82.866      -63.559       -4.521       51.169       35.922       20.864     2618.311     1290.369      435.314        0.763        0.217      104.434       24.972        0.057      330.328       -2.370      869.409
11/25/2013  03:28:00     -124.285      -48.212       -4.929       32.427       19.503       20.563     1051.539      380.350      422.844        0.982        0.093      133.309       15.891        0.014      330.215       -2.553      869.403
11/25/2013  03:29:00     -148.998      -50.089       -6.235       18.506       21.187       14.567      342.458      448.895      212.211        1.288        0.050      157.192        9.930        0.004      330.233       -2.525      869.397
11/25/2013  03:30:00     -138.252      -38.725      -10.564       24.489       31.463       18.691      599.708      989.952      349.355        1.133        0.097      143.573       12.755        0.008      330.195       -2.588      869.402
11/25/2013  03:31:00     -148.308      -23.638       -9.174       30.542       19.381       18.275      932.834      375.614      333.958        1.214        0.082      150.180       14.264        0.009      330.196       -2.586      869.413
11/25/2013  03:32:00     -130.931      -35.797       -6.858       41.557       39.274       19.559     1726.974     1542.476      382.543        1.106        0.183      135.737       19.667        0.021      330.123       -2.705      869.421
11/25/2013  03:33:00     -129.150      -21.667       -3.260       41.350       39.316       27.619     1709.853     1545.710      762.805        1.059        0.201      130.955       24.418        0.035      330.030       -2.857      869.426
11/25/2013  03:34:00     -160.488      -17.782       -9.575       46.637       33.394       23.875     2174.993     1115.156      570.011        1.501        0.193      161.470       24.644        0.023      329.948       -2.992      869.436
11/25/2013  03:35:00     -165.706      -46.757       -4.161       47.635       32.939       23.739     2269.091     1084.983      563.544        1.679        0.196      172.176       26.344        0.023      329.950       -2.990      869.458
11/25/2013  03:36:00     -172.815      -57.082      -11.274       31.271       24.453       19.447      977.889      597.953      378.191        1.760        0.098      181.998       13.180        0.005      330.032       -2.854      869.488
11/25/2013  03:37:00     -138.076      -50.055       -3.195       32.840       28.630       19.222     1078.441      819.686      369.467        1.192        0.113      146.869       18.033        0.015      330.045       -2.834      869.497
11/25/2013  03:38:00     -110.272      -54.459      -14.532       23.773       26.081       14.903      565.138      680.207      222.095        0.840        0.073      122.987       10.120        0.007      330.095       -2.754      869.497
11/25/2013  03:39:00      -60.299      -33.820        4.345       43.326       27.541       24.937     1877.167      758.533      621.837        0.403        0.163       69.136       21.547        0.097      330.066       -2.800      869.501
11/25/2013  03:40:00      -91.717      -16.128       -6.445       35.929       29.978       19.276     1290.881      898.703      371.576        0.564        0.128       93.124       17.286        0.034      330.122       -2.709      869.512
11/25/2013  03:41:00      -78.486       -2.442       -7.163       37.163       24.229       16.654     1381.103      587.050      277.346        0.423        0.112       78.524       19.626        0.062      330.114       -2.720      869.516
11/25/2013  03:42:00      -67.032       -9.012       -9.484       34.516       21.895       16.516     1191.381      479.370      272.770        0.330        0.097       67.635       15.322        0.051      330.077       -2.781      869.528
11/25/2013  03:43:00      -94.435       -0.167      -10.740       41.535       27.629       18.640     1725.154      763.366      347.464        0.593        0.142       94.436       16.371        0.030      330.083       -2.772      869.527
11/25/2013  03:44:00     -147.560       14.215      -10.922       51.675       47.512       26.736     2670.315     2257.365      714.809        1.387        0.282      148.244       12.344        0.007      330.241       -2.513      869.517
11/25/2013  03:45:00      -98.095      -26.665       -9.772       39.666       35.497       21.838     1573.388     1260.040      476.902        0.687        0.166      101.655       12.749        0.016      330.189       -2.598      869.506
11/25/2013  03:46:00      -97.205      -11.476       -9.466       40.030       36.879       20.917     1602.382     1360.080      437.539        0.653        0.170       97.880       13.235        0.018      330.172       -2.625      869.504
11/25/2013  03:47:00     -132.890       21.297      -15.179       30.861       30.790       18.790      952.385      948.013      353.050        1.030        0.113      134.586       14.191        0.011      330.235       -2.523      869.510
11/25/2013  03:48:00     -137.010       46.630       -5.562       42.169       23.399       21.572     1778.213      547.519      465.356        1.188        0.140      144.728       20.401        0.020      330.324       -2.377      869.515
11/25/2013  03:49:00     -135.232       38.620       -4.486       38.743       33.172       19.991     1501.020     1100.413      399.634        1.140        0.150      140.638       11.726        0.007      330.453       -2.165      869.523
11/25/2013  03:50:00     -133.066       41.783      -10.022       33.091       29.281       21.394     1095.032      857.372      457.722        1.098        0.121      139.472       15.514        0.012      330.500       -2.088      869.544
11/25/2013  03:51:00     -119.081       16.052      -11.267       28.352       22.428       14.783      803.860      503.036      218.551        0.804        0.076      120.158        5.023        0.002      330.383       -2.279      869.573
11/25/2013  03:52:00     -141.647       30.327       -9.691       29.934       27.290       15.393      896.043      744.724      236.949        1.148        0.094      144.858        9.479        0.004      330.339       -2.352      869.577
11/25/2013  03:53:00     -140.520       12.493       -6.363       34.275       27.117       16.047     1174.749      735.335      257.512        1.105        0.108      141.075       13.724        0.009      330.402       -2.248      869.565
11/25/2013  03:54:00     -119.406       -3.671       -1.892       22.812       30.279       18.819      520.373      916.791      354.169        0.803        0.090      119.463       12.974        0.012      330.290       -2.431      869.552
11/25/2013  03:55:00     -108.912      -18.131       -8.403       25.794       20.045       14.543      665.336      401.806      211.492        0.677        0.064      110.411       13.342        0.015      330.144       -2.671      869.548
11/25/2013  03:56:00     -123.594      -17.459      -17.794       17.984       23.309       18.624      323.413      543.329      346.845        0.855        0.061      124.821       11.388        0.008      330.113       -2.723      869.556
11/25/2013  03:57:00     -108.666       -7.460       -8.511       25.519       25.463       15.529      651.222      648.388      241.164        0.674        0.077      108.922       11.331        0.011      330.152       -2.659      869.563
11/25/2013  03:58:00     -139.607       27.543       -6.601       17.888       15.230        9.566      319.995      231.952       91.505        1.047        0.032      142.299        8.909        0.004      330.326       -2.373      869.584
11/25/2013  03:59:00     -126.206       28.110       -9.148       17.750       16.343        9.426      315.067      267.100       88.855        0.874        0.034      129.299        6.257        0.002      330.371       -2.299      869.626
11/25/2013  04:00:00     -102.274       -3.372       -9.237       23.787       22.982       13.979      565.806      528.191      195.414        0.592        0.064      102.330       13.633        0.018      330.334       -2.359      869.640
11/25/2013  04:01:00      -60.748      -16.073       -8.245       27.183       14.994       10.017      738.911      224.812      100.345        0.254        0.053       62.838       10.740        0.029      330.308       -2.402      869.645
11/25/2013  04:02:00      -76.161      -17.431       -7.715       11.790       10.676        7.847      139.005      113.974       61.573        0.324        0.016       78.131        6.960        0.008      330.321       -2.382      869.648
11/25/2013  04:03:00      -58.326      -23.929      -10.560       14.380       12.115        8.699      206.788      146.780       75.677        0.226        0.021       63.043        7.646        0.015      330.305       -2.406      869.646
11/25/2013  04:04:00      -73.525      -16.808      -17.054        9.355       12.595        8.607       87.516      158.645       74.080        0.315        0.016       75.422        4.115        0.003      330.279       -2.450      869.628
11/25/2013  04:05:00      -89.620      -22.712      -12.423        8.856       14.879       10.972       78.429      221.370      120.386        0.456        0.021       92.453        9.456        0.010      330.268       -2.467      869.617
11/25/2013  04:06:00      -92.835      -21.968      -12.802       13.073       17.874        9.845      170.903      319.489       96.924        0.493        0.029       95.399        4.011        0.002      330.341       -2.348      869.607
11/25/2013  04:07:00      -64.530      -30.121      -11.474       18.244       16.538       12.175      332.841      273.490      148.223        0.298        0.038       71.214        5.626        0.006      330.296       -2.422      869.601
11/25/2013  04:08:00      -65.145      -27.915      -12.969       23.350       19.628       13.883      545.237      385.268      192.737        0.316        0.056       70.874       13.505        0.036      330.220       -2.547      869.604
11/25/2013  04:09:00      -39.667      -20.994        4.401       24.776       18.067       13.749      613.862      326.410      189.028        0.158        0.056       44.880       13.919        0.096      330.171       -2.628      869.623
11/25/2013  04:10:00      -27.821      -14.241      -14.270       12.148       14.128       10.766      147.577      199.587      115.899        0.082        0.023       31.254        4.217        0.018      330.253       -2.493      869.638
11/25/2013  04:11:00      -15.727      -12.578      -13.027        8.805        9.408        7.231       77.526       88.516       52.282        0.040        0.011       20.138        4.421        0.048      330.253       -2.492      869.644
11/25/2013  04:12:00      -19.832      -14.769       -5.970       10.972        7.983        7.939      120.388       63.727       63.025        0.045        0.012       24.728        5.539        0.050      330.354       -2.326      869.663
11/25/2013  04:13:00       -7.511      -14.788       -1.363       17.477       10.944       11.020      305.446      119.762      121.444        0.041        0.027       16.586        6.011        0.131      330.255       -2.491      869.673
11/25/2013  04:14:00      -14.769      -30.795       -6.021        9.982       10.242        8.630       99.635      104.890       74.481        0.074        0.014       34.154        6.222        0.033      330.287       -2.435      869.674
11/25/2013  04:15:00      -22.246      -17.753       -2.460        8.680        8.887        5.289       75.336       78.976       27.977        0.050        0.009       28.461        1.530        0.003      330.257       -2.486      869.681
11/25/2013  04:16:00      -58.473      -29.327       -5.715       15.130       16.552        7.673      228.928      273.956       58.881        0.244        0.028       65.415        3.192        0.002      330.057       -2.815      869.701
11/25/2013  04:17:00      -75.128      -32.427       -6.010       17.395       13.441        9.484      302.578      180.652       89.956        0.365        0.029       81.827        7.378        0.008      329.958       -2.975      869.716
11/25/2013  04:18:00      -80.265      -43.168       -8.532       11.640       13.112        9.210      135.486      171.921       84.817        0.439        0.020       91.137        6.802        0.006      329.932       -3.020      869.724
11/25/2013  04:19:00      -62.834      -42.018        1.947       33.878       16.316       12.435     1147.736      266.213      154.617        0.364        0.078       75.588       13.674        0.033      330.008       -2.894      869.721
11/25/2013  04:20:00      -38.474      -51.208        3.629       47.263       31.264       23.068     2233.745      977.435      532.134        0.393        0.187       64.051       23.824        0.138      330.148       -2.664      869.718
11/25/2013  04:21:00      -64.060      -80.597        0.355       38.086       35.678       22.029     1450.555     1272.937      485.276        0.690        0.160      102.955       21.204        0.042      330.308       -2.401      869.707
11/25/2013  04:22:00      -93.631      -64.381       -2.028       55.998       44.774       28.337     3135.754     2004.718      802.966        0.943        0.297      113.630       21.868        0.037      330.238       -2.517      869.697
11/25/2013  04:23:00     -107.340      -70.104        1.130       61.595       36.531       31.954     3793.933     1334.545     1021.051        1.129        0.307      128.205       32.174        0.063      330.156       -2.652      869.712
11/25/2013  04:24:00     -114.131     -116.540       -2.091       54.912       47.213       30.877     3015.373     2229.030      953.380        1.640        0.310      163.118       25.172        0.024      330.142       -2.676      869.736
11/25/2013  04:25:00     -128.052     -122.189      -13.478       41.063       35.089       29.410     1686.149     1231.216      864.944        1.765        0.189      176.996       20.846        0.014      330.157       -2.649      869.759
11/25/2013  04:26:00     -141.897     -119.136       -8.808       41.968       49.866       25.900     1761.306     2486.660      670.798        1.966        0.246      185.279       24.586        0.018      330.142       -2.676      869.782
11/25/2013  04:27:00     -106.564      -93.131        0.842       51.140       53.954       26.486     2615.273     2911.026      701.532        1.313        0.311      141.525       24.202        0.029      330.151       -2.660      869.799
11/25/2013  04:28:00     -109.154      -96.905       -3.898       28.886       39.967       22.608      834.384     1597.391      511.142        1.213        0.147      145.963       19.818        0.018      330.214       -2.556      869.812
11/25/2013  04:29:00     -131.441     -132.044      -13.962       21.677       22.288       17.040      469.899      496.748      290.363        1.808        0.063      186.313        9.467        0.003      330.236       -2.520      869.824
11/25/2013  04:30:00     -114.763     -105.788       -7.093       35.021       30.099       21.295     1226.501      905.966      453.469        1.350        0.129      156.082       17.736        0.013      330.248       -2.501      869.822
11/25/2013  04:31:00     -119.857     -113.736       -1.772       43.086       45.188       29.817     1856.384     2041.985      889.047        1.605        0.239      165.232       24.589        0.022      330.270       -2.465      869.814
11/25/2013  04:32:00     -132.011     -102.753       -2.708       61.841       36.267       30.677     3824.324     1315.312      941.065        1.704        0.304      167.288       26.604        0.025      330.303       -2.411      869.805
11/25/2013  04:33:00     -133.914      -82.667        9.225       40.818       52.417       32.209     1666.102     2747.551     1037.392        1.515        0.273      157.375       28.893        0.034      330.320       -2.382      869.810
11/25/2013  04:34:00     -131.111      -54.668        5.334       61.007       39.250       30.086     3721.897     1540.541      905.157        1.319        0.308      142.052       32.714        0.053      330.324       -2.376      869.826
11/25/2013  04:35:00     -141.155      -78.088       -8.723       36.561       32.743       20.619     1336.682     1072.121      425.129        1.447        0.142      161.315       10.715        0.004      330.405       -2.242      869.840
11/25/2013  04:36:00     -163.086      -36.862      -13.304       46.248       37.121       24.930     2138.854     1377.936      621.483        1.613        0.207      167.200       23.088        0.019      330.478       -2.124      869.854
11/25/2013  04:37:00     -129.186      -51.368       -5.789       44.519       35.883       23.281     1981.946     1287.607      542.016        1.159        0.191      139.024       17.396        0.016      330.444       -2.180      869.855
11/25/2013  04:38:00     -125.169      -39.243       -0.933       38.119       27.981       20.644     1453.040      782.909      426.176        0.993        0.133      131.176       21.162        0.026      330.484       -2.114      869.866
11/25/2013  04:39:00     -138.086      -40.455       -5.647       32.713       29.087       20.631     1070.142      846.039      425.651        1.154        0.117      143.890       17.474        0.015      330.467       -2.142      869.870
11/25/2013  04:40:00     -126.951      -13.345       -4.766       36.306       27.833       19.451     1318.134      774.655      378.339        0.939        0.124      127.651       18.171        0.020      330.279       -2.450      869.868
11/25/2013  04:41:00     -131.816       -5.809       -4.629       44.255       28.303       23.007     1958.505      801.079      529.327        1.036        0.164      131.944       23.677        0.032      330.141       -2.676      869.867
11/25/2013  04:42:00     -129.380      -22.380       -8.593       41.530       30.435       23.186     1724.768      926.290      537.590        1.025        0.159      131.301       18.923        0.021      330.108       -2.731      869.861
11/25/2013  04:43:00     -119.412      -19.705       -3.645       42.055       30.648       27.398     1768.626      939.270      750.652        0.906        0.173      121.027       25.186        0.043      330.150       -2.663      869.846
11/25/2013  04:44:00      -95.297      -28.344        3.620       35.257       29.620       17.015     1243.067      877.319      289.501        0.615        0.120       99.423       16.758        0.028      330.128       -2.697      869.834
11/25/2013  04:45:00      -84.100      -23.089       -2.114       39.839       25.934       18.456     1587.175      672.597      340.608        0.510        0.130       87.212       20.456        0.055      330.166       -2.636      869.834
11/25/2013  04:46:00      -86.869      -24.081        1.359       25.985       27.368       18.848      675.203      749.010      355.260        0.495        0.089       90.145       16.150        0.032      330.065       -2.799      869.839
11/25/2013  04:47:00      -88.341        3.069       -6.290       34.379       24.615       18.754     1181.900      605.898      351.730        0.500        0.107       88.394       19.427        0.048      330.055       -2.816      869.848
11/25/2013  04:48:00      -79.682        0.971       -7.193       26.770       22.043       16.041      716.631      485.916      257.303        0.393        0.073       79.688       15.042        0.036      330.129       -2.697      869.851
11/25/2013  04:49:00      -69.527        1.946       -8.552       24.201       20.131       15.707      585.709      405.273      246.696        0.307        0.062       69.554       11.250        0.026      330.236       -2.520      869.860
11/25/2013  04:50:00      -62.731       -8.039       -3.762       20.458       17.272       13.890      418.528      298.339      192.929        0.246        0.045       63.244        9.752        0.024      330.200       -2.578      869.873
11/25/2013  04:51:00      -56.053      -18.583       -5.185       22.670       17.519       12.151      513.912      306.923      147.651        0.224        0.048       59.053       12.174        0.043      330.088       -2.764      869.886
11/25/2013  04:52:00      -69.970      -31.606       -5.511       21.087       22.335       11.665      444.642      498.871      136.067        0.350        0.054       76.777        7.238        0.009      330.050       -2.825      869.893
11/25/2013  04:53:00      -73.461      -19.408       -6.478       18.621       23.037       14.146      346.740      530.688      200.120        0.345        0.054       75.981        8.639        0.013      330.121       -2.710      869.895
11/25/2013  04:54:00      -86.138      -51.490      -15.178       20.825       25.741       10.942      433.661      662.592      119.718        0.576        0.061      100.354        5.453        0.003      330.066       -2.800      869.898
11/25/2013  04:55:00      -88.883      -42.425      -10.491       16.526       23.656       13.686      273.094      559.589      187.307        0.541        0.051       98.489       12.414        0.016      329.977       -2.945      869.902
11/25/2013  04:56:00      -82.522      -15.373       -7.134       23.798       13.863       14.065      566.356      192.180      197.811        0.403        0.048       83.942        8.524        0.010      329.932       -3.019      869.911
11/25/2013  04:57:00      -70.546      -15.535       -6.589       11.898       12.174        7.767      141.557      148.203       60.329        0.281        0.018       72.236        5.701        0.006      329.929       -3.025      869.922
11/25/2013  04:58:00      -47.169      -19.129       -1.712       14.471        9.910        8.955      209.423       98.209       80.189        0.149        0.019       50.900        8.643        0.029      329.933       -3.016      869.936
11/25/2013  04:59:00      -57.043      -34.462       -9.242       11.982       12.132        8.628      143.564      147.177       74.438        0.245        0.018       66.645        6.383        0.009      330.067       -2.798      869.945
11/25/2013  05:00:00      -49.246      -29.310       -6.971       16.491        9.978        8.879      271.952       99.568       78.845        0.189        0.023       57.308        8.033        0.020      330.069       -2.795      869.955
11/25/2013  05:01:00      -25.231      -16.698       -3.876       13.118        6.971        6.083      172.084       48.596       37.003        0.059        0.013       30.256        2.898        0.009      330.159       -2.648      869.972
11/25/2013  05:02:00        7.387      -12.000        2.306        7.627       10.912        6.361       58.175      119.069       40.460        0.021        0.011       14.091        6.352        0.203      330.308       -2.403      869.993
11/25/2013  05:03:00       31.610       10.536        8.434        9.363        5.434        7.924       87.667       29.528       62.789        0.068        0.009       33.320        3.389        0.010      330.262       -2.478      870.016
11/25/2013  05:04:00        3.045        3.810       16.130       12.171        8.485        8.477      148.122       71.992       71.856        0.029        0.015        4.878        5.786        1.407      330.230       -2.530      870.039
11/25/2013  05:05:00        1.762       12.581       21.747        9.009       13.309       10.149       81.160      177.140      103.011        0.050        0.018       12.704        7.500        0.349      330.109       -2.730      870.050
11/25/2013  05:06:00       -2.689        3.854        5.996        9.436        8.753        6.576       89.033       76.622       43.242        0.013        0.010        4.699        4.383        0.870      330.127       -2.701      870.048
11/25/2013  05:07:00      -15.669      -35.414       -5.127       18.356       11.328       10.620      336.953      128.333      112.794        0.105        0.029       38.725        5.315        0.019      330.237       -2.518      870.051
11/25/2013  05:08:00      -13.439      -10.353        4.794       15.168        9.646        9.964      230.061       93.045       99.276        0.037        0.021       16.964        4.886        0.083      330.108       -2.731      870.053
11/25/2013  05:09:00      -62.677      -36.611       -0.281       22.759       16.730       15.265      517.975      279.888      233.023        0.315        0.052       72.586       14.928        0.042      329.942       -3.002      870.056
11/25/2013  05:10:00      -89.088      -53.811        1.569       45.595       33.237       24.862     2078.937     1104.680      618.132        0.732        0.190      104.078       26.951        0.067      329.928       -3.027      870.063
11/25/2013  05:11:00     -109.762      -72.631       -9.390       30.534       30.481       22.707      932.316      929.097      515.630        0.989        0.119      131.617       14.811        0.013      330.115       -2.718      870.075
11/25/2013  05:12:00      -84.076      -62.812        5.201       44.493       40.604       28.800     1979.590     1648.672      829.423        0.775        0.223      104.948       23.990        0.052      330.078       -2.780      870.091
11/25/2013  05:13:00     -110.289      -88.097       -9.178       61.600       49.662       32.435     3794.568     2466.337     1052.061        1.366        0.366      141.155       28.862        0.042      330.000       -2.907      870.118
11/25/2013  05:14:00      -55.649      -53.603        2.178       70.314       54.156       29.709     4944.057     2932.907      882.619        0.737        0.438       77.267       24.247        0.098      329.956       -2.979      870.140
11/25/2013  05:15:00      -40.154      -34.998       13.793       61.736       43.541       29.718     3811.364     1895.782      883.134        0.481        0.330       53.265       28.745        0.291      329.967       -2.962      870.139
11/25/2013  05:16:00      -77.211      -66.094       -7.466       62.866       45.917       34.883     3952.173     2108.390     1216.808        0.883        0.364      101.636        9.486        0.009      329.994       -2.917      870.131
11/25/2013  05:17:00      -43.573      -57.928        4.745       49.558       41.194       32.435     2455.952     1696.916     1052.059        0.524        0.260       72.487       24.606        0.115      329.985       -2.931      870.120
11/25/2013  05:18:00      -56.717      -62.355        7.812       62.352       44.407       30.384     3887.772     1971.971      923.160        0.697        0.339       84.291       29.734        0.124      329.907       -3.060      870.108
11/25/2013  05:19:00      -58.869      -34.257       21.916       70.669       54.334       30.794     4994.131     2952.145      948.298        0.701        0.445       68.111       33.167        0.237      329.837       -3.175      870.096
11/25/2013  05:20:00     -109.558      -78.305       -2.910       55.671       54.711       34.343     3099.217     2993.300     1179.437        1.271        0.364      134.665       35.055        0.068      329.811       -3.215      870.098
11/25/2013  05:21:00      -71.271      -57.595        2.265       59.183       40.114       32.767     3502.629     1609.094     1073.651        0.729        0.309       91.634       30.018        0.107      329.775       -3.275      870.103
11/25/2013  05:22:00     -132.374      -93.340       -5.139       52.864       34.202       30.220     2794.621     1169.760      913.264        1.557        0.244      161.973       30.590        0.036      329.840       -3.169      870.112
11/25/2013  05:23:00     -100.715     -105.681       -5.409       38.309       36.498       27.433     1467.592     1332.081      752.546        1.245        0.178      145.986       23.385        0.026      329.826       -3.192      870.127
11/25/2013  05:24:00      -89.591      -89.367       -3.874       27.577       29.588       18.755      760.504      875.468      351.744        0.901        0.099      126.543       13.836        0.012      329.855       -3.145      870.137
11/25/2013  05:25:00      -78.890      -57.153       -5.684       23.970       23.303       12.122      574.538      543.020      146.936        0.539        0.063       97.417        5.225        0.003      329.934       -3.016      870.136
11/25/2013  05:26:00      -21.130      -20.492        7.449       24.818       15.137       12.981      615.923      229.117      168.494        0.097        0.051       29.435        7.592        0.067      329.958       -2.976      870.139
11/25/2013  05:27:00      -31.909       -6.628        1.512       21.213       16.715       13.197      450.000      279.382      174.153        0.098        0.045       32.590       10.245        0.099      329.925       -3.031      870.141
11/25/2013  05:28:00      -41.816        2.318       -1.797       13.861       12.870        8.375      192.132      165.639       70.142        0.109        0.021       41.881        7.139        0.029      329.838       -3.174      870.146
11/25/2013  05:29:00      -43.040        1.014       -6.248       16.813        6.327        6.176      282.665       40.026       38.147        0.113        0.018       43.052        6.006        0.019      329.829       -3.188      870.151
11/25/2013  05:30:00      -66.754        8.847       -9.373       13.834       10.762        7.696      191.386      115.812       59.224        0.249        0.018       67.338        6.748        0.010      329.832       -3.182      870.142
11/25/2013  05:31:00      -85.584       -1.136      -12.120       14.049       14.009       10.575      197.361      196.265      111.840        0.399        0.025       85.591        8.381        0.010      329.789       -3.251      870.129
11/25/2013  05:32:00      -70.821       -3.383       -7.554       26.723       16.343       14.728      714.106      267.107      216.918        0.314        0.060       70.902       12.514        0.031      329.708       -3.384      870.126
11/25/2013  05:33:00      -67.093       -2.742       -5.367       18.511       17.587       13.208      342.656      309.299      174.447        0.268        0.041       67.149        8.637        0.017      329.672       -3.444      870.151
11/25/2013  05:34:00      -35.190       -5.006       -1.671       13.716       12.072        9.811      188.122      145.738       96.250        0.085        0.022       35.544        5.674        0.025      329.668       -3.452      870.178
11/25/2013  05:35:00      -24.023        3.730       -1.928       13.435       10.337        8.072      180.508      106.852       65.153        0.047        0.018       24.311        6.710        0.076      329.690       -3.415      870.206
11/25/2013  05:36:00      -46.087        8.975       -0.739       10.490        9.453        6.992      110.039       89.351       48.892        0.123        0.012       46.953        4.663        0.010      329.857       -3.142      870.217
11/25/2013  05:37:00      -39.119        2.312       -2.129       13.437        6.792        5.785      180.543       46.132       33.468        0.090        0.013       39.187        4.472        0.013      329.810       -3.218      870.224
11/25/2013  05:38:00      -16.796       -4.813       -0.745       19.619        6.094        6.484      384.891       37.136       42.037        0.038        0.023       17.472        7.752        0.197      329.752       -3.313      870.227
11/25/2013  05:39:00      -16.117       -2.330        2.338       16.555        5.832        6.909      274.068       34.014       47.734        0.031        0.018       16.285        7.278        0.200      329.760       -3.300      870.237
11/25/2013  05:40:00      -16.931        0.095       -7.315       12.532        6.773        5.061      157.062       45.876       25.618        0.028        0.011       16.931        4.325        0.065      329.773       -3.278      870.247
11/25/2013  05:41:00      -43.920      -17.396       -4.844       15.040       12.734        8.646      226.189      162.156       74.758        0.136        0.023       47.239        8.147        0.030      329.705       -3.391      870.258
11/25/2013  05:42:00      -51.734      -21.281       -8.847       20.934       11.714        9.726      438.217      137.224       94.598        0.194        0.034       55.940        5.864        0.011      329.658       -3.467      870.262
11/25/2013  05:43:00      -72.286       -4.709       -5.914       11.822       12.748       10.016      139.769      162.522      100.329        0.284        0.020       72.439        4.322        0.004      329.558       -3.631      870.264
11/25/2013  05:44:00      -68.257       -2.514       -7.477       16.275       13.882        9.515      264.860      192.712       90.544        0.263        0.027       68.303        8.423        0.015      329.600       -3.561      870.275
11/25/2013  05:45:00      -87.419        3.078      -10.490       15.995       11.161       12.357      255.828      124.569      152.704        0.415        0.027       87.473        7.389        0.007      329.548       -3.646      870.279
11/25/2013  05:46:00      -68.966       -2.052       -8.175       21.812       14.836       15.169      475.776      220.103      230.097        0.288        0.046       68.997       13.324        0.037      329.477       -3.761      870.289
11/25/2013  05:47:00      -76.438        1.616      -13.239       17.212       12.150       11.465      296.249      147.620      131.457        0.330        0.029       76.455        7.801        0.010      329.529       -3.678      870.282
11/25/2013  05:48:00      -48.412        7.823       -3.480       13.683        8.589        8.942      187.223       73.770       79.956        0.138        0.017       49.040        7.786        0.025      329.615       -3.537      870.271
11/25/2013  05:49:00      -40.834       -4.497       -2.214        9.570        8.932        7.027       91.590       79.773       49.383        0.096        0.011       41.081        5.477        0.018      329.663       -3.458      870.264
11/25/2013  05:50:00      -27.913       -9.570       -7.613        7.005        6.603        5.566       49.067       43.598       30.976        0.053        0.006       29.508        2.927        0.010      329.679       -3.434      870.264
11/25/2013  05:51:00      -31.666      -15.378       -0.302        9.753        6.740        8.007       95.121       45.428       64.114        0.072        0.010       35.203        3.198        0.008      329.680       -3.433      870.261
11/25/2013  05:52:00      -21.375      -15.653       -2.728       11.924        5.086        5.293      142.182       25.867       28.013        0.045        0.010       26.494        5.822        0.048      329.699       -3.400      870.251
11/25/2013  05:53:00      -20.352      -16.583       -1.663       24.945        9.633        7.819      622.241       92.803       61.132        0.073        0.039       26.253       10.145        0.149      329.732       -3.346      870.230
11/25/2013  05:54:00       -9.571      -13.992        1.477       14.935        9.784        6.471      223.050       95.733       41.880        0.033        0.018       16.952        6.356        0.141      329.741       -3.331      870.233
11/25/2013  05:55:00      -29.953      -10.177       -8.504       11.625        7.079        5.317      135.150       50.112       28.268        0.064        0.011       31.635        1.064        0.001      329.727       -3.353      870.240
11/25/2013  05:56:00       11.523       11.932       -2.942       15.759       14.300       10.362      248.355      204.497      107.380        0.042        0.028       16.588        6.821        0.169      329.921       -3.036      870.257
11/25/2013  05:57:00        7.397        0.360        8.085       13.497        4.160        8.696      182.166       17.305       75.621        0.020        0.014        7.406        6.009        0.658      329.910       -3.055      870.269
11/25/2013  05:58:00       -1.456        4.434        5.585        4.519        4.597        4.085       20.422       21.132       16.689        0.006        0.003        4.667        2.775        0.354      329.854       -3.146      870.279
11/25/2013  05:59:00      -18.333       -4.428       -4.312       11.805        5.427        4.535      139.367       29.454       20.570        0.028        0.009       18.860        4.587        0.059      329.867       -3.125      870.283
11/25/2013  06:00:00      -25.876       -4.664       -0.923        6.729        6.519        5.118       45.275       42.496       26.195        0.040        0.006       26.293        4.230        0.026      329.815       -3.211      870.276
11/25/2013  06:01:00      -25.190       -0.851       -0.985        5.509        4.494        3.366       30.351       20.200       11.331        0.035        0.003       25.204        1.195        0.002      329.889       -3.089      870.287
11/25/2013  06:02:00      -17.508       -2.027       -0.400        5.095        3.843        2.217       25.963       14.771        4.916        0.018        0.002       17.625        1.667        0.009      329.976       -2.947      870.312
11/25/2013  06:03:00      -24.452       -3.758       -6.605        4.094        5.243        4.150       16.761       27.493       17.219        0.036        0.003       24.739        2.181        0.008      329.975       -2.947      870.334
11/25/2013  06:04:00      -29.173       -0.377       -3.563        8.126        4.839        6.196       66.027       23.416       38.390        0.050        0.006       29.175        2.506        0.007      330.059       -2.812      870.347
11/25/2013  06:05:00      -24.596       -6.459       -0.482        5.660        6.408        4.640       32.034       41.058       21.529        0.037        0.005       25.430        3.254        0.016      330.113       -2.727      870.368
11/25/2013  06:06:00      -24.883        6.270       -8.492       11.801       11.502        9.557      139.252      132.289       91.344        0.055        0.018       25.661        9.249        0.130      330.106       -2.735      870.380
11/25/2013  06:07:00      -33.158       10.642       -3.338        8.330        5.110        4.525       69.381       26.110       20.473        0.067        0.006       34.824        3.070        0.008      330.124       -2.704      870.378
11/25/2013  06:08:00      -49.981        4.146       -6.345        8.886        8.414        5.504       78.963       70.795       30.297        0.137        0.009       50.153        3.858        0.006      330.020       -2.874      870.385
11/25/2013  06:09:00      -65.735       -5.559       -6.185       11.267        8.248        5.538      126.951       68.024       30.671        0.231        0.011       65.969        3.903        0.004      330.036       -2.850      870.398
11/25/2013  06:10:00      -47.126      -13.210       -4.294       20.967       13.111       12.980      439.633      171.901      168.485        0.160        0.039       48.943       12.505        0.065      329.836       -3.175      870.404
11/25/2013  06:11:00      -34.791      -11.835       -0.164       17.806       14.628       10.886      317.038      213.978      118.515        0.100        0.032       36.749        9.365        0.065      329.753       -3.310      870.396
11/25/2013  06:12:00      -56.551      -17.415      -12.608        9.858       10.375        6.701       97.172      107.650       44.903        0.195        0.012       59.172        3.796        0.004      329.867       -3.125      870.412
11/25/2013  06:13:00      -37.633       -8.397       -7.902        9.978        8.006        6.444       99.558       64.089       41.521        0.088        0.010       38.559        6.879        0.032      329.919       -3.039      870.429
11/25/2013  06:14:00      -30.820        4.500       -1.584        5.052        6.764        4.562       25.523       45.751       20.815        0.053        0.005       31.147        1.968        0.004      329.971       -2.955      870.434
11/25/2013  06:15:00      -23.664        9.422       -3.436        6.285        5.955        3.828       39.500       35.468       14.656        0.038        0.004       25.471        2.411        0.009      329.987       -2.931      870.446
11/25/2013  06:16:00      -19.482        3.758        0.149        6.810        4.097        2.726       46.381       16.787        7.429        0.023        0.004       19.842        2.465        0.015      329.903       -3.068      870.460
11/25/2013  06:17:00      -22.648       -0.449       -4.441        8.188        3.644        4.281       67.040       13.280       18.330        0.032        0.005       22.653        3.523        0.024      329.791       -3.251      870.474
11/25/2013  06:18:00      -18.897       -9.812       -2.670        7.202        5.555        4.336       51.876       30.860       18.803        0.028        0.005       21.293        3.627        0.029      329.816       -3.209      870.493
11/25/2013  06:19:00       -2.928       -9.118        4.819       11.680        7.890        6.273      136.428       62.257       39.348        0.018        0.012        9.576        4.621        0.233      329.755       -3.309      870.515
11/25/2013  06:20:00      -10.996       -4.940       -5.704        9.388        4.138        4.525       88.139       17.120       20.476        0.015        0.006       12.055        4.619        0.147      329.772       -3.282      870.542
11/25/2013  06:21:00       16.549        7.706        0.376       10.110        5.679        5.553      102.211       32.251       30.835        0.025        0.008       18.255        5.533        0.092      329.850       -3.155      870.583
11/25/2013  06:22:00       37.240       19.298        0.996        7.646        9.495        6.624       58.466       90.160       43.876        0.098        0.010       41.943        5.238        0.016      329.896       -3.079      870.620
11/25/2013  06:23:00       20.107       21.225        1.471       10.564       11.825        9.124      111.606      139.842       83.238        0.060        0.017       29.237        8.316        0.081      329.864       -3.130      870.634
11/25/2013  06:24:00       20.741       17.448        3.290       12.024       16.685       11.022      144.576      278.391      121.490        0.064        0.027       27.104        9.187        0.115      329.830       -3.185      870.655
11/25/2013  06:25:00       18.217        5.174        5.453       10.696        9.271        9.491      114.408       85.956       90.085        0.034        0.015       18.938        6.146        0.105      329.771       -3.282      870.667
11/25/2013  06:26:00       18.318       13.318       -1.055        9.930        8.326        6.303       98.604       69.327       39.728        0.036        0.010       22.648        4.499        0.039      329.782       -3.264      870.661
11/25/2013  06:27:00       18.158       16.262       -1.433        5.727        6.557        5.074       32.795       42.992       25.743        0.035        0.005       24.375        4.092        0.028      329.775       -3.274      870.668
11/25/2013  06:28:00       19.117       15.254       -3.417       10.890        6.474        5.205      118.593       41.919       27.097        0.040        0.009       24.458        5.204        0.045      329.835       -3.177      870.676
11/25/2013  06:29:00        5.786        2.352       -1.481        9.015        6.073        5.449       81.271       36.881       29.689        0.009        0.007        6.246        5.185        0.689      329.796       -3.242      870.680
11/25/2013  06:30:00      -15.244       -1.602        1.577       18.881        6.519        5.620      356.482       42.497       31.589        0.033        0.022       15.328        4.656        0.092      329.828       -3.187      870.698
11/25/2013  06:31:00      -45.087      -12.509       -6.321        8.317        7.949        6.102       69.168       63.182       37.233        0.120        0.008       46.790        2.996        0.004      329.629       -3.515      870.721
11/25/2013  06:32:00      -54.185       -5.362       -8.866        8.853        8.440        8.671       78.373       71.230       75.193        0.163        0.011       54.450        5.384        0.010      329.635       -3.505      870.728
11/25/2013  06:33:00      -61.257       -2.450       -4.380       13.225       10.544        7.472      174.894      111.183       55.836        0.206        0.017       61.306        5.781        0.009      329.730       -3.350      870.740
11/25/2013  06:34:00      -68.864       10.856      -11.609       10.545        7.149        7.960      111.191       51.103       63.356        0.261        0.011       69.715        3.294        0.002      329.751       -3.313      870.752
11/25/2013  06:35:00      -40.536        2.009      -15.032       12.606       14.114        9.708      158.904      199.196       94.248        0.116        0.023       40.586        6.492        0.026      329.729       -3.351      870.757
11/25/2013  06:36:00      -36.996      -12.285       -6.980       11.967        9.961        7.554      143.206       99.229       57.069        0.093        0.015       38.982        5.293        0.018      329.723       -3.360      870.751
11/25/2013  06:37:00      -30.369      -11.710       -6.517        7.624        6.413        5.022       58.118       41.130       25.217        0.061        0.006       32.548        3.299        0.010      329.712       -3.379      870.745
11/25/2013  06:38:00      -33.743      -22.389       -5.417        7.183        6.217        4.946       51.593       38.652       24.466        0.089        0.006       40.495        3.743        0.009      329.797       -3.239      870.747
11/25/2013  06:39:00      -34.473       16.049       -4.777       14.401       20.142        6.731      207.392      405.696       45.302        0.106        0.033       38.025        5.359        0.020      329.902       -3.068      870.750
11/25/2013  06:40:00       15.720       19.521       -2.428       15.025        8.189       11.629      225.745       67.056      135.245        0.053        0.021       25.064        9.477        0.143      330.058       -2.813      870.747
11/25/2013  06:41:00      -11.349        9.029        2.309       12.202       11.340       14.982      148.882      128.587      224.449        0.036        0.025       14.502        8.190        0.319      329.870       -3.121      870.743
11/25/2013  06:42:00      -31.035       -2.066      -10.028        9.556       10.922        8.040       91.321      119.282       64.648        0.067        0.014       31.104        7.047        0.051      329.796       -3.240      870.737
11/25/2013  06:43:00      -25.551       -7.960       -3.590        7.299        7.515        4.842       53.280       56.474       23.445        0.043        0.007       26.762        2.646        0.010      329.833       -3.181      870.741
11/25/2013  06:44:00      -50.205       -5.839       -8.760       14.717        6.948        6.655      216.587       48.269       44.287        0.147        0.015       50.544        3.304        0.004      329.629       -3.514      870.751
11/25/2013  06:45:00      -59.281        1.721       -6.268        8.068        9.230        7.519       65.095       85.194       56.542        0.188        0.010       59.306        2.628        0.002      329.485       -3.750      870.756
11/25/2013  06:46:00      -56.206       -6.948       -5.100        7.518       14.954        6.457       56.516      223.631       41.687        0.178        0.016       56.633        3.756        0.004      329.509       -3.710      870.769
11/25/2013  06:47:00      -58.119      -12.998       -8.463        8.562        7.746        5.978       73.316       60.004       35.733        0.189        0.008       59.555        4.581        0.006      329.567       -3.614      870.790
11/25/2013  06:48:00      -48.654      -20.259       -3.756        9.814       10.954       11.613       96.320      119.998      134.864        0.157        0.018       52.703        7.091        0.018      329.549       -3.645      870.816
11/25/2013  06:49:00      -49.444       -7.664       -9.636        8.945       10.224        9.807       80.011      104.533       96.171        0.144        0.014       50.034        4.782        0.009      329.546       -3.651      870.839
11/25/2013  06:50:00      -57.853      -20.798       -6.836        8.732        9.873        6.782       76.248       97.481       45.992        0.202        0.011       61.478        4.385        0.005      329.519       -3.694      870.850
11/25/2013  06:51:00      -38.200      -21.805       -6.168       17.065       15.879       12.897      291.225      252.140      166.338        0.134        0.035       43.985        6.824        0.024      329.495       -3.734      870.870
11/25/2013  06:52:00      -78.565      -22.936      -11.197       15.743       13.309        8.679      247.844      177.123       75.319        0.366        0.025       81.844        5.920        0.005      329.469       -3.776      870.890
11/25/2013  06:53:00      -85.278      -13.513      -10.779       12.501       13.959       11.240      156.264      194.843      126.327        0.402        0.024       86.342        7.041        0.007      329.434       -3.832      870.901
11/25/2013  06:54:00      -80.135       -8.496      -12.399        9.780       11.468        9.266       95.644      131.509       85.858        0.348        0.016       80.584        4.618        0.003      329.405       -3.881      870.918
11/25/2013  06:55:00      -72.017       -6.178      -14.905       14.424        7.715       10.506      208.044       59.523      110.380        0.291        0.019       72.281        5.445        0.006      329.395       -3.897      870.931
11/25/2013  06:56:00      -82.667      -17.430      -14.176       12.772       16.631       10.076      163.131      276.589      101.518        0.394        0.027       84.484        7.844        0.009      329.381       -3.921      870.938
11/25/2013  06:57:00     -100.012       -5.758      -15.571       12.009        8.663        8.861      144.226       75.048       78.509        0.529        0.015      100.177        4.274        0.002      329.367       -3.942      870.946
11/25/2013  06:58:00      -90.350       -4.562      -17.815       19.053       13.233        9.213      363.035      175.123       84.882        0.456        0.031       90.466        5.061        0.003      329.336       -3.995      870.955
11/25/2013  06:59:00      -80.952       -3.550      -15.918       11.479        7.769        8.086      131.773       60.363       65.381        0.354        0.013       81.030        3.173        0.002      329.419       -3.857      870.963
11/25/2013  07:00:00      -82.573      -12.464      -14.631       12.414        9.825       10.401      154.112       96.521      108.185        0.377        0.018       83.509        4.495        0.003      329.469       -3.776      870.978
11/25/2013  07:01:00      -52.394      -16.726      -11.194       13.124       14.970        8.229      172.247      224.096       67.717        0.181        0.023       54.999        7.535        0.019      329.500       -3.724      870.989
11/25/2013  07:02:00      -17.799      -27.392        0.042       23.233       12.035       13.376      539.788      144.850      178.930        0.097        0.043       32.667        9.405        0.083      329.558       -3.630      871.002
11/25/2013  07:03:00      -60.315      -15.148       -7.999       15.117       11.416        9.418      228.510      130.323       88.702        0.219        0.022       62.188        5.214        0.007      329.495       -3.733      871.022
11/25/2013  07:04:00      -60.760      -13.413      -11.676       15.512       12.935       10.537      240.630      167.321      111.037        0.226        0.026       62.223        7.845        0.016      329.531       -3.675      871.040
11/25/2013  07:05:00      -41.883      -18.464      -11.160       13.987       14.391       11.275      195.648      207.112      127.136        0.137        0.026       45.772        8.685        0.036      329.630       -3.512      871.061
11/25/2013  07:06:00      -58.625      -24.637      -15.120       10.335       13.222       10.057      106.819      174.820      101.137        0.233        0.019       63.591        7.331        0.013      329.634       -3.507      871.075
11/25/2013  07:07:00      -54.293      -10.996      -10.282       11.722        8.812        8.474      137.415       77.654       71.816        0.173        0.014       55.395        5.650        0.010      329.646       -3.488      871.079
11/25/2013  07:08:00      -59.875      -12.179      -10.627       16.134       11.632       10.144      260.302      135.311      102.907        0.217        0.025       61.101        8.062        0.017      329.693       -3.409      871.087
11/25/2013  07:09:00      -58.673       -9.237      -10.480        9.291        8.486        7.888       86.332       72.008       62.223        0.193        0.011       59.396        1.789        0.001      329.690       -3.414      871.102
11/25/2013  07:10:00      -60.666       -6.774       -8.296       12.653        9.141        7.223      160.100       83.560       52.166        0.205        0.015       61.043        4.657        0.006      329.658       -3.468      871.118
11/25/2013  07:11:00      -86.412       -8.203      -14.436       11.898       11.173       12.142      141.573      124.839      147.425        0.408        0.021       86.800        6.606        0.006      329.634       -3.507      871.127
11/25/2013  07:12:00      -90.740      -20.616      -17.135       18.361       10.754        8.312      337.120      115.651       69.089        0.474        0.026       93.053        6.334        0.005      329.656       -3.469      871.144
11/25/2013  07:13:00      -88.538      -16.408      -15.074       13.188        9.891        8.245      173.911       97.824       67.972        0.434        0.017       90.045        4.800        0.003      329.682       -3.427      871.149
11/25/2013  07:14:00      -58.892       -1.471      -11.243       11.237        8.492        7.763      126.266       72.110       60.272        0.193        0.013       58.911        5.146        0.008      329.658       -3.468      871.159
11/25/2013  07:15:00      -54.305       -1.830      -11.641        9.324        6.373        6.386       86.928       40.611       40.783        0.163        0.008       54.336        3.119        0.003      329.673       -3.441      871.169
11/25/2013  07:16:00      -53.903       -5.515       -9.170       14.385        9.297        7.227      206.918       86.437       52.230        0.168        0.017       54.185        4.509        0.007      329.705       -3.390      871.179
11/25/2013  07:17:00      -59.090       -6.331       -8.637       12.816       13.806        8.129      164.242      190.601       66.075        0.201        0.021       59.428        6.344        0.011      329.735       -3.340      871.183
11/25/2013  07:18:00      -75.972       -6.106      -13.056       12.260        8.680        9.175      150.306       75.337       84.173        0.314        0.015       76.217        6.701        0.008      329.744       -3.327      871.182
11/25/2013  07:19:00      -64.574       -2.744       -6.211       11.178       11.746        9.500      124.941      137.972       90.243        0.228        0.018       64.632        6.868        0.011      329.723       -3.360      871.180
11/25/2013  07:20:00      -51.463      -13.981       -8.119       10.842       10.520        6.896      117.539      110.676       47.548        0.159        0.014       53.329        5.554        0.011      329.728       -3.352      871.174
11/25/2013  07:21:00      -57.096       -9.713      -10.381       10.595       12.371        8.447      112.255      153.051       71.350        0.190        0.017       57.916        4.552        0.006      329.735       -3.342      871.164
11/25/2013  07:22:00      -59.572      -12.468      -11.487        8.647       10.107       10.995       74.772      102.150      120.900        0.207        0.015       60.863        5.317        0.008      329.780       -3.267      871.163
11/25/2013  07:23:00      -66.824       -7.953      -10.887       12.698        8.713       10.898      161.228       75.912      118.773        0.250        0.018       67.295        3.687        0.003      329.793       -3.247      871.169
11/25/2013  07:24:00      -62.011      -12.275       -6.068       13.287       10.662        7.077      176.535      113.682       50.087        0.219        0.017       63.214        7.594        0.014      329.869       -3.123      871.163
11/25/2013  07:25:00      -30.687      -13.942       -8.822        9.785       11.723        7.533       95.749      137.419       56.745        0.075        0.014       33.706        7.048        0.044      329.972       -2.952      871.179
11/25/2013  07:26:00      -19.072        0.802       -7.391        8.814        4.002        5.593       77.692       16.017       31.285        0.027        0.006       19.089        1.891        0.010      330.143       -2.673      871.187
11/25/2013  07:27:00       -7.431       -0.072        1.006        6.640        5.473        4.456       44.092       29.949       19.860        0.008        0.005        7.431        2.903        0.153      330.306       -2.405      871.183
11/25/2013  07:28:00        4.973        6.836       10.748        8.809        9.232        7.832       77.598       85.233       61.336        0.021        0.011        8.453        7.321        0.750      330.439       -2.188      871.181
11/25/2013  07:29:00        8.245       -0.530        9.726       15.858        6.881        6.889      251.473       47.352       47.456        0.025        0.017        8.262        7.747        0.879      330.594       -1.933      871.180
11/25/2013  07:30:00       -9.781      -11.322       13.914        7.585        8.401        7.215       57.525       70.569       52.057        0.030        0.009       14.961        4.963        0.110      330.437       -2.192      871.176
11/25/2013  07:31:00      -25.307       -2.701        0.126        6.396        7.800        6.543       40.914       60.846       42.804        0.040        0.007       25.451        5.286        0.043      330.087       -2.766      871.165
11/25/2013  07:32:00      -21.724      -15.758       -0.137        9.199        4.404        6.383       84.625       19.394       40.741        0.043        0.007       26.838        2.423        0.008      330.102       -2.740      871.164
11/25/2013  07:33:00      -19.787       -7.610       -1.218        7.412        5.573        6.422       54.941       31.055       41.248        0.029        0.006       21.200        5.512        0.068      330.156       -2.654      871.175
11/25/2013  07:34:00      -17.350       -5.468       -4.118        8.522        3.606        6.392       72.619       13.001       40.854        0.024        0.006       18.191        6.823        0.141      330.289       -2.433      871.176
11/25/2013  07:35:00      -24.182        3.792       -2.828        5.123        3.470        3.189       26.250       12.038       10.168        0.033        0.002       24.478        1.479        0.004      330.215       -2.555      871.189
11/25/2013  07:36:00      -18.841        1.016        0.011        3.748        2.702        2.500       14.048        7.303        6.252        0.019        0.001       18.868        1.942        0.011      330.250       -2.498      871.196
11/25/2013  07:37:00      -24.580        9.904       -2.447        4.196        4.905        4.149       17.603       24.056       17.210        0.038        0.003       26.500        2.252        0.007      330.252       -2.495      871.214
11/25/2013  07:38:00      -21.930        6.706        2.140        7.163        4.219        6.119       51.309       17.801       37.447        0.032        0.005       22.932        5.550        0.059      330.361       -2.316      871.232
11/25/2013  07:39:00       26.780       11.765        2.500       22.193       10.223       12.193      492.544      104.504      148.661        0.080        0.037       29.250       11.312        0.150      330.646       -1.848      871.243
11/25/2013  07:40:00       23.754       -3.890        4.293       13.230       19.065       12.045      175.039      363.491      145.088        0.064        0.034       24.070       12.104        0.253      330.686       -1.784      871.247
11/25/2013  07:41:00        3.325        0.934       17.246       10.463       15.003        6.794      109.483      225.080       46.159        0.034        0.019        3.453        3.863        1.251      330.978       -1.303      871.249
11/25/2013  07:42:00       36.779       29.827       11.798       17.056       12.899       13.871      290.909      166.395      192.395        0.152        0.032       47.353        8.098        0.029      330.634       -1.867      871.251
11/25/2013  07:43:00       13.011        4.580       11.558       18.418       15.522       12.541      339.207      240.944      157.274        0.053        0.037       13.793       13.456        0.952      330.823       -1.558      871.254
11/25/2013  07:44:00       15.725       17.155       14.293       19.506        9.911       16.119      380.480       98.225      259.837        0.074        0.037       23.272       14.193        0.372      330.773       -1.641      871.264
11/25/2013  07:45:00      -10.357       -3.299       13.693        7.519        7.864        8.978       56.528       61.836       80.598        0.025        0.010       10.870        5.531        0.259      330.804       -1.590      871.274
11/25/2013  07:46:00      -13.209       12.822       22.072        9.698       12.412       11.903       94.047      154.066      141.677        0.061        0.019       18.409        8.616        0.219      330.892       -1.445      871.268
11/25/2013  07:47:00      -18.937       10.736        8.199        8.439        9.301       10.025       71.217       86.514      100.509        0.040        0.013       21.768        8.230        0.143      330.655       -1.833      871.262
11/25/2013  07:48:00      -18.473        0.126        1.058       10.023        4.820        4.734      100.455       23.232       22.411        0.024        0.007       18.473        3.131        0.029      330.578       -1.960      871.269
11/25/2013  07:49:00      -23.384        4.551       -4.885        8.195        4.062        4.967       67.159       16.496       24.676        0.035        0.005       23.823        3.871        0.026      330.532       -2.035      871.272
11/25/2013  07:50:00      -16.308       -4.920       -3.597        6.518        4.695        4.734       42.483       22.039       22.415        0.020        0.004       17.034        2.914        0.029      330.626       -1.882      871.275
11/25/2013  07:51:00      -13.623        9.919       -5.687        8.074        9.645        4.581       65.187       93.017       20.988        0.025        0.009       16.852        4.013        0.057      330.728       -1.714      871.283
11/25/2013  07:52:00      -12.882        6.198       -8.375        7.372        5.982        4.488       54.345       35.785       20.140        0.019        0.006       14.296        1.991        0.019      330.771       -1.642      871.288
11/25/2013  07:53:00       -2.042       12.690        4.617        8.720        8.791        8.909       76.038       77.278       79.369        0.021        0.012       12.854        4.392        0.117      330.939       -1.366      871.306
11/25/2013  07:54:00       -0.239       13.646        5.946       16.531       13.613       10.039      273.285      185.306      100.774        0.039        0.028       13.648       12.245        0.805      331.056       -1.174      871.317
11/25/2013  07:55:00       -8.175       -0.198       20.501       10.064        8.450       14.053      101.278       71.406      197.492        0.043        0.019        8.178       10.662        1.700      331.323       -0.736      871.325
11/25/2013  07:56:00      -17.158        4.173       11.521       10.437       10.938        8.370      108.932      119.630       70.061        0.037        0.015       17.658        7.165        0.165      331.076       -1.142      871.338
11/25/2013  07:57:00       -6.381       13.665       11.378        9.802       17.151       11.127       96.073      294.164      123.803        0.044        0.026       15.081        9.756        0.418      331.073       -1.146      871.358
11/25/2013  07:58:00      -23.358      -12.020        0.802        7.530        8.116        7.480       56.704       65.866       55.950        0.043        0.009       26.269        4.146        0.025      330.812       -1.577      871.377
11/25/2013  07:59:00      -24.670       -4.132       -5.283        8.731        7.891        7.139       76.231       62.269       50.961        0.042        0.009       25.013        6.359        0.065      330.854       -1.506      871.396
11/25/2013  08:00:00      -29.265       -2.694       -7.914       11.144        7.564        6.440      124.181       57.216       41.476        0.057        0.011       29.389        5.390        0.034      330.887       -1.454      871.405
11/25/2013  08:01:00      -41.616       -3.442       -4.878       15.841        5.497        7.095      250.942       30.216       50.333        0.105        0.017       41.758        7.823        0.035      330.841       -1.528      871.401
11/25/2013  08:02:00      -21.930      -11.183        3.983       12.518       14.123        9.286      156.697      199.445       86.229        0.053        0.022       24.616        8.714        0.125      330.981       -1.298      871.398
11/25/2013  08:03:00      -40.259      -13.429       -2.353        8.029       11.514        6.653       64.458      132.565       44.268        0.102        0.012       42.439        4.869        0.013      330.883       -1.459      871.392
11/25/2013  08:04:00      -37.530      -16.284       -0.089        8.186       10.215        4.876       67.013      104.337       23.773        0.093        0.010       40.911        2.059        0.003      330.914       -1.408      871.396
11/25/2013  08:05:00      -45.236       -9.039       -5.706        8.799       10.002       10.095       77.419      100.048      101.915        0.122        0.014       46.130        8.411        0.033      330.934       -1.375      871.397
11/25/2013  08:06:00      -48.139       11.354       -7.468        8.804        7.041        5.137       77.507       49.571       26.391        0.133        0.008       49.460        3.898        0.006      330.909       -1.416      871.397
11/25/2013  08:07:00      -37.609        8.915       -4.606       11.505        7.512        9.612      132.376       56.424       92.384        0.090        0.014       38.651        5.103        0.017      330.994       -1.277      871.386
11/25/2013  08:08:00      -12.396        0.284       -0.685       10.662        4.747        7.739      113.675       22.535       59.885        0.018        0.010       12.399        6.996        0.318      331.380       -0.643      871.384
11/25/2013  08:09:00      -10.904       -5.735        1.942        6.130        6.365        7.394       37.577       40.510       54.671        0.014        0.007       12.321        4.988        0.164      331.342       -0.705      871.381
11/25/2013  08:10:00       -0.063       -4.184        3.347        5.263        6.981        7.798       27.700       48.732       60.801        0.008        0.007        4.185        4.558        1.186      331.618       -0.249      871.378
11/25/2013  08:11:00       35.517       11.816        3.037       29.705       13.247       14.211      882.384      175.478      201.957        0.133        0.063       37.431        7.371        0.039      331.312       -0.753      871.379
11/25/2013  08:12:00       29.124       11.610        2.587       36.960       20.909       15.954     1366.008      437.196      254.532        0.152        0.103       31.353        7.766        0.061      331.465       -0.502      871.377
11/25/2013  08:13:00        3.894        3.460       17.699       15.485       17.440       14.580      239.783      304.147      212.582        0.055        0.038        5.209        8.823        2.869      331.732       -0.063      871.365
11/25/2013  08:14:00      -21.457      -13.534       12.601       14.356       12.207        9.312      206.094      149.020       86.707        0.062        0.022       25.369        8.055        0.101      331.549       -0.364      871.358
11/25/2013  08:15:00        1.335      -10.539       10.826       10.568       12.159       10.913      111.673      147.842      119.091        0.030        0.019       10.623        7.153        0.453      331.699       -0.117      871.351
11/25/2013  08:16:00       -2.231        5.028       25.452       11.489       17.211       14.354      132.000      296.216      206.029        0.066        0.032        5.501       12.388        5.072      331.848        0.128      871.345
11/25/2013  08:17:00      -10.968        0.682       14.394       12.856        8.761       13.527      165.267       76.753      182.985        0.038        0.021       10.989        7.218        0.432      331.805        0.059      871.358
11/25/2013  08:18:00      -19.057        2.081        9.925       11.467       13.903       14.517      131.488      193.304      210.740        0.050        0.027       19.170        7.921        0.171      331.549       -0.366      871.369
11/25/2013  08:19:00       -5.519       -2.348        5.724       10.628        9.195       11.713      112.961       84.551      137.192        0.020        0.017        5.997        6.926        1.334      331.807        0.061      871.384
11/25/2013  08:20:00      -12.787        3.494       21.342        9.497       10.815       11.050       90.195      116.969      122.111        0.048        0.016       13.255        7.335        0.306      331.882        0.185      871.389
11/25/2013  08:21:00      -26.038       -6.174       -7.374        8.096        7.745        6.605       65.547       59.989       43.620        0.047        0.008       26.760        3.574        0.018      331.462       -0.507      871.395
11/25/2013  08:22:00      -26.163      -14.122       -7.959       19.092        8.950        8.734      364.518       80.107       76.275        0.073        0.026       29.731        6.306        0.045      331.506       -0.435      871.403
11/25/2013  08:23:00      -23.989      -23.502       -2.605       17.953       15.117       13.109      322.328      228.529      171.848        0.093        0.036       33.583       10.823        0.104      331.529       -0.397      871.394
11/25/2013  08:24:00      -53.202      -30.116        1.202       34.385       22.897       17.353     1182.331      524.294      301.142        0.287        0.100       61.135       17.887        0.086      331.498       -0.449      871.394
11/25/2013  08:25:00      -48.004      -34.609       10.453       38.349       27.591       17.418     1470.646      761.245      303.388        0.307        0.127       59.179       16.155        0.075      331.528       -0.400      871.392
11/25/2013  08:26:00      -72.024      -48.741       -5.828       16.015       15.305       14.738      256.465      234.251      217.218        0.415        0.035       86.967        7.853        0.008      331.492       -0.459      871.394
11/25/2013  08:27:00      -59.682      -46.990       -2.564       18.363       21.127       11.589      337.209      446.332      134.307        0.335        0.046       75.960       10.944        0.021      331.503       -0.441      871.403
11/25/2013  08:28:00      -47.860      -12.873       -3.716       20.656       17.114       14.800      426.675      292.892      219.037        0.170        0.047       49.561       10.676        0.046      331.578       -0.317      871.412
11/25/2013  08:29:00      -46.473      -45.370        1.582       22.156       24.375       12.542      490.894      594.146      157.306        0.273        0.062       64.947       11.260        0.030      331.607       -0.269      871.417
11/25/2013  08:30:00      -92.009      -53.902       -2.130       25.188       23.590       18.512      634.410      556.471      342.695        0.645        0.077      106.635       16.127        0.023      331.582       -0.310      871.415
11/25/2013  08:31:00      -98.027      -39.747      -12.793       17.968       27.076       17.041      322.845      733.104      290.379        0.635        0.067      105.779        8.130        0.006      331.625       -0.239      871.400
11/25/2013  08:32:00      -61.696      -84.535       -8.293       30.609       25.584       21.251      936.928      654.520      451.591        0.653        0.102      104.655       16.615        0.025      331.602       -0.276      871.387
11/25/2013  08:33:00      -75.942      -85.967       -9.084       22.384       18.870       15.942      501.044      356.074      254.135        0.718        0.056      114.706       13.504        0.014      331.601       -0.279      871.365
11/25/2013  08:34:00      -44.384      -83.443       -2.843       15.621       24.380       15.371      244.012      594.362      236.266        0.501        0.054       94.513       12.931        0.019      331.621       -0.245      871.355
11/25/2013  08:35:00      -32.521      -77.733       -3.809       15.831       18.214       13.577      250.630      331.740      184.332        0.394        0.038       84.261        7.942        0.009      331.658       -0.184      871.353
11/25/2013  08:36:00      -35.825      -63.494       -8.029       14.795       20.322       13.941      218.904      412.980      194.364        0.310        0.041       72.903        9.293        0.016      331.655       -0.189      871.354
11/25/2013  08:37:00      -44.596      -76.409       -4.382       13.074       16.412       13.518      170.926      269.367      182.733        0.423        0.031       88.471        8.763        0.010      331.657       -0.185      871.361
11/25/2013  08:38:00      -56.695      -55.596      -11.004       10.390       19.375        7.851      107.952      375.391       61.636        0.349        0.027       79.405        5.152        0.004      331.705       -0.106      871.368
11/25/2013  08:39:00      -40.272      -45.068      -11.206       15.973       18.176       17.868      255.122      330.373      319.258        0.234        0.045       60.440       10.325        0.029      331.857        0.144      871.381
11/25/2013  08:40:00      -41.331      -20.689       -1.601       23.445       19.746       15.462      549.663      389.913      239.073        0.166        0.059       46.220       13.127        0.081      331.883        0.186      871.393
11/25/2013  08:41:00      -45.785      -50.439       -2.621       23.022       21.434       16.257      529.991      459.396      264.290        0.295        0.063       68.120        6.322        0.009      331.819        0.079      871.405
11/25/2013  08:42:00      -45.946      -22.841       -4.911        8.456       21.706       10.031       71.511      471.139      100.618        0.165        0.032       51.310        4.989        0.009      331.814        0.072      871.422
11/25/2013  08:43:00      -34.083      -12.062       -5.176       19.519       13.845        8.970      380.983      191.693       80.468        0.099        0.033       36.155        8.686        0.058      331.915        0.239      871.426
11/25/2013  08:44:00      -16.149      -36.160       -3.108       14.421       22.238        9.318      207.952      494.521       86.831        0.118        0.039       39.602        6.622        0.028      331.943        0.283      871.428
11/25/2013  08:45:00      -29.114      -24.863       -5.475       21.593       19.219       16.888      466.263      369.389      285.197        0.131        0.056       38.286       14.688        0.147      332.065        0.487      871.440
11/25/2013  08:46:00      -35.550      -25.987       -6.308       23.206       22.197       13.362      538.500      492.722      178.552        0.159        0.060       44.035        9.814        0.050      332.003        0.384      871.451
11/25/2013  08:47:00      -20.290      -33.701       -2.845       16.370       12.115       13.456      267.968      146.774      181.057        0.108        0.030       39.337       10.331        0.069      332.034        0.434      871.455
11/25/2013  08:48:00      -50.679      -22.486       -2.672       18.221       14.335       12.940      332.018      205.494      167.438        0.189        0.035       55.443        8.958        0.026      332.031        0.430      871.457
11/25/2013  08:49:00      -33.298      -16.294        0.593       21.344        9.796        8.976      455.580       95.970       80.570        0.100        0.032       37.071        8.386        0.051      332.079        0.510      871.461
11/25/2013  08:50:00      -11.836       -9.841        5.534        9.028        9.109        8.413       81.508       82.970       70.774        0.025        0.012       15.393        4.822        0.098      332.282        0.845      871.469
11/25/2013  08:51:00      -38.049      -12.866        3.669       15.770       16.894       10.763      248.702      285.408      115.836        0.114        0.032       40.165       10.955        0.074      332.220        0.741      871.466
11/25/2013  08:52:00      -22.322        0.294        4.243        9.724        9.972        9.396       94.549       99.442       88.283        0.040        0.014       22.324        7.810        0.122      332.423        1.077      871.457
11/25/2013  08:53:00      -11.444        0.881       26.058        9.795       18.818       14.088       95.941      354.118      198.474        0.073        0.032       11.478        9.449        0.678      332.915        1.889      871.457
11/25/2013  08:54:00        7.667       12.011       40.041       25.079       27.539       18.236      628.974      758.384      332.538        0.176        0.086       14.250       18.233        1.637      333.067        2.139      871.464
11/25/2013  08:55:00       -2.143       14.343       53.706       16.126       31.835       17.473      260.052     1013.497      305.313        0.234        0.079       14.502       16.167        1.243      333.119        2.225      871.468
11/25/2013  08:56:00       -4.855       56.655       76.306       18.371       23.917       15.222      337.509      572.025      231.718        0.510        0.057       56.862       11.122        0.038      332.682        1.503      871.476
11/25/2013  08:57:00        1.354       19.331       35.729       27.776       28.414       19.002      771.488      807.377      361.072        0.180        0.097       19.378       18.166        0.879      332.888        1.844      871.482
11/25/2013  08:58:00       -9.624       -1.518       12.983       18.376       16.139       12.076      337.664      260.473      145.839        0.050        0.037        9.743        8.250        0.717      332.873        1.821      871.486
11/25/2013  08:59:00       18.219       22.120       16.999       38.932       37.152       19.216     1515.688     1380.264      369.264        0.219        0.163       28.657       16.598        0.335      332.688        1.514      871.496
11/25/2013  09:00:00        2.332       12.896       12.069       31.620       16.054       14.311      999.824      257.716      204.807        0.089        0.073       13.105       14.533        1.230      332.687        1.511      871.502
11/25/2013  09:01:00      -11.386       10.584       38.001       13.733       19.456       11.712      188.605      378.532      137.169        0.119        0.035       15.546       10.240        0.434      333.193        2.347      871.506
11/25/2013  09:02:00      -13.921      -32.037        6.156       13.559       15.683       11.726      183.840      245.941      137.499        0.091        0.028       34.931        9.166        0.069      332.471        1.157      871.506
11/25/2013  09:03:00       -9.442       -9.668       30.781       10.973       24.218       11.598      120.397      586.491      134.521        0.099        0.042       13.513        8.283        0.376      333.190        2.342      871.495
11/25/2013  09:04:00        4.383       16.290       38.066       16.232       22.479       15.672      263.475      505.284      245.614        0.137        0.051       16.869        9.171        0.296      333.242        2.428      871.493
11/25/2013  09:05:00      -11.952       15.498       45.787       18.155       19.406       13.330      329.618      376.588      177.680        0.168        0.044       19.572       10.412        0.283      333.069        2.142      871.480
11/25/2013  09:06:00       89.776       75.408       39.588       39.332       24.742       33.515     1547.006      612.159     1123.288        0.930        0.164      117.243       23.272        0.039      332.355        0.964      871.472
11/25/2013  09:07:00       90.526       42.737        7.104       43.452       27.042       28.639     1888.084      731.247      820.212        0.676        0.172      100.107       16.803        0.028      332.455        1.129      871.469
11/25/2013  09:08:00       48.527       56.570       19.681       37.141       32.256       41.160     1379.444     1040.462     1694.163        0.503        0.206       74.532       27.542        0.137      332.847        1.776      871.469
11/25/2013  09:09:00       20.888       86.951       99.842       39.298       36.920       16.922     1544.363     1363.082      286.364        1.058        0.160       89.425       16.954        0.036      332.827        1.744      871.472
11/25/2013  09:10:00       96.383      118.613       92.496       38.552       26.218       27.887     1486.223      687.358      777.691        1.743        0.148      152.835       16.806        0.012      332.573        1.322      871.476
11/25/2013  09:11:00       61.638       77.417       71.393       39.734       46.973       36.048     1578.810     2206.494     1299.463        0.999        0.254       98.958       33.501        0.115      332.683        1.504      871.485
11/25/2013  09:12:00       20.821       99.864      107.165       41.834       46.773       29.480     1750.107     2187.723      869.096        1.335        0.240      102.012       27.609        0.073      332.689        1.514      871.476
11/25/2013  09:13:00       54.448      101.444       82.823       32.119       29.681       23.523     1031.659      880.934      553.348        1.129        0.123      115.132        9.100        0.006      332.594        1.358      871.463
11/25/2013  09:14:00       90.068       60.063       54.417       44.177       45.150       43.162     1951.592     2038.490     1862.937        1.027        0.293      108.258       27.926        0.067      332.531        1.254      871.441
11/25/2013  09:15:00       65.197       59.972       40.106       32.516       33.257       43.807     1057.272     1106.001     1919.069        0.677        0.204       88.585       29.842        0.113      332.579        1.332      871.441
11/25/2013  09:16:00       54.228       25.062       -4.915       21.340       23.703       23.593      455.384      561.825      556.631        0.258        0.079       59.739        7.401        0.015      332.505        1.210      871.433
11/25/2013  09:17:00       96.612       65.970       32.684       36.576       39.998       36.955     1337.811     1599.876     1365.676        0.953        0.215      116.986       18.153        0.024      332.686        1.510      871.422
11/25/2013  09:18:00       92.705       72.954       16.766       54.477       44.252       43.869     2967.744     1958.265     1924.518        1.052        0.343      117.968       27.430        0.054      332.866        1.807      871.420
11/25/2013  09:19:00       34.337       44.353       23.362       46.891       35.967       24.266     2198.803     1293.591      588.860        0.389        0.204       56.091       14.604        0.068      333.083        2.166      871.434
11/25/2013  09:20:00      135.095       71.817       16.216       66.384       52.368       47.536     4406.810     2742.359     2259.643        1.654        0.470      152.998       45.358        0.088      332.699        1.530      871.452
11/25/2013  09:21:00      122.509       91.202        0.263       43.806       36.600       29.833     1918.994     1339.532      889.993        1.374        0.207      152.729       21.320        0.019      332.534        1.258      871.458
11/25/2013  09:22:00      103.069       48.683       20.493       63.427       54.562       29.472     4023.028     2976.983      868.583        1.064        0.393      113.988       28.390        0.062      332.766        1.642      871.452
11/25/2013  09:23:00      126.206       76.949        9.079       55.905       53.703       35.287     3125.389     2883.990     1245.185        1.459        0.363      147.814       22.632        0.023      332.720        1.565      871.448
11/25/2013  09:24:00      160.636      107.738        6.837       41.569       28.015       34.294     1728.011      784.835     1176.085        2.057        0.184      193.420       10.568        0.003      332.629        1.414      871.439
11/25/2013  09:25:00      168.325      123.977       28.160       36.338       28.075       33.777     1320.425      788.191     1140.905        2.387        0.162      209.054       18.170        0.008      332.440        1.103      871.435
11/25/2013  09:26:00       91.469       65.281        3.063       30.482       30.443       26.215      929.159      926.789      687.209        0.759        0.127      112.375       15.855        0.020      332.660        1.468      871.433
11/25/2013  09:27:00      115.377       95.858       45.712       62.903       35.220       42.163     3956.765     1240.427     1777.746        1.578        0.349      150.002       29.451        0.039      332.901        1.865      871.430
11/25/2013  09:28:00      143.626       93.333       22.204       51.710       40.008       38.420     2673.967     1600.671     1476.079        1.779        0.288      171.288       22.128        0.017      332.796        1.691      871.420
11/25/2013  09:29:00      132.265       90.020        3.082       37.247       25.797       31.339     1387.343      665.460      982.142        1.432        0.152      159.993       23.117        0.021      332.741        1.600      871.422
11/25/2013  09:30:00      107.441       75.509        2.908       41.831       31.178       30.244     1749.851      972.083      914.728        1.044        0.182      131.321       18.530        0.020      332.881        1.834      871.429
11/25/2013  09:31:00       97.200       82.461        1.774       40.583       47.319       38.757     1646.990     2239.088     1502.081        1.082        0.269      127.466       27.938        0.048      332.952        1.948      871.424
11/25/2013  09:32:00       86.091       86.297        7.925       47.712       34.294       40.785     2276.402     1176.069     1663.441        1.002        0.256      121.897       23.407        0.037      333.070        2.144      871.419
11/25/2013  09:33:00      114.936       90.385       20.628       38.799       25.644       31.177     1505.363      657.635      971.987        1.247        0.157      146.218        8.172        0.003      333.029        2.077      871.411
11/25/2013  09:34:00       31.829       47.327       53.463       53.740       56.295       49.835     2887.972     3169.171     2483.527        0.732        0.427       57.034       39.442        0.478      333.449        2.771      871.393
11/25/2013  09:35:00       92.873       65.976       20.094       41.814       40.136       35.593     1748.406     1610.878     1266.871        0.900        0.231      113.922       22.972        0.041      333.171        2.310      871.368
11/25/2013  09:36:00       95.710       89.902       68.182       58.409       54.553       48.941     3411.625     2976.050     2395.210        1.534        0.439      131.312       24.396        0.035      333.208        2.372      871.347
11/25/2013  09:37:00      165.457      100.323       18.944       60.642       37.705       42.216     3677.466     1421.643     1782.166        2.234        0.344      193.496       23.817        0.015      332.864        1.803      871.350
11/25/2013  09:38:00      155.429      102.579        9.674       46.075       39.958       40.738     2122.929     1596.662     1659.547        2.008        0.269      186.227       23.941        0.017      332.838        1.761      871.355
11/25/2013  09:39:00      115.018       76.842        6.055       49.719       37.046       32.376     2471.997     1372.396     1048.201        1.203        0.245      138.325       19.036        0.019      333.022        2.065      871.359
11/25/2013  09:40:00       76.227       84.947       86.237       70.651       65.358       43.573     4991.605     4271.607     1898.577        1.581        0.558      114.134       25.740        0.051      333.263        2.462      871.362
11/25/2013  09:41:00      124.130       24.087        1.990       60.015       46.897       44.872     3601.756     2199.337     2013.476        1.190        0.391      126.445       36.031        0.081      332.971        1.981      871.364
11/25/2013  09:42:00       69.213       66.842       55.020       53.929       37.870       41.633     2908.303     1434.128     1733.289        0.918        0.304       96.220       33.692        0.123      333.329        2.574      871.348
11/25/2013  09:43:00      105.799       89.474       22.133       74.131       35.492       49.706     5495.416     1259.714     2470.662        1.446        0.461      138.561       52.626        0.144      333.205        2.367      871.325
11/25/2013  09:44:00      147.701       86.892       10.582       44.706       33.556       38.867     1998.652     1125.995     1510.653        1.706        0.232      171.365       23.450        0.019      333.031        2.080      871.318
11/25/2013  09:45:00      122.212       78.856        8.242       47.968       40.885       27.510     2300.941     1671.623      756.815        1.297        0.236      145.444       23.336        0.026      332.990        2.013      871.317
11/25/2013  09:46:00      112.460       74.936       18.425       26.357       32.739       32.140      694.676     1071.812     1032.992        1.070        0.140      135.139       21.063        0.024      333.071        2.146      871.329
11/25/2013  09:47:00       95.382       70.776       18.047       33.193       34.446       36.192     1101.773     1186.525     1309.888        0.901        0.180      118.772       14.919        0.016      333.424        2.730      871.326
11/25/2013  09:48:00       65.871       84.901       13.033       24.154       21.840       27.913      583.414      476.978      779.110        0.678        0.092      107.457       14.995        0.019      333.158        2.290      871.331
11/25/2013  09:49:00       58.229       86.520       70.879       46.739       46.164       45.645     2184.502     2131.086     2083.455        1.115        0.320      104.289       41.634        0.159      333.381        2.660      871.324
11/25/2013  09:50:00      104.606       87.586       22.785       30.922       39.627       38.746      956.193     1570.330     1501.285        1.158        0.201      136.432       13.586        0.010      333.183        2.330      871.335
11/25/2013  09:51:00       73.258       41.863       -9.171       63.695       64.738       28.266     4057.032     4190.956      798.940        0.812        0.452       84.375       24.262        0.083      333.385        2.666      871.332
11/25/2013  09:52:00       49.838       16.655        6.977       56.772       55.819       27.738     3223.068     3115.748      769.417        0.496        0.355       52.547       15.629        0.088      333.373        2.645      871.340
11/25/2013  09:53:00       67.719       54.943       -5.297       20.099       34.053       21.120      403.981     1159.593      446.046        0.482        0.100       87.204       18.875        0.047      333.121        2.228      871.334
11/25/2013  09:54:00      -15.681       19.230        3.438       40.211       26.514       21.952     1616.941      702.966      481.875        0.171        0.140       24.813       14.620        0.347      333.544        2.928      871.332
11/25/2013  09:55:00       12.743       24.907       28.678       45.861       23.175       18.286     2103.212      537.097      334.392        0.229        0.149       27.978       16.508        0.348      333.864        3.457      871.321
11/25/2013  09:56:00        6.721       72.271        3.507       28.751       45.008       27.655      826.648     2025.725      764.816        0.445        0.181       72.583       16.712        0.053      333.917        3.546      871.332
11/25/2013  09:57:00       32.140       95.502       -9.072       29.191       33.662       28.924      852.092     1133.145      836.573        0.653        0.141      100.765       22.263        0.049      333.798        3.349      871.330
11/25/2013  09:58:00       73.111       91.651       -9.164       31.353       41.306       24.556      983.024     1706.184      602.980        0.856        0.165      117.240       15.271        0.017      333.345        2.598      871.338
11/25/2013  09:59:00       58.223       59.163        8.718       18.067       15.737       15.949      326.425      247.639      254.356        0.390        0.041       83.007        9.032        0.012      333.302        2.526      871.332
11/25/2013  10:00:00       24.362       63.197       51.797       38.040       30.171       48.390     1447.068      910.292     2341.549        0.598        0.235       67.730       37.346        0.304      333.653        3.108      871.332
11/25/2013  10:01:00       13.111       76.500      104.993       51.716       73.112       36.905     2674.561     5345.320     1361.993        1.321        0.469       77.616       40.244        0.269      333.992        3.670      871.322
11/25/2013  10:02:00       82.473      118.294      111.027       29.814       27.659       16.575      888.901      764.996      274.742        1.753        0.096      144.206       13.814        0.009      333.475        2.814      871.328
11/25/2013  10:03:00       39.705       36.584       49.912       30.380       57.589       26.687      922.918     3316.468      712.203        0.518        0.248       53.990       30.622        0.322      333.862        3.455      871.326
11/25/2013  10:04:00       27.773       47.818       63.890       37.455       46.113       32.331     1402.872     2126.405     1045.317        0.586        0.229       55.298       31.233        0.319      334.023        3.722      871.325
11/25/2013  10:05:00       10.532       30.190       63.242       30.039       42.712       27.641      902.323     1824.317      764.044        0.426        0.175       31.975       19.807        0.384      334.367        4.293      871.316
11/25/2013  10:06:00       34.020       55.723       11.505       45.044       23.953       34.063     2028.969      573.749     1160.312        0.408        0.188       65.287       24.636        0.142      333.962        3.621      871.306
11/25/2013  10:07:00      153.829       91.371       30.325       36.542       34.811       35.296     1335.348     1211.808     1245.777        1.836        0.190      178.919       22.167        0.015      333.586        2.996      871.289
11/25/2013  10:08:00       85.992       61.308       -2.389       31.486       23.758       29.648      991.370      564.439      879.028        0.680        0.122      105.609       18.753        0.032      333.439        2.754      871.285
11/25/2013  10:09:00       11.546       30.688        1.874       22.703       24.623       23.029      515.444      606.312      530.353        0.136        0.083       32.788       12.715        0.150      333.911        3.536      871.295
11/25/2013  10:10:00       44.163       56.239       38.515       47.788       34.537       42.168     2283.655     1192.825     1778.115        0.592        0.263       71.506       22.090        0.095      334.049        3.766      871.290
11/25/2013  10:11:00       89.527      126.772      110.631       52.193       50.635       33.495     2724.076     2563.874     1121.917        2.137        0.320      155.197       28.346        0.033      333.742        3.255      871.296
11/25/2013  10:12:00      162.360      131.405       90.261       48.805       31.131       39.782     2381.976      969.148     1582.597        2.835        0.247      208.873       30.365        0.021      333.625        3.059      871.296
11/25/2013  10:13:00      112.242       79.305       48.709       51.373       48.095       49.046     2639.223     2313.119     2405.528        1.431        0.368      137.432       35.302        0.066      333.767        3.297      871.311
11/25/2013  10:14:00       98.889       64.761       35.311       55.036       39.156       46.902     3028.961     1533.183     2199.807        1.099        0.338      118.207       35.458        0.090      333.907        3.530      871.317
11/25/2013  10:15:00       63.913       61.759       29.602       37.568       23.739       36.927     1411.353      563.534     1363.624        0.606        0.167       88.877        7.160        0.006      333.846        3.428      871.320
11/25/2013  10:16:00       29.271       53.279        0.994       37.876       19.859       25.485     1434.561      394.371      649.481        0.309        0.124       60.790       14.815        0.059      333.913        3.540      871.306
11/25/2013  10:17:00       24.018       30.283        5.318       31.046       28.069       28.869      963.847      787.893      833.444        0.205        0.129       38.652       19.303        0.249      334.204        4.022      871.291
11/25/2013  10:18:00       25.113       62.961       -0.257       41.132       22.391       20.404     1691.821      501.347      416.329        0.360        0.130       67.785       16.706        0.061      333.996        3.677      871.273
11/25/2013  10:19:00      -17.642       55.484      -12.189       14.420       19.259       14.811      207.950      370.927      219.373        0.217        0.040       58.221        6.762        0.013      333.831        3.404      871.260
11/25/2013  10:20:00      -14.761       29.901       16.481       15.934       22.756       19.861      253.898      517.841      394.464        0.127        0.058       33.346       15.539        0.217      334.482        4.485      871.250
11/25/2013  10:21:00      -30.118       13.393       24.233       20.075       34.961       39.122      403.017     1222.248     1530.557        0.241        0.158       32.961       32.420        0.967      334.299        4.181      871.244
11/25/2013  10:22:00       -0.996       53.912       85.310       27.015       44.477       23.034      729.814     1978.246      530.566        0.671        0.162       53.921       27.284        0.256      334.555        4.604      871.225
11/25/2013  10:23:00       26.097       76.540       88.086       44.759       47.306       28.129     2003.346     2237.829      791.248        0.966        0.252       80.867       29.772        0.136      334.374        4.306      871.217
11/25/2013  10:24:00      136.989       97.258       51.296       27.403       20.383       33.883      750.940      415.450     1148.033        1.658        0.116      168.003       10.976        0.004      333.962        3.622      871.202
11/25/2013  10:25:00       62.795       34.816       27.212       46.135       36.744       32.575     2128.463     1350.133     1061.102        0.522        0.227       71.801       17.425        0.059      334.277        4.144      871.206
11/25/2013  10:26:00       99.301       59.559       37.365       42.628       30.429       37.104     1817.162      925.921     1376.708        0.946        0.206      115.793       20.583        0.032      334.101        3.851      871.200
11/25/2013  10:27:00       72.772       43.543       44.404       52.235       39.319       37.590     2728.486     1545.961     1413.020        0.742        0.284       84.804       38.305        0.204      334.308        4.195      871.198
11/25/2013  10:28:00       36.338       73.391       76.627       72.227       56.246       57.623     5216.673     3163.610     3320.449        1.214        0.585       81.895       44.760        0.299      334.597        4.674      871.190
11/25/2013  10:29:00       28.184       64.651       84.418       51.215       55.943       48.046     2622.952     3129.590     2308.422        1.008        0.403       70.527       45.547        0.417      334.498        4.511      871.192
11/25/2013  10:30:00       40.537       59.917       64.764       33.691       55.442       41.999     1135.095     3073.773     1763.880        0.770        0.299       72.341       42.453        0.344      334.543        4.586      871.185
11/25/2013  10:31:00       36.967       24.149       41.530       48.231       59.389       30.702     2326.212     3527.027      942.621        0.523        0.340       44.156       30.565        0.479      334.688        4.825      871.180
11/25/2013  10:32:00       -0.701       79.161      101.057       26.047       49.693       31.472      678.434     2469.352      990.491        1.031        0.207       79.164       32.640        0.170      334.663        4.784      871.159
11/25/2013  10:33:00       12.555       37.067       68.863       29.240       34.030       22.625      854.965     1158.026      511.877        0.440        0.126       39.135       17.656        0.204      334.727        4.890      871.149
11/25/2013  10:34:00       50.368       72.938       80.897       27.339       30.169       16.766      747.405      910.143      281.094        0.817        0.097       88.639       13.416        0.023      334.520        4.545      871.135
11/25/2013  10:35:00       62.816       60.049       46.570       31.460       22.777       29.099      989.743      518.784      846.767        0.604        0.118       86.901       14.510        0.028      334.287        4.160      871.131
11/25/2013  10:36:00      109.492       70.902       50.409       75.034       52.914       39.086     5630.148     2799.876     1527.729        1.476        0.498      130.444       21.829        0.028      334.563        4.617      871.110
11/25/2013  10:37:00       97.219       60.857       42.542       66.869       47.757       51.613     4471.418     2280.691     2663.865        1.219        0.471      114.696       40.343        0.124      334.483        4.485      871.108
11/25/2013  10:38:00       39.029       47.955       -0.079       41.735       27.952       35.139     1741.842      781.325     1234.716        0.379        0.188       61.830       20.014        0.105      334.453        4.436      871.100
11/25/2013  10:39:00        8.808       38.555       73.755       37.645       44.265       38.179     1417.128     1959.408     1457.671        0.592        0.242       39.548       40.564        1.052      334.865        5.119      871.089
11/25/2013  10:40:00        8.738       56.697       67.081       32.676       30.986       23.494     1067.703      960.117      551.976        0.518        0.129       57.366       17.082        0.089      334.912        5.197      871.062
11/25/2013  10:41:00       25.502        1.519       57.801       35.521       56.922       37.426     1261.774     3240.086     1400.741        0.495        0.295       25.547       39.513        2.392      335.017        5.372      871.044
11/25/2013  10:42:00       21.257       35.489       69.124       29.707       40.226       23.198      882.525     1618.152      538.161        0.476        0.152       41.368       23.952        0.335      335.146        5.586      871.038
11/25/2013  10:43:00      105.203       95.232       76.440       67.382       69.707       44.555     4540.400     4859.040     1985.174        1.868        0.569      141.904       39.535        0.078      334.778        4.973      871.031
11/25/2013  10:44:00       62.466      106.202       96.278       62.425       49.086       46.999     3896.863     2409.419     2208.862        1.648        0.426      123.211       41.243        0.112      334.685        4.819      871.031
11/25/2013  10:45:00       39.162      114.540      113.329       45.560       41.178       35.235     2075.701     1695.640     1241.528        1.625        0.251      121.050       28.034        0.054      334.641        4.747      871.021
11/25/2013  10:46:00       78.435       87.089      104.211       73.263       58.785       45.448     5367.491     3455.710     2065.485        1.774        0.544      117.203       51.664        0.194      334.675        4.802      871.017
11/25/2013  10:47:00       69.754       69.382       71.833       42.648       33.846       26.539     1818.877     1145.573      704.301        0.925        0.183       98.384       20.768        0.045      334.871        5.130      871.001
11/25/2013  10:48:00       79.738      -84.991        4.237       70.556       78.304       44.148     4978.081     6131.496     1949.009        1.333        0.653      116.540       48.707        0.175      334.778        4.976      871.003
11/25/2013  10:49:00       78.039      -51.527       23.004       66.613       76.903       45.029     4437.306     5914.021     2027.651        1.082        0.619       93.516       53.703        0.330      334.902        5.182      870.993
11/25/2013  10:50:00      104.129     -103.533      -13.638       54.426       71.760       46.410     2962.182     5149.530     2153.897        1.600        0.513      146.840       50.795        0.120      334.872        5.130      870.986
11/25/2013  10:51:00       44.229      -31.191       17.930       46.674       57.067       46.372     2178.500     3256.686     2150.351        0.542        0.379       54.121       45.110        0.695      335.012        5.364      870.984
11/25/2013  10:52:00       50.629       55.202       77.252       73.846       90.482       58.625     5453.257     8186.924     3436.837        1.432        0.854       74.904       62.242        0.690      335.045        5.419      870.969
11/25/2013  10:53:00      110.296       94.043       50.254       38.477       31.351       38.136     1480.491      982.867     1454.364        1.373        0.196      144.946       24.506        0.029      334.645        4.753      870.966
11/25/2013  10:54:00       87.656      112.662       68.708       80.086       51.004       57.967     6413.737     2601.391     3360.211        1.873        0.619      142.746       41.335        0.084      334.963        5.280      870.931
11/25/2013  10:55:00      118.174       94.748       55.549       45.610       36.474       41.217     2080.249     1330.345     1698.806        1.557        0.255      151.467       22.374        0.022      334.759        4.942      870.940
11/25/2013  10:56:00       50.968       67.160       43.237       44.620       42.308       36.941     1990.983     1789.941     1364.607        0.706        0.257       84.310       24.449        0.084      335.004        5.351      870.934
11/25/2013  10:57:00        9.845      101.298      111.551       32.297       36.824       19.327     1043.114     1356.023      373.522        1.279        0.139      101.776       19.056        0.035      334.920        5.211      870.930
11/25/2013  10:58:00       32.690       96.319      100.058       54.115       38.811       24.274     2928.402     1506.297      589.204        1.269        0.251      101.715       26.652        0.069      334.996        5.336      870.919
11/25/2013  10:59:00       39.336       50.157        9.172       40.061       22.843       28.495     1604.871      521.781      811.976        0.354        0.147       63.743       25.306        0.158      334.886        5.154      870.907
11/25/2013  11:00:00       79.864       39.388       15.398       57.000       54.698       42.682     3248.990     2991.848     1821.772        0.811        0.403       89.049       12.626        0.020      335.179        5.641      870.893
11/25/2013  11:01:00      128.185       86.150       45.521       54.025       46.882       46.316     2918.682     2197.908     2145.142        1.659        0.363      154.445       23.700        0.024      334.926        5.221      870.889
11/25/2013  11:02:00      107.144       85.977       78.681       45.318       32.098       32.767     2053.697     1030.276     1073.675        1.461        0.208      137.375       17.385        0.016      334.906        5.188      870.879
11/25/2013  11:03:00       51.918       96.952      -15.436       31.993       41.341       29.520     1023.558     1709.079      871.420        0.797        0.180      109.978       26.142        0.057      334.889        5.159      870.871
11/25/2013  11:04:00       80.905       36.001       23.293       55.431       41.403       33.108     3072.543     1714.239     1096.127        0.713        0.294       88.553       17.294        0.038      335.227        5.720      870.850
11/25/2013  11:05:00       34.031       81.564       76.994       58.197       44.713       46.557     3386.912     1999.222     2167.599        1.064        0.378       88.378       35.812        0.164      335.277        5.804      870.835
11/25/2013  11:06:00      106.747       91.883       56.242       44.831       34.919       46.565     2009.845     1219.345     2168.261        1.420        0.270      140.845       32.990        0.055      334.937        5.238      870.828
11/25/2013  11:07:00      109.845       87.543       52.585       76.764       76.432       52.364     5892.682     5841.875     2742.022        1.848        0.724      140.462       41.818        0.089      335.013        5.364      870.824
11/25/2013  11:08:00       37.006       62.732       58.994       46.976       53.915       36.647     2206.790     2906.819     1343.009        0.762        0.323       72.834       30.325        0.173      335.378        5.972      870.829
11/25/2013  11:09:00      107.917       88.047       73.519       52.788       45.831       49.882     2786.552     2100.442     2488.212        1.609        0.369      139.278       37.637        0.073      335.135        5.568      870.823
11/25/2013  11:10:00       61.984      -13.451       22.991       44.621       48.652       43.041     1991.028     2367.036     1852.552        0.538        0.311       63.427       39.065        0.379      334.890        5.160      870.813
11/25/2013  11:11:00      -29.548      -36.345      -13.690       16.448       19.945       11.936      270.527      397.785      142.476        0.160        0.041       46.840       12.354        0.070      334.760        4.946      870.784
11/25/2013  11:12:00       15.602       31.367       26.807       28.259       36.894       15.840      798.584     1361.188      250.902        0.218        0.121       35.033       10.774        0.095      335.528        6.223      870.759
11/25/2013  11:13:00       13.891       19.077       36.616       26.007       20.239       35.843      676.370      409.620     1284.751        0.213        0.119       23.599       19.882        0.710      335.422        6.046      870.760
11/25/2013  11:14:00        1.557       18.033        7.598       24.310       16.510       26.067      590.981      272.570      679.467        0.096        0.077       18.100       10.880        0.361      335.291        5.829      870.759
11/25/2013  11:15:00       20.703       11.408       19.952       30.385       33.211       27.355      923.243     1102.940      748.271        0.187        0.139       23.638       24.230        1.051      335.530        6.225      870.747
11/25/2013  11:16:00       98.133       52.979        3.158       52.075       29.058       33.088     2711.756      844.361     1094.827        0.855        0.233      111.521       19.153        0.029      335.214        5.699      870.753
11/25/2013  11:17:00      -15.617       34.895        5.792       36.442       40.490       16.623     1328.035     1639.472      276.341        0.237        0.162       38.230        6.871        0.032      335.434        6.066      870.736
11/25/2013  11:18:00       96.097       82.609        9.907       46.565       39.065       35.194     2168.312     1526.055     1238.604        1.054        0.247      126.724       30.757        0.059      335.081        5.480      870.718
11/25/2013  11:19:00       41.472       48.534       -6.871       42.066       23.902       25.113     1769.552      571.294      630.655        0.355        0.149       63.839       19.126        0.090      335.237        5.738      870.709
11/25/2013  11:20:00       51.189       82.268       85.186       52.372       56.063       43.989     2742.867     3143.008     1934.998        1.223        0.391       96.893       24.840        0.066      335.692        6.495      870.677
11/25/2013  11:21:00       83.735       55.088       49.893       62.395       52.778       39.159     3893.102     2785.563     1533.392        1.037        0.411      100.231       28.060        0.078      335.431        6.062      870.655
11/25/2013  11:22:00       88.027       66.914       37.677       44.921       36.193       32.905     2017.866     1309.965     1082.751        0.903        0.221      110.572       25.921        0.055      335.215        5.702      870.637
11/25/2013  11:23:00       34.947       55.745       31.635       35.021       32.015       47.234     1226.459     1024.983     2231.081        0.491        0.224       65.793       19.335        0.086      335.559        6.274      870.619
11/25/2013  11:24:00      108.597       65.872       32.952       45.574       45.904       46.492     2076.973     2107.136     2161.519        1.178        0.317      127.014       32.562        0.066      335.194        5.666      870.614
11/25/2013  11:25:00       64.708       29.390       32.809       44.633       36.692       36.135     1992.114     1346.324     1305.719        0.538        0.232       71.070       32.946        0.215      335.347        5.920      870.599
11/25/2013  11:26:00       88.858       76.128       26.780       28.130       34.450       46.480      791.277     1186.770     2160.369        0.927        0.207      117.010       24.055        0.042      335.360        5.941      870.591
11/25/2013  11:27:00       13.887       43.634       93.852       36.231       61.966       31.511     1312.675     3839.842      992.924        0.852        0.307       45.791       26.968        0.347      335.925        6.882      870.581
11/25/2013  11:28:00       34.976      -43.621       16.024       26.102       73.011       43.896      681.331     5330.581     1926.868        0.566        0.397       55.912       50.771        0.825      335.316        5.871      870.597
11/25/2013  11:29:00       67.313      -15.375       17.234       56.004       91.081       28.030     3136.483     8295.738      785.703        0.864        0.611       69.047       35.416        0.263      335.369        5.959      870.566
11/25/2013  11:30:00       81.388       46.245       52.803       53.017       37.575       30.711     2810.775     1411.870      943.139        0.836        0.258       93.609       23.801        0.065      335.524        6.215      870.544
11/25/2013  11:31:00       34.911      -35.069        2.303       31.258       25.925       21.773      977.040      672.122      474.047        0.229        0.106       49.483       16.885        0.116      335.374        5.965      870.530
11/25/2013  11:32:00      -45.222       -2.412       -6.028       29.313       24.632       14.332      859.257      606.744      205.397        0.188        0.084       45.286       12.109        0.072      335.439        6.074      870.497
11/25/2013  11:33:00      -11.800       -6.915       11.230       11.965       19.220       12.067      143.156      369.411      145.605        0.049        0.033       13.677        8.806        0.415      336.025        7.051      870.480
11/25/2013  11:34:00        9.198       51.385       -2.567       30.864       51.219       19.462      952.582     2623.398      378.760        0.334        0.198       52.202       22.264        0.182      335.962        6.946      870.458
11/25/2013  11:35:00       22.760       56.616       -1.490       39.556       36.073       31.969     1564.657     1301.248     1021.995        0.381        0.194       61.019       26.956        0.195      335.969        6.957      870.439
11/25/2013  11:36:00      147.466       99.413       20.591       43.409       40.290       27.257     1884.370     1623.293      742.918        1.815        0.213      177.846       16.099        0.008      335.560        6.276      870.432
11/25/2013  11:37:00       36.397      104.339       96.287       50.167       44.488       34.496     2516.731     1979.145     1189.948        1.358        0.284      110.505       24.520        0.049      336.015        7.033      870.413
11/25/2013  11:38:00       71.756       86.261       51.513       71.539       47.388       60.045     5117.836     2245.643     3605.366        1.310        0.548      112.205       59.246        0.279      335.769        6.623      870.406
11/25/2013  11:39:00      119.587       81.074       -4.389       35.776       21.991       28.252     1279.887      483.585      798.177        1.173        0.128      144.479       11.791        0.007      335.581        6.310      870.398
11/25/2013  11:40:00       36.808       72.846        1.648       27.054       38.660       22.784      731.934     1494.634      519.111        0.470        0.137       81.617       22.865        0.078      335.655        6.432      870.378
11/25/2013  11:41:00       16.645       52.190        4.926       26.664       35.192       24.738      710.969     1238.454      611.966        0.279        0.128       54.780       24.424        0.199      335.802        6.680      870.372
11/25/2013  11:42:00       56.044       74.577        3.244       49.746       40.289       34.222     2474.681     1623.212     1171.151        0.699        0.263       93.288       25.916        0.077      335.730        6.559      870.341
11/25/2013  11:43:00        5.182       31.726        4.602       26.705       49.266       26.240      713.168     2427.107      688.550        0.244        0.191       32.146       32.144        1.000      336.058        7.106      870.321
11/25/2013  11:44:00       15.286       15.582        4.760       14.271       16.686       18.428      203.673      278.434      339.599        0.066        0.041       21.828       10.845        0.247      336.049        7.090      870.284
11/25/2013  11:45:00       -4.535       17.554       23.767       51.673       26.500       25.149     2670.102      702.231      632.485        0.245        0.200       18.131       20.604        1.291      335.965        6.951      870.257
11/25/2013  11:46:00      -13.876      113.085      -19.048       21.167       36.391       13.032      448.039     1324.328      169.830        0.764        0.097      113.933       11.844        0.011      335.593        6.330      870.236
11/25/2013  11:47:00       32.972       66.181       -3.477       20.517       41.483       19.674      420.955     1720.832      387.075        0.400        0.126       73.940       20.091        0.074      335.901        6.844      870.210
11/25/2013  11:48:00      -22.327       43.936       -4.326       30.768       28.192       17.196      946.699      794.763      295.709        0.224        0.102       49.283       16.504        0.112      336.097        7.170      870.199
11/25/2013  11:49:00      -49.764       56.249       -7.425       33.093       25.847       22.837     1095.154      668.050      521.535        0.399        0.114       75.103       19.684        0.069      336.078        7.139      870.176
11/25/2013  11:50:00      -36.843       35.030        3.186       23.508       36.677       25.071      552.629     1345.174      628.548        0.256        0.126       50.839       19.570        0.148      336.182        7.312      870.163
11/25/2013  11:51:00       -0.863       43.176       11.073       34.449       22.961       26.035     1186.706      527.203      677.797        0.219        0.120       43.184       18.955        0.193      336.415        7.702      870.160
11/25/2013  11:52:00      -12.936       54.078       74.446       23.258       40.718       37.016      540.938     1657.961     1370.207        0.610        0.178       55.604       32.259        0.337      336.514        7.867      870.154
11/25/2013  11:53:00       23.101       72.076       44.991       54.000       62.974       58.642     2915.946     3965.759     3438.860        0.903        0.516       75.687       55.150        0.531      336.178        7.304      870.149
11/25/2013  11:54:00      116.932       97.462       48.873       32.546       33.342       44.569     1059.238     1111.679     1986.427        1.486        0.208      152.223       30.759        0.041      335.868        6.788      870.152
11/25/2013  11:55:00      108.795       69.866       11.325       25.425       20.725       25.098      646.432      429.537      629.923        0.928        0.085      129.297       16.004        0.015      335.750        6.592      870.158
11/25/2013  11:56:00      137.271       69.692        8.990       31.210       33.312       32.134      974.047     1109.690     1032.598        1.345        0.156      153.949       21.042        0.019      335.746        6.585      870.150
11/25/2013  11:57:00       36.282       19.518      -13.226       23.636       41.419       19.940      558.655     1715.528      397.611        0.227        0.134       41.199       16.098        0.153      335.813        6.698      870.156
11/25/2013  11:58:00        8.434      -27.439        4.159       28.708       20.486       22.519      824.151      419.674      507.120        0.130        0.088       28.706        8.063        0.079      336.128        7.222      870.140
11/25/2013  11:59:00        6.034        4.112        8.957       35.006       27.751       21.262     1225.414      770.115      452.089        0.129        0.122        7.302       15.839        4.706      336.352        7.597      870.130
11/25/2013  12:00:00       70.908       93.287       95.873       81.835       59.297       45.217     6696.952     3516.135     2044.576        1.759        0.613      117.177       38.646        0.109      336.290        7.491      870.109
11/25/2013  12:01:00       99.266       62.091       28.039       62.729       45.151       39.926     3934.969     2038.648     1594.052        1.103        0.378      117.086       12.317        0.011      335.994        6.998      870.109
11/25/2013  12:02:00        3.897      107.294       -4.315       45.099       41.409       27.752     2033.892     1714.701      770.191        0.803        0.226      107.365       15.728        0.021      336.206        7.353      870.091
11/25/2013  12:03:00       82.613       60.484       17.451       49.758       44.660       29.964     2475.864     1994.517      897.867        0.808        0.268      102.387       18.663        0.033      336.339        7.573      870.063
11/25/2013  12:04:00       30.929      112.318      117.517       72.260       57.934       48.615     5221.533     3356.338     2363.442        1.916        0.547      116.498       48.628        0.174      336.311        7.526      870.053
11/25/2013  12:05:00      113.765       79.695       51.079       51.598       44.720       51.268     2662.401     1999.840     2628.377        1.460        0.365      138.902       41.096        0.088      336.129        7.223      870.069
11/25/2013  12:06:00        8.866       33.550       30.227       31.802       28.942       24.645     1011.338      837.617      607.382        0.229        0.123       34.702       18.662        0.289      336.425        7.718      870.078
11/25/2013  12:07:00       49.939        6.141       35.760       36.477       44.211       33.604     1330.607     1954.611     1129.216        0.411        0.221       50.315       26.382        0.275      336.348        7.589      870.069
11/25/2013  12:08:00       28.125       28.764       39.927       30.626       39.191       33.304      937.945     1535.950     1109.130        0.340        0.179       40.229       20.496        0.260      336.538        7.908      870.056
11/25/2013  12:09:00       26.409       25.775       24.477       29.652       22.905       25.890      879.233      524.628      670.309        0.202        0.104       36.903       18.360        0.248      336.527        7.889      870.046
11/25/2013  12:10:00       37.375      -15.732      -30.277       37.006       38.153       15.408     1369.450     1455.669      237.418        0.281        0.153       40.551       18.466        0.207      336.189        7.324      870.037
11/25/2013  12:11:00       -4.112        6.199       10.232       17.840       17.426       17.408      318.275      303.679      303.047        0.054        0.046        7.439        8.175        1.208      336.752        8.264      870.031
11/25/2013  12:12:00      -14.266        8.327       25.443       24.712       12.169       15.467      610.673      148.083      239.224        0.096        0.050       16.519        6.917        0.175      337.012        8.699      870.010
11/25/2013  12:13:00       -2.582        2.626        4.818       14.896       10.644       12.555      221.882      113.290      157.632        0.026        0.025        3.683        7.980        4.694      336.943        8.584      869.999
11/25/2013  12:14:00      -46.082       -5.243       -3.909       25.820       27.239       14.806      666.685      741.984      219.212        0.190        0.081       46.379        6.816        0.022      336.607        8.022      869.976
11/25/2013  12:15:00      -29.388      -15.922        2.616       14.300       10.604       10.659      204.504      112.451      113.613        0.078        0.022       33.424        8.058        0.058      336.695        8.170      869.960
11/25/2013  12:16:00       26.058       29.027       11.906       44.537       46.117       29.346     1983.583     2126.768      861.202        0.332        0.249       39.008       33.485        0.737      336.864        8.452      869.953
11/25/2013  12:17:00      -11.668       60.651       84.342       25.444       43.336       32.907      647.389     1878.026     1082.882        0.727        0.180       61.763       29.909        0.234      336.949        8.595      869.935
11/25/2013  12:18:00       43.776       72.952       58.944       53.476       33.684       52.185     2859.680     1134.595     2723.227        0.871        0.336       85.078       44.161        0.269      336.515        7.870      869.925
11/25/2013  12:19:00       19.571       44.549       21.936       45.781       40.834       56.659     2095.937     1667.410     3210.248        0.491        0.349       48.659       39.299        0.652      336.577        7.972      869.920
11/25/2013  12:20:00      101.777       88.868        1.157       56.969       37.252       26.432     3245.486     1387.719      698.657        1.179        0.267      135.115       15.307        0.013      336.471        7.795      869.912
11/25/2013  12:21:00       77.595       59.776        0.499       34.603       24.287       18.751     1197.370      589.861      351.610        0.587        0.107       97.950       12.620        0.017      336.276        7.470      869.918
11/25/2013  12:22:00       25.986       27.154        9.699       39.975       29.062       21.307     1598.021      844.595      453.968        0.220        0.145       37.585       13.722        0.133      336.680        8.145      869.909
11/25/2013  12:23:00       38.999       48.669        5.165       31.423       35.797       28.687      987.424     1281.405      822.956        0.350        0.155       62.367       24.473        0.154      336.605        8.019      869.898
11/25/2013  12:24:00       40.554       53.025       -7.111       22.787       30.329       18.395      519.232      919.847      338.361        0.314        0.089       66.755       15.118        0.051      336.606        8.022      869.878
11/25/2013  12:25:00       12.722       75.870      -10.444       20.089       44.594       25.104      403.554     1988.643      630.207        0.452        0.151       76.929       26.470        0.118      336.541        7.912      869.871
11/25/2013  12:26:00       29.051       95.231      -15.307       29.159       31.799       20.404      850.231     1011.183      416.310        0.621        0.114       99.563       15.017        0.023      336.567        7.956      869.870
11/25/2013  12:27:00       27.744       47.453        0.722       37.580       36.560       24.654     1412.230     1336.613      607.842        0.319        0.168       54.968       21.422        0.152      336.747        8.256      869.850
11/25/2013  12:28:00       18.713       69.779       -2.930       30.951       46.868       31.870      957.950     2196.595     1015.720        0.470        0.209       72.245       31.845        0.194      336.652        8.097      869.840
11/25/2013  12:29:00       12.788      105.288      -14.007       34.921       46.715       29.415     1219.483     2182.301      865.271        0.786        0.213      106.061       31.298        0.087      336.623        8.049      869.818
11/25/2013  12:30:00       60.780       84.970      -12.878       31.557       43.156       31.044      995.846     1862.455      963.746        0.745        0.191      104.471       27.208        0.068      336.564        7.952      869.808
11/25/2013  12:31:00       28.562       63.806       -5.679       27.032       27.071       26.117      730.734      732.849      682.095        0.353        0.107       69.907       16.000        0.052      336.652        8.098      869.798
11/25/2013  12:32:00       79.646       51.960       11.185       32.230       28.570       24.672     1038.799      816.240      608.720        0.582        0.123       95.096       18.219        0.037      336.636        8.070      869.785
11/25/2013  12:33:00       19.089       78.298       -6.130       25.784       41.386       31.939      664.820     1712.836     1020.118        0.496        0.170       80.592       29.589        0.135      336.726        8.221      869.776
11/25/2013  12:34:00      -31.162       83.635       -8.498       42.304       24.799       19.752     1789.638      614.967      390.125        0.542        0.140       89.252       12.052        0.018      336.805        8.354      869.760
11/25/2013  12:35:00        0.151       14.661       12.343       22.045       26.759       20.697      486.000      716.048      428.355        0.100        0.082       14.662        8.447        0.332      337.136        8.907      869.759
11/25/2013  12:36:00        3.625       -6.255       19.203       15.450       46.309       22.354      238.704     2144.549      499.709        0.165        0.144        7.229       20.701        8.200      337.122        8.883      869.736
11/25/2013  12:37:00       16.427       51.649        6.806       32.312       44.086       29.805     1044.035     1943.582      888.351        0.343        0.194       54.198       15.120        0.078      337.064        8.786      869.734
11/25/2013  12:38:00        7.265       86.832       -6.967       25.530       38.301       31.466      651.782     1466.992      990.126        0.537        0.155       87.136       26.716        0.094      336.793        8.334      869.725
11/25/2013  12:39:00      -11.439       74.428      -10.181       18.898       35.331       23.403      357.121     1248.304      547.691        0.396        0.108       75.302        8.914        0.014      336.860        8.447      869.705
11/25/2013  12:40:00       70.150       25.618       32.133       50.985       43.067       45.961     2599.442     1854.772     2112.405        0.659        0.328       74.681       32.201        0.186      337.127        8.890      869.701
11/25/2013  12:41:00       91.930       60.645       42.328       47.781       46.216       44.212     2283.025     2135.883     1954.695        1.015        0.319      110.131       33.223        0.091      336.883        8.483      869.694
11/25/2013  12:42:00       91.839       41.841       44.695       52.147       38.261       36.536     2719.262     1463.927     1334.908        0.885        0.276      100.921       32.556        0.104      337.023        8.718      869.691
11/25/2013  12:43:00       49.842       52.265       10.383       34.576       41.474       39.612     1195.468     1720.126     1569.147        0.490        0.224       72.221       30.657        0.180      337.124        8.887      869.695
11/25/2013  12:44:00        9.963       18.833       13.888       28.081       30.492       22.404      788.565      929.760      501.952        0.143        0.111       21.306       18.818        0.780      337.468        9.463      869.690
11/25/2013  12:45:00       -1.953       25.372       -5.209       16.306       22.355       21.086      265.889      499.744      444.610        0.094        0.061       25.447       18.331        0.519      337.394        9.339      869.693
11/25/2013  12:46:00       -3.339        2.258       13.098        6.631        8.511       11.030       43.973       72.442      121.668        0.021        0.012        4.031        2.822        0.490      338.038       10.419      869.682
11/25/2013  12:47:00        1.370        7.208       37.311       29.606       37.263       36.180      876.515     1388.555     1308.977        0.251        0.179        7.337       29.933       16.643      337.607        9.696      869.673
11/25/2013  12:48:00        5.681       31.142       13.669       33.134       36.768       34.948     1097.887     1351.890     1221.397        0.243        0.184       31.656       14.338        0.205      337.507        9.528      869.664
11/25/2013  12:49:00       39.609       90.028       -2.794       39.237       47.602       38.165     1539.538     2265.918     1456.593        0.747        0.263       98.356       26.751        0.074      337.104        8.852      869.639
11/25/2013  12:50:00       52.123       72.581        4.524       43.467       55.918       36.412     1889.376     3126.785     1325.853        0.717        0.317       89.357       30.713        0.118      337.144        8.920      869.627
11/25/2013  12:51:00       37.926       72.037      -10.799       40.828       37.240       31.132     1666.925     1386.784      969.180        0.538        0.201       81.411       28.042        0.119      337.133        8.901      869.620
11/25/2013  12:52:00      112.562       71.995        0.424       38.388       32.216       27.416     1473.672     1037.886      751.655        1.056        0.163      133.617       16.185        0.015      336.983        8.651      869.596
11/25/2013  12:53:00       84.848       91.186        1.928       56.218       31.878       30.509     3160.426     1016.193      930.815        1.031        0.255      124.556       19.370        0.024      337.113        8.868      869.578
11/25/2013  12:54:00       64.042       33.696        4.965       30.994       26.380       19.940      960.632      695.918      397.601        0.366        0.103       72.365       15.782        0.048      337.210        9.030      869.578
11/25/2013  12:55:00       54.181       54.770        3.710       47.814       39.344       26.505     2286.188     1547.969      702.516        0.524        0.227       77.041       24.076        0.098      337.218        9.043      869.564
11/25/2013  12:56:00      117.650       60.056       -3.023       37.371       34.583       28.868     1396.557     1195.979      833.364        1.044        0.171      132.091       13.577        0.011      337.062        8.782      869.569
11/25/2013  12:57:00       77.211       50.780        8.106       47.466       28.021       24.820     2253.065      785.153      616.013        0.613        0.183       92.412       13.318        0.021      337.241        9.083      869.563
11/25/2013  12:58:00      100.033       80.099       15.856       50.760       29.022       30.982     2576.565      842.305      959.909        1.053        0.219      128.150       18.889        0.022      337.179        8.978      869.554
11/25/2013  12:59:00       71.649       46.999        8.280       40.167       32.424       28.625     1613.355     1051.344      819.385        0.545        0.174       85.688       11.481        0.018      337.231        9.065      869.547
11/25/2013  13:00:00       57.476       53.591        8.299       66.627       35.979       25.195     4439.188     1294.512      634.774        0.631        0.318       78.584       15.701        0.040      337.337        9.244      869.520
11/25/2013  13:01:00       62.492      107.784       59.773       65.156       40.033       56.662     4245.319     1602.616     3210.629        1.408        0.453      124.589       49.694        0.159      337.466        9.458      869.502
11/25/2013  13:02:00       70.807       72.530       68.482       82.708       70.066       53.807     6840.685     4909.218     2895.185        1.480        0.732      101.362       45.626        0.203      337.459        9.446      869.493
11/25/2013  13:03:00       62.133      -85.762       11.239       52.212       63.458       43.354     2726.112     4026.966     1879.555        0.999        0.432      105.904       46.625        0.194      337.342        9.252      869.489
11/25/2013  13:04:00       17.182       21.371       39.582       23.894       29.612       35.522      570.922      876.880     1261.795        0.251        0.135       27.422       19.959        0.530      337.757        9.946      869.479
11/25/2013  13:05:00       13.732       18.842       39.644       29.904       42.610       23.949      894.250     1815.647      573.568        0.270        0.164       23.315       14.178        0.370      337.763        9.957      869.478
11/25/2013  13:06:00       79.127       43.363       45.952       66.979       70.446       51.261     4486.160     4962.623     2627.681        1.116        0.604       90.230       44.870        0.247      337.505        9.525      869.476
11/25/2013  13:07:00       88.150      146.974      124.916       63.285       59.474       53.023     4004.970     3537.201     2811.455        2.766        0.518      171.382       39.678        0.054      337.308        9.193      869.467
11/25/2013  13:08:00       41.831       64.582       77.892       41.940       56.891       36.833     1758.950     3236.559     1356.660        0.917        0.318       76.946       37.690        0.240      337.511        9.534      869.483
11/25/2013  13:09:00       53.718       18.405       20.939       28.622       45.515       23.650      819.207     2071.643      559.330        0.356        0.173       56.783       25.804        0.207      337.308        9.194      869.483
11/25/2013  13:10:00        7.408       44.058        0.320       18.556       49.232       17.749      344.313     2423.800      315.040        0.254        0.154       44.677       21.236        0.226      337.295        9.172      869.478
11/25/2013  13:11:00      -17.862       93.585      -17.183       16.907       40.756       15.048      285.847     1661.039      226.451        0.577        0.109       95.274       12.813        0.018      337.229        9.062      869.479
11/25/2013  13:12:00       44.263       53.151       -4.918       27.603       40.414       26.961      761.921     1633.269      726.894        0.396        0.156       69.168       22.150        0.103      337.403        9.353      869.469
11/25/2013  13:13:00       32.913       93.756        0.973       40.775       88.519       39.710     1662.624     7835.649     1576.852        1.047        0.554       99.365       45.972        0.214      337.403        9.354      869.459
11/25/2013  13:14:00      -25.035       96.624      -14.229       28.344       36.091       23.385      803.404     1302.575      546.860        0.641        0.133       99.815       13.918        0.019      337.185        8.986      869.461
11/25/2013  13:15:00       19.831       60.800        0.886       36.230       29.839       29.498     1312.637      890.373      870.158        0.358        0.154       63.952       21.256        0.110      337.517        9.543      869.465
11/25/2013  13:16:00       64.384       61.839       16.113       53.208       33.324       34.199     2831.141     1110.480     1169.577        0.667        0.256       89.271       26.495        0.088      337.461        9.449      869.461
11/25/2013  13:17:00       84.823       63.986        3.286       52.031       39.726       37.306     2707.183     1578.132     1391.700        0.849        0.284      106.250       23.891        0.051      337.529        9.565      869.458
11/25/2013  13:18:00      115.496       96.478        8.127       56.988       44.084       32.360     3247.633     1943.385     1047.174        1.447        0.312      150.490       29.791        0.039      337.330        9.232      869.464
11/25/2013  13:19:00      138.037       61.296       25.238       50.225       37.739       45.394     2522.570     1424.249     2060.632        1.473        0.300      151.034       37.256        0.061      337.476        9.477      869.472
11/25/2013  13:20:00       91.180       83.156        1.042       53.406       50.973       35.972     2852.206     2598.206     1294.014        1.099        0.337      123.405       26.833        0.047      337.498        9.514      869.471
11/25/2013  13:21:00      106.340       72.074       15.942       42.239       27.173       31.090     1784.133      738.345      966.617        1.012        0.174      128.463       16.951        0.017      337.390        9.333      869.453
11/25/2013  13:22:00       65.531       53.619       26.154       63.135       52.834       42.217     3985.987     2791.380     1782.242        0.820        0.428       84.671       34.862        0.170      337.704        9.858      869.440
11/25/2013  13:23:00       97.552       81.576       53.342       54.948       50.499       46.302     3019.303     2550.177     2143.912        1.336        0.386      127.166       29.278        0.053      337.626        9.727      869.430
11/25/2013  13:24:00       31.246       19.003        6.305       42.546       32.978       29.363     1810.173     1087.523      862.190        0.257        0.188       36.570       18.907        0.267      337.561        9.619      869.409
11/25/2013  13:25:00       71.066       49.039       -2.758       43.620       35.764       30.028     1902.677     1279.072      901.693        0.577        0.204       86.344       21.760        0.064      337.666        9.794      869.379
11/25/2013  13:26:00       64.708       45.852        7.888       46.314       32.650       32.381     2144.975     1065.992     1048.522        0.530        0.213       79.306       22.678        0.082      337.618        9.715      869.363
11/25/2013  13:27:00       25.816       62.964        2.750       38.501       35.360       29.309     1482.365     1250.355      859.001        0.411        0.180       68.051       22.354        0.108      337.663        9.788      869.360
11/25/2013  13:28:00       13.168       23.897       -4.178       21.440       36.140       18.634      459.693     1306.134      347.232        0.144        0.106       27.285       11.183        0.168      337.658        9.782      869.358
11/25/2013  13:29:00       83.329       59.416       22.856       30.915       19.256       23.170      955.725      370.776      536.844        0.643        0.093      102.343        2.542        0.001      337.630        9.732      869.366
11/25/2013  13:30:00       76.715       69.380       26.296       53.161       42.574       46.003     2826.070     1812.569     2116.259        0.907        0.338      103.434       23.011        0.049      337.745        9.926      869.370
11/25/2013  13:31:00      122.451       51.802       32.550       56.450       57.029       43.907     3186.636     3252.279     1927.786        1.355        0.418      132.958       23.419        0.031      337.599        9.681      869.378
11/25/2013  13:32:00       85.283       55.327       38.717       66.220       49.509       45.293     4385.132     2451.188     2051.431        1.036        0.444      101.657       46.359        0.208      337.737        9.913      869.364
11/25/2013  13:33:00       99.683       74.143       44.298       69.444       62.938       48.307     4822.433     3961.246     2333.550        1.425        0.556      124.234       47.303        0.145      337.646        9.760      869.370
11/25/2013  13:34:00       80.346       65.771       10.377       62.735       33.210       37.092     3935.743     1102.889     1375.780        0.865        0.321      103.833       15.706        0.023      337.632        9.737      869.374
11/25/2013  13:35:00       82.004       70.535       12.794       34.664       32.046       25.414     1201.615     1026.963      645.894        0.737        0.144      108.166       13.703        0.016      337.764        9.959      869.366
11/25/2013  13:36:00       56.313       30.913       35.967       49.915       53.010       35.002     2491.528     2810.108     1225.108        0.597        0.326       64.239       26.897        0.175      338.020       10.390      869.354
11/25/2013  13:37:00       64.921       67.987       83.263       50.233       73.010       50.289     2523.351     5330.502     2529.027        1.307        0.519       94.005       51.783        0.303      337.815       10.045      869.351
11/25/2013  13:38:00       13.425       31.254       40.783       32.034       41.768       37.539     1026.204     1744.562     1409.161        0.350        0.209       34.015        9.792        0.083      338.097       10.516      869.350
11/25/2013  13:39:00      -12.745       58.296       72.685       28.844       41.907       43.368      831.975     1756.172     1880.788        0.666        0.223       59.673       36.200        0.368      338.068       10.469      869.342
11/25/2013  13:40:00       87.221       91.310       67.215       72.866       44.587       51.551     5309.495     1987.999     2657.505        1.521        0.498      126.274       51.543        0.167      337.743        9.922      869.326
11/25/2013  13:41:00      143.506       67.287       58.264       75.170       53.598       45.549     5650.544     2872.793     2074.705        1.955        0.530      158.497       28.327        0.032      337.707        9.862      869.332
11/25/2013  13:42:00      102.029       73.586       58.657       51.974       48.928       44.874     2701.330     2393.918     2013.679        1.319        0.355      125.797       33.518        0.071      337.735        9.910      869.347
11/25/2013  13:43:00       51.699       29.759       67.000       47.188       65.256       54.754     2226.710     4258.317     2998.035        0.876        0.474       59.652       54.977        0.849      337.806       10.029      869.349
11/25/2013  13:44:00       77.551       46.474       33.793       71.910       55.208       37.090     5171.030     3047.893     1375.677        0.945        0.480       90.411       34.316        0.144      337.814       10.042      869.335
11/25/2013  13:45:00       97.402       71.023       24.721       56.187       34.003       35.597     3156.951     1156.209     1267.149        1.036        0.279      120.546       21.213        0.031      337.704        9.859      869.322
11/25/2013  13:46:00       55.342       12.524       13.978       59.070       47.536       33.082     3489.299     2259.662     1094.437        0.513        0.342       56.741       33.920        0.357      337.981       10.323      869.322
11/25/2013  13:47:00       32.003       27.791       47.943       47.138       50.680       33.609     2221.945     2568.487     1129.540        0.501        0.296       42.385       31.259        0.544      338.061       10.457      869.326
11/25/2013  13:48:00       43.316       62.613       28.257       36.898       29.619       33.159     1361.480      877.265     1099.513        0.497        0.167       76.136       18.705        0.060      337.923       10.225      869.327
11/25/2013  13:49:00      145.259       66.018       26.739       67.700       46.062       52.944     4583.356     2121.712     2803.015        1.784        0.475      159.558       24.534        0.024      337.726        9.894      869.334
11/25/2013  13:50:00      138.936       69.567       19.649       59.561       37.173       34.406     3547.530     1381.806     1183.779        1.532        0.306      155.379       26.440        0.029      337.695        9.842      869.329
11/25/2013  13:51:00       63.359       46.647        5.945       29.828       35.017       24.671      889.713     1226.207      608.664        0.447        0.136       78.678       10.872        0.019      337.820       10.052      869.321
11/25/2013  13:52:00       43.447       74.533       39.425       50.582       43.137       53.712     2558.511     1860.763     2884.940        0.815        0.365       86.272       32.345        0.141      337.905       10.196      869.319
11/25/2013  13:53:00       68.587       10.431        1.417       50.312       39.514       27.089     2531.344     1561.360      733.832        0.482        0.241       69.376       13.404        0.037      337.710        9.868      869.309
11/25/2013  13:54:00       -9.562       42.046        0.719       27.547       28.197       17.860      758.864      795.092      318.982        0.187        0.094       43.120       13.529        0.098      337.970       10.304      869.290
11/25/2013  13:55:00       33.470       47.918       14.619       39.712       49.287       29.916     1577.033     2429.231      894.969        0.426        0.245       58.450       29.461        0.254      337.992       10.342      869.260
11/25/2013  13:56:00       26.627       91.885       -8.663       34.709       40.530       28.657     1204.711     1642.674      821.233        0.645        0.183       95.665       22.282        0.054      337.771        9.971      869.245
11/25/2013  13:57:00      -43.384       74.084      -17.801       23.744       23.425       17.866      563.781      548.707      319.202        0.456        0.072       85.853       13.419        0.024      337.988       10.334      869.233
11/25/2013  13:58:00      -49.499        6.343        1.184       26.129       40.619       24.142      682.706     1649.915      582.812        0.270        0.146       49.903        3.898        0.006      338.157       10.618      869.234
11/25/2013  13:59:00       39.959       34.116        5.633       37.990       27.060       21.534     1443.212      732.243      463.727        0.272        0.132       52.542        9.790        0.035      338.111       10.541      869.248
11/25/2013  14:00:00       53.307       25.232       11.977       42.377       32.129       24.599     1795.779     1032.283      605.116        0.353        0.172       58.977       17.416        0.087      338.076       10.483      869.252
11/25/2013  14:01:00      182.975       95.150       34.942      103.428       72.201       48.430    10697.356     5212.984     2345.422        3.100        0.913      206.237       29.990        0.021      337.982       10.322      869.252
11/25/2013  14:02:00      139.600       83.296       42.404       52.551       44.456       43.676     2761.617     1976.318     1907.612        1.743        0.332      162.563       25.879        0.025      337.998       10.351      869.251
11/25/2013  14:03:00       51.556       36.205       46.010       47.158       43.391       24.402     2223.858     1882.782      595.478        0.539        0.235       62.998       15.685        0.062      338.209       10.705      869.252
11/25/2013  14:04:00       91.995       48.607        3.982       44.415       65.873       37.616     1972.697     4339.276     1414.996        0.928        0.386      104.047       14.526        0.019      338.034       10.411      869.250
11/25/2013  14:05:00      116.695       70.167       28.714       46.777       31.380       33.993     2188.125      984.692     1155.493        1.185        0.216      136.166       14.498        0.011      338.008       10.366      869.255
11/25/2013  14:06:00       49.289       36.079        6.538       44.210       38.505       33.507     1954.563     1482.632     1122.734        0.417        0.228       61.083       21.024        0.118      338.185       10.665      869.245
11/25/2013  14:07:00       84.357       80.672        9.113       60.600       36.836       36.755     3672.421     1356.880     1350.949        1.004        0.319      116.723       37.612        0.104      337.995       10.345      869.243
11/25/2013  14:08:00       58.663       70.142       -1.783       50.670       48.030       39.076     2567.462     2306.862     1526.926        0.738        0.320       91.440       35.760        0.153      337.957       10.282      869.234
11/25/2013  14:09:00       28.946       77.706        8.835       36.108       54.354       27.677     1303.793     2954.381      766.025        0.599        0.251       82.922       29.874        0.130      338.008       10.367      869.225
11/25/2013  14:10:00      129.830       62.404       11.175       62.376       46.595       30.191     3890.744     2171.087      911.481        1.392        0.349      144.049       15.148        0.011      337.938       10.249      869.227
11/25/2013  14:11:00       98.909       57.022       47.897       93.355       65.236       66.211     8715.248     4255.737     4383.945        1.634        0.868      114.169       54.331        0.226      338.083       10.492      869.225
11/25/2013  14:12:00       60.501       76.457       23.787       48.467       43.225       33.673     2349.083     1868.381     1133.849        0.771        0.268       97.500       26.601        0.074      338.250       10.774      869.235
11/25/2013  14:13:00       80.524       74.147        5.002       46.321       32.108       30.696     2145.629     1030.901      942.275        0.806        0.206      109.462       17.153        0.025      338.128       10.568      869.235
11/25/2013  14:14:00      122.903       89.674       15.041       49.677       38.997       40.700     2467.762     1520.730     1656.524        1.451        0.282      152.140       23.177        0.023      337.961       10.288      869.231
11/25/2013  14:15:00       86.376       72.290        0.029       69.152       45.293       38.139     4781.943     2051.480     1454.557        1.049        0.414      112.635       33.471        0.088      338.088       10.502      869.230
11/25/2013  14:16:00       80.568       44.148       -2.947       39.149       26.150       25.986     1532.619      683.830      675.251        0.567        0.145       91.871       10.348        0.013      338.062       10.459      869.235
11/25/2013  14:17:00       63.623      112.905       90.362       91.727       66.043       79.615     8413.779     4361.645     6338.525        2.203        0.956      129.597       78.457        0.366      338.135       10.579      869.238
11/25/2013  14:18:00       68.221       98.808       86.604       33.266       49.545       38.059     1106.596     2454.732     1448.493        1.346        0.250      120.071       34.908        0.085      337.981       10.324      869.252
11/25/2013  14:19:00       40.823       18.693       10.375       19.495       21.390       28.412      380.046      457.528      807.228        0.188        0.082       44.899       16.619        0.137      337.941       10.255      869.250
11/25/2013  14:20:00       13.631       18.166        5.836       10.153        9.274       14.502      103.085       86.014      210.297        0.047        0.020       22.712        9.299        0.168      338.042       10.423      869.232
11/25/2013  14:21:00       54.961       83.232       90.787       71.039       76.785       57.039     5046.589     5896.005     3253.434        1.619        0.710       99.741       57.917        0.337      338.185       10.662      869.217
11/25/2013  14:22:00       45.913      123.556      124.955       47.532       48.921       32.044     2259.294     2393.225     1026.822        1.933        0.284      131.811       32.691        0.062      338.057       10.450      869.219
11/25/2013  14:23:00       68.363       88.521       84.192       63.727       54.739       45.196     4061.109     2996.410     2042.699        1.435        0.455      111.846       39.050        0.122      338.028       10.402      869.218
11/25/2013  14:24:00       51.925       61.119       60.322       44.468       36.973       31.172     1977.428     1367.003      971.667        0.719        0.216       80.198       24.330        0.092      338.161       10.624      869.221
11/25/2013  14:25:00       52.444       82.662       73.945       37.698       41.603       32.791     1421.147     1730.773     1075.235        0.964        0.211       97.894       27.769        0.080      338.264       10.798      869.222
11/25/2013  14:26:00       75.394       83.449       67.372       46.069       24.767       27.010     2122.332      613.421      729.514        1.033        0.173      112.464       13.613        0.015      338.086       10.500      869.228
11/25/2013  14:27:00       19.793       20.225       30.948       31.177       43.139       27.281      972.008     1861.011      744.235        0.267        0.179       28.299       20.876        0.544      338.287       10.836      869.217
11/25/2013  14:28:00       22.257       37.438        7.173       23.633       21.727       19.845      558.536      472.084      393.804        0.169        0.071       43.554       15.907        0.133      338.223       10.728      869.223
11/25/2013  14:29:00       21.374       15.728       29.866       43.193       44.274       29.911     1865.674     1960.199      894.644        0.316        0.236       26.538       30.647        1.334      338.406       11.035      869.217
11/25/2013  14:30:00       34.355       26.020       62.900       50.891       45.465       33.197     2589.885     2067.093     1102.048        0.579        0.288       43.097       29.855        0.480      338.528       11.241      869.206
11/25/2013  14:31:00       -7.088       13.937       43.975       32.168       43.061       26.664     1034.761     1854.229      710.958        0.289        0.180       15.636       24.385        2.432      338.616       11.388      869.189
11/25/2013  14:32:00       73.683       87.185       57.290       50.509       37.815       28.275     2551.172     1429.962      799.465        1.055        0.239      114.151       16.044        0.020      338.208       10.703      869.192
11/25/2013  14:33:00       30.618       41.271       37.791       48.260       41.429       42.055     2328.996     1716.394     1768.590        0.494        0.291       51.388       40.240        0.613      338.397       11.021      869.188
11/25/2013  14:34:00       -6.766        6.147       42.449       34.979       32.123       32.437     1223.497     1031.914     1052.137        0.260        0.165        9.141       25.451        7.752      338.578       11.324      869.185
11/25/2013  14:35:00       65.954       44.933       27.465       43.743       32.898       34.929     1913.450     1082.306     1220.042        0.567        0.211       79.806       28.537        0.128      338.375       10.982      869.183
11/25/2013  14:36:00       53.345       55.899        1.798       53.817       24.070       22.110     2896.287      579.389      488.862        0.497        0.198       77.268       19.111        0.061      338.207       10.701      869.192
11/25/2013  14:37:00      104.732       36.804       24.193       46.606       42.235       24.588     2172.091     1783.804      604.547        0.873        0.228      111.010       17.572        0.025      338.166       10.632      869.196
11/25/2013  14:38:00       36.784       47.046        5.744       40.560       26.992       21.630     1645.108      728.556      467.859        0.322        0.142       59.719       16.263        0.074      338.259       10.790      869.204
11/25/2013  14:39:00       46.806       40.075        4.094       22.442       22.722       24.289      503.659      516.272      589.947        0.271        0.080       61.618        9.912        0.026      338.230       10.741      869.205
11/25/2013  14:40:00        9.323        0.414        0.772       17.450       16.810       11.823      304.487      282.583      139.774        0.041        0.036        9.332        5.838        0.391      338.428       11.072      869.197
11/25/2013  14:41:00       41.411     -121.910      -18.095       49.547       56.411       20.918     2454.887     3182.194      437.566        1.149        0.304      128.751        9.227        0.005      338.375       10.984      869.191
11/25/2013  14:42:00       93.232      -93.244       -4.038       52.534       52.373       40.391     2759.809     2742.933     1631.403        1.227        0.357      131.858       29.193        0.049      338.478       11.156      869.195
11/25/2013  14:43:00       82.344     -107.790       -7.733       31.306       57.364       23.816      980.047     3290.643      567.218        1.165        0.242      135.644       24.512        0.033      338.229       10.738      869.200
11/25/2013  14:44:00       41.267       -0.041       24.534       55.737       37.990       23.254     3106.623     1443.275      540.733        0.370        0.255       41.267       19.353        0.220      338.436       11.086      869.213
11/25/2013  14:45:00       91.490       65.603        2.522       35.311       38.990       31.283     1246.843     1520.244      978.622        0.821        0.187      112.580       12.342        0.012      338.270       10.807      869.218
11/25/2013  14:46:00       55.662       27.129       12.334       28.480       24.995       20.568      811.096      624.737      423.058        0.292        0.093       61.922       11.987        0.037      338.304       10.866      869.220
11/25/2013  14:47:00       95.473       56.291       12.138       31.471       17.602       19.493      990.441      309.819      379.995        0.706        0.084      110.832        8.500        0.006      338.245       10.766      869.208
11/25/2013  14:48:00       20.781       47.838        3.641       34.299       28.586       19.013     1176.451      817.174      361.509        0.254        0.118       52.156       14.558        0.078      338.308       10.872      869.197
11/25/2013  14:49:00       34.378       45.334        2.786       25.023       25.407       19.406      626.148      645.527      376.578        0.245        0.082       56.894       16.324        0.082      338.357       10.954      869.196
11/25/2013  14:50:00       43.245       19.839       -4.325       26.372       25.942       21.074      695.468      672.999      444.097        0.205        0.091       47.579       14.255        0.090      338.382       10.997      869.201
11/25/2013  14:51:00       31.616       49.514       -4.275       30.840       45.236       21.278      951.115     2046.269      452.760        0.346        0.173       58.747       24.913        0.180      338.354       10.949      869.208
11/25/2013  14:52:00       34.457       10.341        0.899       16.559       18.652       18.837      274.196      347.910      354.849        0.114        0.049       35.975       11.146        0.096      338.444       11.099      869.214
11/25/2013  14:53:00       39.491       42.982       26.705       38.715       35.039       24.995     1498.849     1227.760      624.763        0.374        0.168       58.369       19.924        0.117      338.490       11.177      869.211
11/25/2013  14:54:00      -16.416       17.676       42.910       37.881       56.815       30.849     1434.945     3227.898      951.687        0.402        0.281       24.123       35.841        2.207      338.614       11.386      869.209
11/25/2013  14:55:00       48.746       28.292       67.823       58.227       71.490       39.568     3390.416     5110.784     1565.650        0.892        0.503       56.361       42.160        0.560      338.429       11.074      869.211
11/25/2013  14:56:00       49.596       38.543       32.965       29.874       34.199       26.416      892.455     1169.556      697.799        0.390        0.138       62.812       16.378        0.068      338.312       10.877      869.217
11/25/2013  14:57:00       28.282       49.086        0.176       27.919       14.116       12.974      779.448      199.271      168.333        0.218        0.057       56.651        4.096        0.005      338.271       10.809      869.220
11/25/2013  14:58:00       10.903       22.000       -7.112       13.541       20.904        7.295      183.369      436.981       53.223        0.066        0.034       24.553        3.733        0.023      338.352       10.945      869.215
11/25/2013  14:59:00       -0.511        6.440       -1.275        7.258        6.266        9.673       52.673       39.259       93.558        0.011        0.009        6.460        3.343        0.268      338.588       11.342      869.208
11/25/2013  15:00:00       -1.183       22.112       -8.070       12.029       17.744        9.622      144.701      314.855       92.585        0.055        0.028       22.143        6.533        0.087      338.403       11.031      869.199
11/25/2013  15:01:00        7.982       11.022        3.993       14.697       11.795       11.537      216.015      139.127      133.097        0.034        0.024       13.609        6.831        0.252      338.492       11.181      869.187
11/25/2013  15:02:00       22.014       58.049       -3.946       23.416       27.406       17.070      548.310      751.076      291.392        0.273        0.080       62.083       16.267        0.069      338.364       10.965      869.185
11/25/2013  15:03:00       17.677       48.282       -6.957       15.510       28.035       14.068      240.563      785.969      197.902        0.196        0.061       51.416       15.944        0.096      338.374       10.982      869.189
11/25/2013  15:04:00       14.904       42.083      -10.058       19.565       18.024       14.042      382.777      324.872      197.168        0.150        0.045       44.644       13.347        0.089      338.372       10.977      869.191
11/25/2013  15:05:00       61.627       30.022        4.713       28.857       15.989       18.787      832.745      255.659      352.969        0.308        0.072       68.551       11.177        0.027      338.346       10.934      869.195
11/25/2013  15:06:00       51.222       21.731        4.181       27.330       17.004       15.863      746.918      289.153      251.644        0.220        0.064       55.641       14.685        0.070      338.336       10.917      869.196
11/25/2013  15:07:00       46.829       25.559        5.062       29.363       26.528       19.767      862.177      703.719      390.730        0.241        0.098       53.350       13.327        0.062      338.454       11.116      869.195
11/25/2013  15:08:00       24.090      111.731      -23.178       23.637       25.738       12.373      558.718      662.428      153.090        0.749        0.069      114.298       10.963        0.009      338.363       10.964      869.189
11/25/2013  15:09:00       38.215       55.143       -7.150       17.428       60.262       18.347      303.728     3631.507      336.601        0.441        0.214       67.091       25.782        0.148      338.324       10.898      869.188
11/25/2013  15:10:00       23.859       10.820        0.714       26.046       15.288       19.872      678.390      233.712      394.878        0.100        0.065       26.198       11.946        0.208      338.408       11.038      869.185
11/25/2013  15:11:00       23.006       26.703       18.689       22.643       25.517       25.144      512.691      651.117      632.206        0.169        0.090       35.247       19.962        0.321      338.461       11.129      869.184
11/25/2013  15:12:00       44.290       12.420        3.620       35.235       36.987       15.832     1241.492     1368.067      250.648        0.249        0.143       45.998       14.837        0.104      338.433       11.081      869.184
11/25/2013  15:13:00       78.915       41.388       31.930       40.773       34.855       25.458     1662.463     1214.849      648.092        0.624        0.176       89.109       17.801        0.040      338.461       11.130      869.178
11/25/2013  15:14:00       87.700       19.230       43.960       54.458       36.406       34.912     2965.698     1325.363     1218.868        0.775        0.275       89.784       37.517        0.175      338.384       10.999      869.170
11/25/2013  15:15:00       63.706       42.389       36.858       36.126       27.483       25.470     1305.082      755.300      648.732        0.496        0.135       76.520       19.837        0.067      338.377       10.987      869.161
11/25/2013  15:16:00       27.654       16.525       15.467       31.203       30.700       16.905      973.596      942.471      285.776        0.174        0.110       32.215        9.669        0.090      338.470       11.143      869.157
11/25/2013  15:17:00       20.652       34.637       24.784       46.458       33.515       21.109     2158.310     1123.232      445.574        0.298        0.186       40.327        4.081        0.010      338.600       11.361      869.156
11/25/2013  15:18:00       47.708       22.189        4.808       33.445       34.204       23.596     1118.539     1169.940      556.783        0.282        0.142       52.616       20.377        0.150      338.479       11.158      869.158
11/25/2013  15:19:00        4.336       70.355       -2.058       19.539       30.719       20.953      381.776      943.626      439.049        0.337        0.088       70.488       14.544        0.043      338.398       11.022      869.163
11/25/2013  15:20:00       31.322       29.423        3.453       24.335       12.320       13.412      592.171      151.787      179.882        0.139        0.046       42.975       11.225        0.068      338.422       11.063      869.165
11/25/2013  15:21:00       29.097       -9.861      -10.033       27.113       21.073       13.764      735.104      444.078      189.448        0.121        0.068       30.723        6.631        0.047      338.536       11.254      869.166
11/25/2013  15:22:00       10.195       29.023       20.531       21.915       19.988       18.142      480.263      399.538      329.116        0.129        0.060       30.762       14.597        0.225      338.551       11.279      869.163
11/25/2013  15:23:00       34.420       36.556       17.956       11.767       12.445       19.384      138.454      154.872      375.741        0.176        0.033       50.211        7.880        0.025      338.581       11.330      869.167
11/25/2013  15:24:00       28.791       31.474       39.715       30.154       27.568       23.215      909.265      759.976      538.940        0.280        0.110       42.656       17.487        0.168      338.547       11.272      869.170
11/25/2013  15:25:00       80.688       34.848       21.714       49.803       40.271       32.645     2480.379     1621.777     1065.705        0.668        0.258       87.891       29.072        0.109      338.396       11.018      869.175
11/25/2013  15:26:00      106.039       63.369       30.088       53.082       51.642       33.747     2817.714     2666.914     1138.828        1.139        0.331      123.531       25.891        0.044      338.442       11.096      869.179
11/25/2013  15:27:00       26.862       21.145       61.335       40.953       72.586       42.195     1677.146     5268.737     1780.430        0.683        0.436       34.185       50.669        2.197      338.597       11.357      869.195
11/25/2013  15:28:00       29.279      -34.778        5.399       29.645       50.000       24.168      878.828     2500.029      584.079        0.303        0.198       45.462       20.362        0.201      338.617       11.390      869.209
11/25/2013  15:29:00       79.703     -117.918       -6.147       45.086       65.904       28.333     2032.783     4343.351      802.753        1.374        0.359      142.328       34.992        0.060      338.534       11.252      869.211
11/25/2013  15:30:00       63.208       -6.836       30.442       31.031       61.199       33.912      962.913     3745.260     1150.056        0.541        0.293       63.577       36.579        0.331      338.524       11.235      869.203
11/25/2013  15:31:00       65.681       49.730       56.022       58.852       39.872       31.452     3463.557     1589.744      989.235        0.798        0.302       82.383       34.281        0.173      338.491       11.177      869.200
11/25/2013  15:32:00       73.678       56.752       13.607       27.884       23.478       29.840      777.497      551.199      890.450        0.553        0.111       93.001       15.324        0.027      338.382       10.993      869.196
11/25/2013  15:33:00       83.070       63.902       20.161       19.508       19.556       20.898      380.568      382.447      436.709        0.629        0.060      104.804       13.412        0.016      338.430       11.077      869.189
11/25/2013  15:34:00       52.314       53.436       38.438       32.334       29.589       33.727     1045.503      875.489     1137.485        0.506        0.153       74.781       20.996        0.079      338.480       11.161      869.187
11/25/2013  15:35:00       28.400       63.190       58.458       34.904       23.984       28.523     1218.280      575.243      813.546        0.541        0.130       69.279       22.986        0.110      338.522       11.231      869.183
11/25/2013  15:36:00       11.259       38.113       67.497       31.399       49.503       26.506      985.866     2450.565      702.595        0.514        0.207       39.742       26.225        0.435      338.567       11.306      869.172
11/25/2013  15:37:00       41.290       50.594       55.748       37.425       35.447       37.627     1400.663     1256.457     1415.813        0.572        0.204       65.304       29.853        0.209      338.458       11.124      869.169
11/25/2013  15:38:00       48.884       34.337       23.453       19.654       20.138       23.979      386.261      405.530      574.995        0.274        0.068       59.739        9.359        0.025      338.450       11.110      869.177
11/25/2013  15:39:00       55.518      -23.341        9.064       24.181       24.832       13.726      584.732      616.630      188.398        0.255        0.069       60.225       16.799        0.078      338.460       11.125      869.177
11/25/2013  15:40:00        8.851       13.184       28.768       21.666       19.401       20.811      469.427      376.400      433.114        0.118        0.064       15.880       19.792        1.553      338.636       11.422      869.173
11/25/2013  15:41:00       47.295       -5.285        3.652       23.150       13.710       14.574      535.939      187.976      212.416        0.161        0.047       47.589       11.959        0.063      338.519       11.225      869.171
11/25/2013  15:42:00       -0.239        1.121       -6.847       17.245       16.467        7.639      297.381      271.166       58.351        0.034        0.031        1.147        5.927       26.718      338.563       11.299      869.174
11/25/2013  15:43:00        5.897       -0.959       -6.914       19.466       11.622        6.082      378.931      135.077       36.989        0.032        0.028        5.974        6.203        1.078      338.572       11.314      869.165
11/25/2013  15:44:00       -3.669       -7.900        2.242        8.522        9.981        7.754       72.628       99.628       60.126        0.016        0.012        8.710        5.210        0.358      338.849       11.781      869.162
11/25/2013  15:45:00       40.015        3.869        4.091       22.762       17.376       12.038      518.126      301.928      144.924        0.130        0.048       40.202        9.730        0.059      338.542       11.265      869.154
11/25/2013  15:46:00       75.838       37.744       13.426       38.035       28.951       20.515     1446.669      838.176      420.868        0.503        0.135       84.711        8.563        0.010      338.509       11.208      869.150
11/25/2013  15:47:00       85.557       39.217       20.510       36.965       22.600       18.753     1366.420      510.746      351.660        0.575        0.111       94.117       12.953        0.019      338.448       11.106      869.153
11/25/2013  15:48:00       41.051       13.924        8.011       17.864       12.796        9.364      319.134      163.742       87.687        0.126        0.029       43.348        5.383        0.015      338.470       11.143      869.157
11/25/2013  15:49:00       47.463       22.201        6.966       15.688        9.855        9.591      246.107       97.112       91.983        0.161        0.022       52.399        4.984        0.009      338.524       11.235      869.165
11/25/2013  15:50:00       46.551       19.431       13.213       18.113       13.822       15.211      328.086      191.042      231.367        0.173        0.038       50.444       10.544        0.044      338.511       11.211      869.161
11/25/2013  15:51:00       57.504       32.218       22.568       21.121       18.300       17.034      446.093      334.896      290.168        0.296        0.054       65.915       10.822        0.027      338.456       11.121      869.164
11/25/2013  15:52:00       76.809       47.516       19.584       23.586       22.779       21.180      556.290      518.899      448.590        0.503        0.076       90.319       15.018        0.028      338.473       11.149      869.168
11/25/2013  15:53:00       78.699       44.709       12.880       27.339       24.470       25.913      747.441      598.764      671.507        0.519        0.101       90.512       17.047        0.035      338.408       11.039      869.173
11/25/2013  15:54:00       79.298       42.956        9.622       18.574       21.259       16.160      344.999      451.960      261.147        0.464        0.053       90.185       12.238        0.018      338.430       11.075      869.178
11/25/2013  15:55:00       78.530       49.082        9.463       16.915       13.980       16.445      286.128      195.451      270.435        0.471        0.038       92.607       11.319        0.015      338.440       11.091      869.187
11/25/2013  15:56:00       69.212       24.720        9.863       17.578       18.038       13.437      308.973      325.377      180.542        0.316        0.041       73.494        7.919        0.012      338.486       11.170      869.191
11/25/2013  15:57:00       21.661       10.541       17.472       21.370       18.578       15.956      456.681      345.156      254.608        0.097        0.053       24.090        7.020        0.085      338.567       11.307      869.180
11/25/2013  15:58:00       61.394       52.437       25.874       24.921       15.701       15.065      621.053      246.511      226.960        0.414        0.055       80.740       10.087        0.016      338.461       11.129      869.164
11/25/2013  15:59:00       56.964       42.217       24.632       23.680       14.546       21.275      560.738      211.587      452.622        0.343        0.061       70.902        7.714        0.012      338.461       11.128      869.159
11/25/2013  16:00:00       68.201       30.527       19.968       27.837       20.921       22.317      774.885      437.682      498.070        0.385        0.086       74.721       15.577        0.043      338.461       11.127      869.156
11/25/2013  16:01:00       49.386       11.777       19.081       26.224       21.585       21.113      687.676      465.921      445.772        0.227        0.080       50.771       18.738        0.136      338.419       11.058      869.148
11/25/2013  16:02:00       28.024       19.297       17.821       10.790       17.767       13.565      116.417      315.673      184.016        0.105        0.031       34.025       11.413        0.113      338.458       11.123      869.132
11/25/2013  16:03:00       63.254       32.211       22.396       28.459       19.319       19.967      809.935      373.230      398.691        0.356        0.079       70.983       16.422        0.054      338.461       11.128      869.123
11/25/2013  16:04:00       45.672       22.942       18.476       26.382       18.319       17.128      696.014      335.602      293.385        0.214        0.066       51.110       15.294        0.090      338.443       11.098      869.110
11/25/2013  16:05:00       35.849       22.760       15.123       16.461       19.328       16.306      270.953      373.553      265.873        0.147        0.046       42.464       10.001        0.055      338.412       11.047      869.104
11/25/2013  16:06:00       31.604       37.809       41.450       24.856       18.800       16.294      617.810      353.426      265.499        0.269        0.062       49.278       13.063        0.070      338.451       11.111      869.096
11/25/2013  16:07:00       14.382       27.069       37.757       18.482       20.916       15.256      341.591      437.476      232.756        0.169        0.051       30.653       11.884        0.150      338.479       11.158      869.086
11/25/2013  16:08:00       62.088       40.722       22.976       26.778       20.618       19.285      717.081      425.083      371.917        0.378        0.076       74.251       15.819        0.045      338.381       10.994      869.089
11/25/2013  16:09:00       36.960       22.714       23.541       21.578       19.749       14.676      465.611      390.009      215.385        0.175        0.054       43.381        8.462        0.038      338.335       10.917      869.097
11/25/2013  16:10:00       35.092       13.558       15.900       17.587       16.217        9.295      309.318      262.989       86.397        0.116        0.033       37.620        3.685        0.010      338.350       10.942      869.103
11/25/2013  16:11:00       66.497       30.625       10.717       13.577        9.773       12.893      184.343       95.513      166.217        0.296        0.022       73.211        3.510        0.002      338.420       11.059      869.111
11/25/2013  16:12:00       45.902       24.801       22.033       13.646       11.857       10.817      186.212      140.595      117.017        0.183        0.022       52.173        7.251        0.019      338.344       10.932      869.125
11/25/2013  16:13:00       44.685        9.879       21.868       26.102       26.027       20.972      681.311      677.396      439.830        0.219        0.090       45.764       19.967        0.190      338.324       10.899      869.124
11/25/2013  16:14:00       39.339       38.619       33.073       23.883       18.968       20.888      570.417      359.782      436.325        0.275        0.068       55.127       17.709        0.103      338.369       10.975      869.124
11/25/2013  16:15:00       47.630       34.431       49.660       36.954       26.838       24.128     1365.562      720.291      582.143        0.429        0.133       58.772       24.108        0.168      338.361       10.960      869.124
11/25/2013  16:16:00       26.936       39.964       54.076       28.811       26.080       17.401      830.059      680.145      302.793        0.353        0.091       48.194       16.440        0.116      338.347       10.936      869.117
11/25/2013  16:17:00       32.609       45.137       57.100       37.319       30.202       21.459     1392.695      912.136      460.477        0.456        0.138       55.684       23.018        0.171      338.341       10.926      869.108
11/25/2013  16:18:00       71.860        6.733       27.047       35.488       21.961       23.371     1259.376      482.305      546.210        0.411        0.114       72.175       18.586        0.066      338.307       10.870      869.099
11/25/2013  16:19:00       45.889       23.299       38.683       34.677       22.276       18.795     1202.484      496.235      353.238        0.310        0.103       51.465       19.183        0.139      338.298       10.854      869.089
11/25/2013  16:20:00       46.063       21.429       40.252       31.000       27.477       20.148      961.021      755.005      405.927        0.316        0.106       50.804       18.336        0.130      338.307       10.869      869.087
11/25/2013  16:21:00       43.146       23.716       31.468       22.369       21.280       19.275      500.380      452.835      371.524        0.237        0.066       49.235       16.321        0.110      338.261       10.791      869.096
11/25/2013  16:22:00       75.502       10.658       26.979       39.282       26.533       21.846     1543.073      704.000      477.241        0.463        0.136       76.250       16.974        0.050      338.315       10.881      869.100
11/25/2013  16:23:00       41.047       30.426       45.365       36.712       31.975       24.784     1347.752     1022.380      614.253        0.383        0.149       51.094       25.972        0.258      338.284       10.832      869.103
11/25/2013  16:24:00       24.142       47.698       60.337       29.249       23.572       16.693      855.483      555.659      278.671        0.409        0.084       53.459       15.690        0.086      338.288       10.838      869.102
11/25/2013  16:25:00       40.976       47.317       59.525       31.073       24.660       18.160      965.509      608.137      329.782        0.468        0.095       62.593       16.475        0.069      338.213       10.712      869.098
11/25/2013  16:26:00       61.195       23.486       35.404       43.793       27.832       26.880     1917.796      774.639      722.530        0.448        0.171       65.547       22.227        0.115      338.216       10.717      869.088
11/25/2013  16:27:00       68.577       27.373       35.652       39.580       27.758       27.595     1566.581      770.504      761.507        0.491        0.155       73.838       24.916        0.114      338.239       10.756      869.088
11/25/2013  16:28:00       82.274       43.815       38.415       45.428       35.638       31.599     2063.697     1270.076      998.508        0.725        0.217       93.213       28.798        0.095      338.258       10.788      869.092
11/25/2013  16:29:00       37.094       50.896       59.756       34.708       34.090       24.917     1204.620     1162.108      620.861        0.526        0.149       62.979       22.356        0.126      338.269       10.806      869.092
11/25/2013  16:30:00       75.834       58.024       77.136       65.549       47.092       33.056     4296.637     2217.643     1092.728        1.134        0.380       95.486       34.844        0.133      338.283       10.828      869.085
11/25/2013  16:31:00      100.511       65.309       32.015       50.146       45.853       44.149     2514.632     2102.460     1949.148        1.098        0.328      119.865       34.861        0.085      338.131       10.576      869.071
11/25/2013  16:32:00       61.786       65.610       70.354       53.668       45.839       39.087     2880.230     2101.242     1527.813        0.979        0.325       90.123       29.920        0.110      338.156       10.616      869.081
11/25/2013  16:33:00       51.931       62.553       77.850       43.239       37.155       27.306     1869.618     1380.500      745.591        0.833        0.200       81.300       23.706        0.085      338.120       10.555      869.081
11/25/2013  16:34:00       45.838       62.734       64.279       28.173       24.463       16.000      793.713      598.419      256.005        0.591        0.082       77.696        9.834        0.016      338.108       10.535      869.084
11/25/2013  16:35:00       45.814       59.830       65.099       32.067       28.091       15.182     1028.314      789.105      230.489        0.598        0.102       75.356       13.550        0.032      338.075       10.480      869.094
11/25/2013  16:36:00       27.097       30.717       45.618       29.918       28.023       16.436      895.067      785.278      270.145        0.285        0.098       40.961        8.964        0.048      338.015       10.380      869.095
11/25/2013  16:37:00       47.217       32.965       31.517       33.560       27.308       24.055     1126.291      745.738      578.642        0.338        0.123       57.586       17.334        0.091      338.039       10.419      869.095
11/25/2013  16:38:00       73.184       22.597       35.295       34.361       24.051       29.936     1180.673      578.453      896.161        0.488        0.133       76.594       14.121        0.034      338.046       10.431      869.088
11/25/2013  16:39:00       53.498       13.600       24.441       38.224       28.694       28.002     1461.104      823.374      784.090        0.336        0.153       55.200       21.816        0.156      337.980       10.320      869.083
11/25/2013  16:40:00       65.516       27.108       21.461       34.392       31.534       29.139     1182.780      994.421      849.069        0.426        0.151       70.903       19.467        0.075      338.015       10.379      869.076
11/25/2013  16:41:00       78.150       42.839       31.199       47.157       29.981       26.417     2223.777      898.879      697.837        0.637        0.191       89.121       22.158        0.062      338.003       10.359      869.087
11/25/2013  16:42:00      101.352       39.657       28.968       40.025       28.639       31.062     1602.009      820.179      964.860        0.803        0.169      108.834       22.249        0.042      337.951       10.272      869.089
11/25/2013  16:43:00       67.002       28.581        9.006       27.517       21.028       26.752      757.188      442.193      715.654        0.365        0.096       72.844       17.340        0.057      337.841       10.088      869.101
11/25/2013  16:44:00       51.040       36.500       24.577       31.353       20.781       19.411      983.040      431.841      376.775        0.317        0.090       62.748       12.967        0.043      337.788       10.000      869.093
11/25/2013  16:45:00       75.516       33.302       12.973       24.529       19.737       22.212      601.651      389.556      493.378        0.423        0.074       82.533       11.377        0.019      337.845       10.095      869.106
11/25/2013  16:46:00       74.122       41.243       10.787       22.424       21.360       18.171      502.817      456.249      330.189        0.430        0.064       84.824       13.138        0.024      337.782        9.989      869.095
11/25/2013  16:47:00      101.843       49.027        4.050       19.816       20.192       15.841      392.664      407.707      250.936        0.692        0.053      113.029       12.811        0.013      337.780        9.985      869.101
11/25/2013  16:48:00      101.343       51.035       21.205       28.911       24.578       23.886      835.864      604.072      570.555        0.767        0.101      113.468       14.051        0.015      337.784        9.992      869.100
11/25/2013  16:49:00       92.148       48.283       22.115       38.118       27.011       21.411     1453.003      729.575      458.448        0.698        0.132      104.031        6.226        0.004      337.705        9.861      869.114
11/25/2013  16:50:00       94.366       54.475       17.567       33.192       23.804       21.772     1101.697      566.629      474.011        0.716        0.107      108.961       16.861        0.024      337.671        9.803      869.121
11/25/2013  16:51:00      122.304       51.252       28.602       54.523       48.975       43.386     2972.806     2398.513     1882.340        1.283        0.363      132.609       34.213        0.067      337.716        9.878      869.133
11/25/2013  16:52:00       87.286       26.627        4.546       35.460       32.312       23.975     1257.441     1044.067      574.796        0.561        0.144       91.257       10.133        0.012      337.636        9.745      869.141
11/25/2013  16:53:00       76.317       44.692        6.435       39.230       38.714       20.554     1538.970     1498.771      422.449        0.566        0.173       88.440       15.734        0.032      337.571        9.635      869.144
11/25/2013  16:54:00       88.004       40.102       19.707       45.314       24.962       25.790     2053.333      623.090      665.140        0.654        0.167       96.710       23.924        0.061      337.533        9.572      869.147
11/25/2013  16:55:00       98.085       43.294       12.164       32.592       32.774       19.828     1062.229     1074.105      393.162        0.709        0.126      107.215       11.002        0.011      337.561        9.618      869.162
11/25/2013  16:56:00       77.947       43.650       19.339       35.984       23.342       22.585     1294.820      544.866      510.080        0.535        0.117       89.337       19.596        0.048      337.449        9.429      869.162
11/25/2013  16:57:00      101.502       49.724       11.651       34.119       28.265       26.806     1164.100      798.903      718.581        0.780        0.134      113.027       12.199        0.012      337.483        9.487      869.169
11/25/2013  16:58:00      105.778       70.317       26.450       38.034       30.934       21.709     1446.564      956.924      471.286        0.985        0.144      127.018       16.652        0.017      337.460        9.448      869.166
11/25/2013  16:59:00      123.519       69.987       25.251       49.813       32.866       28.104     2481.367     1080.191      789.809        1.257        0.218      141.969       17.809        0.016      337.454        9.437      869.182
11/25/2013  17:00:00      103.759       52.111       21.758       62.098       39.574       29.266     3856.218     1566.141      856.502        1.012        0.314      116.109       14.710        0.016      337.363        9.286      869.184
11/25/2013  17:01:00       76.596       67.811       51.213       49.087       37.397       32.535     2409.542     1398.524     1058.495        0.898        0.243      102.300       16.561        0.026      337.252        9.102      869.203
11/25/2013  17:02:00      135.166       55.541        9.916       49.143       29.278       32.317     2415.052      857.182     1044.379        1.288        0.216      146.132       22.826        0.024      337.307        9.192      869.212
11/25/2013  17:03:00      133.478       65.387       24.455       40.318       44.032       33.376     1625.550     1938.823     1113.941        1.368        0.234      148.633       13.575        0.008      337.279        9.146      869.218
11/25/2013  17:04:00      119.153       39.664       11.001       53.842       40.501       35.520     2898.955     1640.325     1261.649        1.085        0.290      125.581       21.227        0.029      337.269        9.129      869.238
11/25/2013  17:05:00       55.562       10.431       26.218       62.531       35.394       29.772     3910.168     1252.737      886.375        0.497        0.302       56.532       30.264        0.287      337.201        9.015      869.248
11/25/2013  17:06:00       54.098       49.796       49.894       47.874       29.787       22.889     2291.938      887.267      523.925        0.580        0.185       73.527       14.457        0.039      337.115        8.870      869.267
11/25/2013  17:07:00       92.401       28.514       19.393       47.017       32.705       37.061     2210.574     1069.618     1373.552        0.719        0.233       96.701       25.347        0.069      337.255        9.105      869.272
11/25/2013  17:08:00      118.730       36.409        7.102       38.373       28.866       22.966     1472.468      833.270      527.458        0.915        0.142      124.187       17.151        0.019      337.227        9.059      869.275
11/25/2013  17:09:00      108.508       23.453       29.886       69.416       36.606       40.054     4818.519     1340.007     1604.296        1.049        0.388      111.014       36.895        0.110      337.256        9.108      869.289
11/25/2013  17:10:00       89.272       17.482       29.737       67.166       49.527       39.625     4511.253     2452.971     1570.141        0.885        0.427       90.968       37.221        0.167      337.264        9.122      869.288
11/25/2013  17:11:00       71.247       45.188       52.958       34.762       32.862       25.978     1208.364     1079.902      674.872        0.644        0.148       84.369       16.973        0.040      337.185        8.989      869.297
11/25/2013  17:12:00       83.577       33.112       25.249       33.053       28.829       29.199     1092.505      831.130      852.600        0.575        0.139       89.897       20.289        0.051      337.233        9.069      869.299
11/25/2013  17:13:00       88.965       26.215       18.101       47.960       34.853       31.986     2300.200     1214.728     1023.124        0.673        0.227       92.747       24.182        0.068      337.219        9.045      869.306
11/25/2013  17:14:00       82.066       32.776       10.876       41.554       36.083       25.039     1726.750     1301.985      626.953        0.579        0.183       88.369       21.867        0.061      337.180        8.980      869.321
11/25/2013  17:15:00       66.068       30.799       35.375       43.295       31.715       27.036     1874.466     1005.821      730.938        0.509        0.181       72.894       22.706        0.097      337.271        9.133      869.337
11/25/2013  17:16:00       52.197       15.630       35.189       36.263       32.231       20.922     1315.007     1038.853      437.729        0.350        0.140       54.487       22.680        0.173      337.238        9.078      869.359
11/25/2013  17:17:00       53.092       37.730       45.387       31.819       24.978       24.775     1012.480      623.884      613.825        0.428        0.113       65.133       21.272        0.107      337.212        9.035      869.377
11/25/2013  17:18:00       77.333       29.487       34.857       33.410       25.680       23.758     1116.230      659.438      564.445        0.520        0.117       82.764       17.745        0.046      337.226        9.057      869.386
11/25/2013  17:19:00       85.073        3.032       24.874       49.227       34.166       29.884     2423.292     1167.322      893.047        0.617        0.224       85.127       24.903        0.086      337.248        9.095      869.390
11/25/2013  17:20:00       84.114       38.807       26.247       39.427       31.945       25.725     1554.496     1020.460      661.785        0.625        0.162       92.635       23.091        0.062      337.199        9.011      869.406
11/25/2013  17:21:00       99.674       34.661       16.656       32.751       24.114       28.775     1072.620      581.485      828.010        0.695        0.124      105.528       20.441        0.038      337.196        9.006      869.425
11/25/2013  17:22:00       90.962       35.869        4.206       28.117       21.581       16.367      790.541      465.730      267.886        0.555        0.076       97.779       10.154        0.011      337.106        8.855      869.432
11/25/2013  17:23:00       48.577       32.950       19.287       16.069       11.978       14.443      258.217      143.476      208.608        0.221        0.031       58.698       10.315        0.031      337.030        8.727      869.441
11/25/2013  17:24:00       45.651       32.552       10.934       15.192       12.703        9.683      230.785      161.377       93.756        0.187        0.024       56.068        6.296        0.013      337.042        8.748      869.453
11/25/2013  17:25:00       59.281       47.542        5.952       24.856       16.855       19.011      617.812      284.082      361.435        0.354        0.063       75.990       12.985        0.029      337.053        8.767      869.462
11/25/2013  17:26:00       54.930       55.500        7.230       32.603       21.684       18.365     1062.971      470.205      337.284        0.401        0.094       78.086       14.826        0.036      337.113        8.868      869.476
11/25/2013  17:27:00       56.594       46.617        7.648       25.124       19.333        9.903      631.231      373.769       98.070        0.327        0.055       73.322        3.007        0.002      337.093        8.834      869.476
11/25/2013  17:28:00       51.768       39.253       11.500       16.297       13.202       11.370      265.590      174.292      129.267        0.246        0.028       64.967        7.471        0.013      337.051        8.764      869.493
11/25/2013  17:29:00       57.176       33.372       11.107       18.825       11.002       12.376      354.386      121.046      153.155        0.257        0.031       66.203        9.875        0.022      337.081        8.814      869.512
11/25/2013  17:30:00       49.494       27.008        7.990       11.175       12.655       11.724      124.881      160.147      137.458        0.183        0.021       56.384        8.703        0.024      337.005        8.685      869.525
11/25/2013  17:31:00       67.960       35.025       10.918       20.539       12.327       11.191      421.844      151.956      125.247        0.333        0.035       76.455       10.955        0.021      337.028        8.727      869.532
11/25/2013  17:32:00       31.542       33.479        3.338       16.799       15.374       13.099      282.204      236.370      171.576        0.141        0.035       45.998       11.864        0.067      336.887        8.491      869.540
11/25/2013  17:33:00       17.886       38.994       -7.886       17.605       17.587       13.649      309.925      309.288      186.283        0.135        0.040       42.901       12.503        0.085      336.958        8.609      869.546
11/25/2013  17:34:00       17.562       60.072      -10.866       12.367       14.684        8.585      152.937      215.620       73.698        0.224        0.022       62.587        3.355        0.003      337.016        8.704      869.547
11/25/2013  17:35:00       20.781       87.563      -11.217       15.104       12.940        7.688      228.141      167.439       59.109        0.434        0.023       89.995        5.034        0.003      337.028        8.725      869.559
11/25/2013  17:36:00       13.135       84.823      -14.306       19.965       17.429        8.074      398.596      303.756       65.194        0.417        0.038       85.834        6.365        0.005      337.064        8.788      869.563
11/25/2013  17:37:00       18.811       76.391       -9.820       17.796       19.128        9.862      316.681      365.881       97.253        0.353        0.039       78.673       10.664        0.018      337.048        8.759      869.557
11/25/2013  17:38:00        6.878       90.947      -10.079       15.973       14.120        7.242      255.150      199.377       52.441        0.446        0.025       91.207        3.483        0.001      337.046        8.753      869.578
11/25/2013  17:39:00       21.729       72.881       -8.372       19.387       29.128       14.193      375.860      848.447      201.445        0.364        0.071       76.051       13.126        0.030      336.894        8.501      869.582
11/25/2013  17:40:00       23.326       70.368      -11.406       18.988       24.397       10.578      360.547      595.236      111.897        0.335        0.053       74.133       10.168        0.019      336.825        8.387      869.612
11/25/2013  17:41:00       25.522       61.131       -7.910       18.430       29.811       13.856      339.672      888.698      192.002        0.294        0.071       66.244       14.774        0.050      336.746        8.255      869.614
11/25/2013  17:42:00       11.140       34.168        2.607       22.692       32.660       18.193      514.908     1066.662      330.984        0.161        0.096       35.938       20.612        0.329      336.698        8.175      869.636
11/25/2013  17:43:00       14.593       42.686       -3.367       18.711       28.868       20.339      350.093      833.389      413.678        0.182        0.080       45.112       13.764        0.093      336.777        8.306      869.645
11/25/2013  17:44:00        5.807       85.796       -9.551       15.616       14.976        9.483      243.871      224.276       89.936        0.402        0.028       85.992        7.852        0.008      336.785        8.322      869.661
11/25/2013  17:45:00       11.660       86.906      -11.026       17.017       13.324        9.707      289.566      177.539       94.229        0.419        0.028       87.684        6.723        0.006      336.770        8.296      869.676
11/25/2013  17:46:00       22.862       71.328       -9.370       13.381       28.328       12.741      179.051      802.476      162.335        0.342        0.057       74.903       11.731        0.025      336.710        8.193      869.679
11/25/2013  17:47:00       26.501       92.845      -14.296       21.657       26.060       12.687      469.036      679.143      160.972        0.542        0.065       96.553       12.432        0.017      336.645        8.087      869.686
11/25/2013  17:48:00       13.167       86.585      -14.747       22.192       21.806       10.370      492.479      475.483      107.536        0.448        0.054       87.581        9.254        0.011      336.619        8.043      869.683
11/25/2013  17:49:00        9.065       55.715       -5.856       13.415       20.846       10.134      179.958      434.564      102.701        0.197        0.036       56.447        6.397        0.013      336.574        7.969      869.694
11/25/2013  17:50:00       -6.067       67.525       -8.340       17.185       16.462       12.741      295.315      271.005      162.323        0.270        0.036       67.797       11.098        0.027      336.531        7.896      869.698
11/25/2013  17:51:00      -16.760       63.256       -8.358       21.040       14.264       12.395      442.673      203.474      153.636        0.258        0.040       65.438        7.994        0.015      336.477        7.806      869.691
11/25/2013  17:52:00      -19.919       33.702       -4.638       22.299       20.105       11.816      497.232      404.219      139.621        0.130        0.052       39.148        6.079        0.024      336.404        7.683      869.696
11/25/2013  17:53:00      -14.899       67.050       -7.175       27.738       24.592       12.074      769.391      604.748      145.773        0.314        0.076       68.685        7.911        0.013      336.546        7.921      869.690
11/25/2013  17:54:00       17.610       96.487      -15.058       14.401       18.798        7.658      207.383      353.377       58.643        0.523        0.031       98.081        4.870        0.002      336.671        8.129      869.695
11/25/2013  17:55:00        9.914       90.200      -13.751       17.805       20.749       10.463      317.005      430.527      109.466        0.464        0.043       90.744        7.405        0.007      336.651        8.098      869.686
11/25/2013  17:56:00      -11.187       37.544      -10.492       21.436       33.609       13.999      459.523     1129.560      195.965        0.171        0.089       39.175       16.067        0.168      336.367        7.623      869.674
11/25/2013  17:57:00      -16.601       40.728       -5.186       32.291       25.338       13.819     1042.690      642.039      190.974        0.192        0.094       43.982        9.594        0.048      336.281        7.478      869.667
11/25/2013  17:58:00       -4.321      106.429      -12.417       15.879       16.490        9.289      252.151      271.905       86.290        0.606        0.031      106.517        2.751        0.001      336.544        7.919      869.660
11/25/2013  17:59:00       -1.661      103.644      -14.816       15.113       14.021        9.523      228.409      196.575       90.696        0.574        0.026      103.657        6.999        0.005      336.556        7.937      869.669
11/25/2013  18:00:00       -5.905      110.275      -16.644       19.202       17.271        9.283      368.735      298.285       86.175        0.661        0.038      110.433        7.361        0.004      336.579        7.975      869.657
11/25/2013  18:01:00      -13.686       94.816      -17.192       24.610       32.844       10.776      605.649     1078.738      116.116        0.564        0.090       95.798        8.182        0.007      336.590        7.995      869.667
11/25/2013  18:02:00       15.835      105.740      -13.226       34.181       20.613       14.385     1168.355      424.889      206.928        0.670        0.090      106.919       13.803        0.017      336.611        8.030      869.662
11/25/2013  18:03:00       23.820      107.404      -14.491       20.827       24.054       16.191      433.758      578.592      262.143        0.679        0.064      110.014       11.060        0.010      336.569        7.959      869.670
11/25/2013  18:04:00       54.406       59.294       -1.770       42.957       41.970       24.969     1845.308     1761.442      623.475        0.535        0.212       80.472       10.076        0.016      336.477        7.804      869.691
11/25/2013  18:05:00       83.436       64.268       -0.953       40.513       31.276       32.436     1641.280      978.170     1052.095        0.738        0.184      105.318       20.766        0.039      336.402        7.680      869.701
11/25/2013  18:06:00       59.193       58.413        9.681       42.514       23.381       27.066     1807.453      546.660      732.561        0.505        0.154       83.161       16.097        0.037      336.411        7.695      869.709
11/25/2013  18:07:00       56.598       74.607       -5.737       30.096       26.648       22.925      905.792      710.093      525.561        0.547        0.107       93.646       19.604        0.044      336.383        7.649      869.697
11/25/2013  18:08:00       68.079       59.019        8.587       42.497       27.489       25.826     1806.010      755.643      666.979        0.571        0.161       90.100       17.233        0.037      336.383        7.647      869.705
11/25/2013  18:09:00       45.326       58.851       -2.704       32.265       36.503       24.179     1041.007     1332.489      584.642        0.424        0.148       74.282       20.090        0.073      336.397        7.671      869.696
11/25/2013  18:10:00       32.972       60.044       -4.689       43.413       32.056       25.015     1884.683     1027.606      625.768        0.413        0.177       68.502       19.149        0.078      336.351        7.595      869.692
11/25/2013  18:11:00       60.148       65.436       -0.875       48.404       36.732       32.147     2342.938     1349.270     1033.407        0.631        0.236       88.880       25.122        0.080      336.397        7.672      869.687
11/25/2013  18:12:00      114.021       76.497       19.100       40.670       26.806       33.108     1654.010      718.537     1096.170        1.134        0.173      137.304       20.668        0.023      336.570        7.961      869.665
11/25/2013  18:13:00       84.190       68.908        8.270       38.805       30.174       32.179     1505.857      910.485     1035.520        0.768        0.173      108.794       24.354        0.050      336.470        7.793      869.664
11/25/2013  18:14:00       77.627       57.129        7.010       40.016       26.784       27.063     1601.306      717.399      732.407        0.619        0.153       96.383       20.457        0.045      336.400        7.675      869.668
11/25/2013  18:15:00       78.603       57.170       11.364       37.107       26.194       29.115     1376.921      686.114      847.666        0.624        0.146       97.195       21.248        0.048      336.369        7.625      869.671
11/25/2013  18:16:00       69.204       54.798       12.531       38.033       28.281       31.492     1446.482      799.789      991.746        0.559        0.162       88.272       23.207        0.069      336.371        7.628      869.691
11/25/2013  18:17:00       33.950       67.855       -3.702       30.246       36.122       22.444      914.829     1304.797      503.734        0.425        0.136       75.874       15.827        0.044      336.359        7.609      869.694
11/25/2013  18:18:00       16.360       79.631       -7.254       17.442       23.782       17.380      304.210      565.562      302.056        0.392        0.059       81.295       15.773        0.038      336.367        7.620      869.705
11/25/2013  18:19:00       25.988      100.291      -17.838       22.024       20.873       14.357      485.055      435.684      206.128        0.609        0.056      103.603       11.927        0.013      336.429        7.725      869.712
11/25/2013  18:20:00       24.327       80.235      -11.673       20.835       20.839       14.574      434.108      434.262      212.410        0.412        0.054       83.842       12.262        0.021      336.315        7.534      869.706
11/25/2013  18:21:00        9.758       97.117      -12.484       18.682       11.640        8.875      349.006      135.487       78.770        0.512        0.028       97.606        8.279        0.007      336.336        7.569      869.710
11/25/2013  18:22:00       -5.730       77.679       -9.182       16.928       14.212        8.426      286.569      201.977       71.000        0.336        0.028       77.890        7.563        0.009      336.370        7.625      869.711
11/25/2013  18:23:00      -18.038       97.189      -15.557       25.295       22.532       14.704      639.829      507.699      216.193        0.569        0.068       98.849       11.457        0.013      336.330        7.559      869.701
11/25/2013  18:24:00      -45.798       44.599       -3.380       38.592       47.487       18.270     1489.346     2254.976      333.795        0.409        0.204       63.926       18.974        0.088      335.893        6.829      869.703
11/25/2013  18:25:00      -59.798       32.574      -17.817       32.422       29.540       12.106     1051.211      872.612      146.559        0.351        0.104       68.095       13.800        0.041      335.651        6.428      869.701
11/25/2013  18:26:00      -47.871       -6.591      -17.845       10.571       13.115       11.887      111.736      171.991      141.307        0.154        0.021       48.323        6.214        0.017      335.317        5.868      869.703
11/25/2013  18:27:00      -43.653        2.871      -12.841       13.651       16.245        9.947      186.362      263.890       98.950        0.131        0.027       43.747       10.754        0.060      335.407        6.019      869.720
11/25/2013  18:28:00      -20.517       -1.128       -1.367       10.091        8.097       10.180      101.824       65.559      103.640        0.035        0.014       20.548        3.925        0.036      335.527        6.219      869.731
11/25/2013  18:29:00       -5.386       12.420       -3.853       28.689       24.886        8.358      823.034      619.332       69.861        0.085        0.076       13.538        4.637        0.117      335.789        6.655      869.746
11/25/2013  18:30:00        8.496       -3.429        8.652       12.973       25.569       12.149      168.308      653.760      147.607        0.056        0.048        9.162       12.550        1.876      335.981        6.976      869.772
11/25/2013  18:31:00       27.045        0.418        9.725       24.818       25.852       16.471      615.955      668.325      271.301        0.119        0.078       27.049       12.176        0.203      335.869        6.790      869.792
11/25/2013  18:32:00       57.178       24.857       11.637       26.864       21.979       20.356      721.699      483.070      414.349        0.282        0.081       62.347       15.988        0.066      335.933        6.895      869.812
11/25/2013  18:33:00       22.720       -6.144       17.233       24.206       21.343       14.938      585.910      455.506      223.139        0.106        0.063       23.536       13.030        0.306      335.861        6.778      869.832
11/25/2013  18:34:00       59.985       12.624       14.880       22.703       14.125       14.504      515.424      199.508      210.375        0.245        0.046       61.299       10.407        0.029      335.939        6.907      869.853
11/25/2013  18:35:00       28.639        3.694       15.912       31.071       17.634       20.351      965.392      310.973      414.143        0.139        0.085       28.876       13.521        0.219      335.916        6.869      869.857
11/25/2013  18:36:00       35.563       15.768       23.661       22.524       15.304       18.628      507.322      234.226      347.016        0.158        0.054       38.902        9.452        0.059      335.851        6.761      869.875
11/25/2013  18:37:00       35.370       24.835       19.590       28.084       24.235       19.636      788.733      587.346      385.574        0.201        0.088       43.218       14.289        0.109      335.933        6.896      869.891
11/25/2013  18:38:00       24.983        0.597       19.973       32.665       26.265       17.853     1066.997      689.852      318.716        0.155        0.104       24.990       22.020        0.776      335.866        6.786      869.900
11/25/2013  18:39:00        9.770       25.944       42.734       27.045       24.015       20.896      731.438      576.706      436.627        0.217        0.087       27.722       19.596        0.500      335.870        6.790      869.916
11/25/2013  18:40:00       20.294        8.472       28.048       23.544       15.780       11.208      554.334      249.017      125.621        0.110        0.046       21.991       11.922        0.294      335.906        6.852      869.920
11/25/2013  18:41:00       18.945        3.278       17.658       16.685        9.784        9.978      278.388       95.736       99.570        0.058        0.024       19.227        5.092        0.070      335.901        6.843      869.913
11/25/2013  18:42:00       25.412        5.377       10.497       12.231       14.539        8.913      149.586      211.394       79.444        0.061        0.022       25.974        8.543        0.108      335.873        6.796      869.910
11/25/2013  18:43:00       22.026       -1.944        9.990       12.945       13.158        8.857      167.580      173.133       78.448        0.050        0.021       22.112        5.056        0.052      335.837        6.737      869.902
11/25/2013  18:44:00       27.133        7.468        9.665       13.839       12.855        7.646      191.526      165.260       58.461        0.065        0.021       28.142        7.639        0.074      335.860        6.775      869.895
11/25/2013  18:45:00       28.168       17.920        6.299       16.945       12.033        9.018      287.140      144.782       81.320        0.083        0.026       33.386        7.672        0.053      335.835        6.733      869.883
11/25/2013  18:46:00       36.428       22.378        7.211       16.098       12.445        8.226      259.134      154.869       67.665        0.118        0.024       42.752        9.993        0.055      335.877        6.803      869.887
11/25/2013  18:47:00       36.798       19.014        6.467       12.541       15.854       10.136      157.272      251.348      102.739        0.113        0.026       41.420        8.100        0.038      335.950        6.925      869.888
11/25/2013  18:48:00       34.888       24.269        4.941       14.564        9.569       11.702      212.097       91.571      136.948        0.114        0.022       42.499        7.943        0.035      335.915        6.867      869.889
11/25/2013  18:49:00       17.015       26.199       -1.314       13.848       15.465       12.837      191.755      239.176      164.780        0.079        0.030       31.240       12.780        0.167      335.883        6.813      869.895
11/25/2013  18:50:00        5.406       69.723       -9.752       11.918       12.976       11.330      142.039      168.364      128.380        0.271        0.022       69.932        9.117        0.017      336.055        7.100      869.910
11/25/2013  18:51:00       10.300       37.444       -7.496       21.014       15.133        9.692      441.581      229.003       93.937        0.116        0.038       38.834        9.801        0.064      335.903        6.846      869.932
11/25/2013  18:52:00      -12.168       59.365       -6.900       19.028       15.284       10.202      362.079      233.611      104.072        0.221        0.035       60.599        6.251        0.011      335.905        6.850      869.936
11/25/2013  18:53:00      -13.374       52.825       -8.937       28.318       27.116       12.385      801.934      735.257      153.377        0.237        0.085       54.491        8.960        0.027      335.737        6.570      869.943
11/25/2013  18:54:00        1.623       64.386      -15.432       29.692       24.030       17.361      881.600      577.456      301.403        0.307        0.088       64.406       14.075        0.048      335.741        6.577      869.960
11/25/2013  18:55:00       -9.693       42.414      -12.821       27.846       44.000       23.165      775.427     1936.041      536.598        0.265        0.162       43.507       20.858        0.230      335.770        6.626      869.971
11/25/2013  18:56:00      -32.575       14.586       -4.481       28.143       28.765       13.793      792.023      827.443      190.256        0.155        0.090       35.691       12.445        0.122      335.299        5.841      869.960
11/25/2013  18:57:00      -16.472       43.279       -9.002       24.505       31.767       16.552      600.504     1009.150      273.956        0.205        0.094       46.308       14.829        0.103      335.552        6.263      869.956
11/25/2013  18:58:00      -22.844       68.473       -5.005       27.044       35.076       14.565      731.373     1230.336      212.125        0.370        0.109       72.183       11.494        0.025      335.591        6.326      869.959
11/25/2013  18:59:00      -17.117      101.537       -7.188       27.844       31.436       17.024      775.268      988.223      289.826        0.635        0.103      102.970       17.289        0.028      335.697        6.503      869.966
11/25/2013  19:00:00      -24.442       95.463       -9.732       30.127       37.713       15.053      907.647     1422.301      226.591        0.618        0.128       98.543       14.671        0.022      335.773        6.630      869.967
11/25/2013  19:01:00      -11.063      123.299      -15.445       17.385       18.628       10.633      302.248      346.991      113.062        0.816        0.038      123.794        8.844        0.005      335.734        6.566      869.971
11/25/2013  19:02:00        5.162      118.326      -19.014       25.477       22.125       14.407      649.101      489.534      207.567        0.787        0.067      118.438       11.301        0.009      335.802        6.678      869.991
11/25/2013  19:03:00       12.117       98.630      -15.105       21.307       32.016       14.698      453.979     1025.041      216.020        0.590        0.085       99.371       18.618        0.035      335.749        6.591      869.997
11/25/2013  19:04:00        4.304      123.105      -20.901       22.890       15.935       10.162      523.934      253.931      103.268        0.825        0.044      123.180       10.053        0.007      335.757        6.603      869.992
11/25/2013  19:05:00       18.593      119.695      -20.234       17.284       17.151        9.490      298.753      294.147       90.053        0.788        0.034      121.131        6.774        0.003      335.728        6.555      869.984
11/25/2013  19:06:00       34.715       99.482      -16.680       19.198       26.501       18.794      368.573      702.307      353.214        0.640        0.071      105.365       17.631        0.028      335.656        6.435      869.979
11/25/2013  19:07:00       31.093      101.401      -15.800       20.196       36.816       16.358      407.887     1355.427      267.598        0.676        0.102      106.061       16.128        0.023      335.668        6.455      869.965
11/25/2013  19:08:00       28.135      125.206       -8.631       30.433       39.281       25.173      926.174     1543.033      633.657        0.982        0.155      128.328       19.244        0.022      335.750        6.592      869.963
11/25/2013  19:09:00       32.309       80.484       -4.177       28.026       43.412       27.603      785.435     1884.590      761.944        0.548        0.172       86.727       20.595        0.056      335.680        6.476      869.961
11/25/2013  19:10:00       32.979       88.651       -8.814       28.291       39.791       25.689      800.353     1583.298      659.916        0.603        0.152       94.587       24.890        0.069      335.671        6.461      869.979
11/25/2013  19:11:00       27.226       63.288       -6.909       25.659       32.213       18.318      658.366     1037.696      335.552        0.341        0.102       68.896       18.421        0.071      335.614        6.364      869.981
11/25/2013  19:12:00       33.755       51.108        3.904       28.962       32.633       21.992      838.815     1064.882      483.644        0.308        0.119       61.249       21.411        0.122      335.586        6.319      869.985
11/25/2013  19:13:00       45.000       52.682        3.252       28.520       22.564       20.455      813.409      509.149      418.412        0.328        0.087       69.285       17.514        0.064      335.576        6.302      869.992
11/25/2013  19:14:00       42.965       42.558       -4.012       31.820       27.762       20.472     1012.535      770.743      419.107        0.294        0.110       60.475       17.352        0.082      335.587        6.323      870.011
11/25/2013  19:15:00       54.802       30.685        0.604       33.698       28.483       21.324     1135.543      811.260      454.726        0.317        0.120       62.808       17.899        0.081      335.576        6.301      870.019
11/25/2013  19:16:00       43.595       21.051        5.799       20.621       15.095       16.437      425.227      227.861      270.180        0.165        0.046       48.412        9.283        0.037      335.564        6.281      870.027
11/25/2013  19:17:00       33.139       12.733        9.686       14.633       13.287       10.808      214.119      176.537      116.804        0.093        0.025       35.501        9.717        0.075      335.451        6.093      870.040
11/25/2013  19:18:00       54.586       37.369        7.820       14.246       13.580       13.200      202.953      184.408      174.241        0.250        0.028       66.152        7.519        0.013      335.535        6.232      870.050
11/25/2013  19:19:00       51.883       32.995       16.024       11.150       11.624        9.941      124.320      135.123       98.823        0.220        0.018       61.486        3.322        0.003      335.529        6.224      870.048
11/25/2013  19:20:00       43.751       33.624        6.233       18.362       14.688       11.529      337.170      215.742      132.918        0.188        0.034       55.179        9.176        0.028      335.547        6.253      870.051
11/25/2013  19:21:00       67.820       40.658       -7.469       27.270       21.264       15.415      743.629      452.175      237.631        0.387        0.072       79.073       18.826        0.057      335.593        6.330      870.062
11/25/2013  19:22:00       64.337       36.966        8.316       16.796        8.683        9.543      282.118       75.393       91.071        0.301        0.022       74.200        4.260        0.003      335.601        6.343      870.087
11/25/2013  19:23:00       50.084       28.885        3.697       18.395        9.820        6.645      338.373       96.429       44.154        0.192        0.024       57.817        4.442        0.006      335.572        6.295      870.092
11/25/2013  19:24:00       29.065       47.008       -1.594       19.585       20.476       15.698      383.586      419.256      246.424        0.205        0.052       55.267       12.118        0.048      335.602        6.346      870.089
11/25/2013  19:25:00        8.573       87.242      -15.477       13.646       33.776        8.713      186.206     1140.838       75.916        0.466        0.070       87.662       12.398        0.020      335.590        6.326      870.081
11/25/2013  19:26:00        0.461      131.264      -16.426       11.401       18.363        7.288      129.983      337.204       53.119        0.901        0.026      131.265        5.975        0.002      335.549        6.258      870.083
11/25/2013  19:27:00       17.795      151.568      -23.986       14.719       22.672       10.123      216.635      514.016      102.476        1.235        0.042      152.609        9.519        0.004      335.537        6.236      870.079
11/25/2013  19:28:00       10.535      144.418      -20.980       13.909       18.167        9.479      193.461      330.031       89.846        1.101        0.031      144.802        4.592        0.001      335.514        6.199      870.071
11/25/2013  19:29:00        4.158      119.281      -17.247       16.314       22.389        9.913      266.154      501.275       98.268        0.770        0.043      119.353        8.990        0.006      335.539        6.240      870.069
11/25/2013  19:30:00       -8.107       97.260      -16.643       27.012       28.952       14.425      729.624      838.234      208.088        0.579        0.089       97.597       14.840        0.023      335.534        6.232      870.068
11/25/2013  19:31:00      -19.199       74.679       -3.832       22.212       46.679       17.385      493.373     2178.927      302.252        0.447        0.149       77.108       24.561        0.101      335.385        5.985      870.069
11/25/2013  19:32:00       -3.145       56.353       -4.054       30.183       43.219       15.876      910.991     1867.879      252.060        0.312        0.152       56.441       17.617        0.097      335.302        5.847      870.067
11/25/2013  19:33:00       -0.797      110.257      -16.288       25.829       16.170       11.171      667.128      261.478      124.797        0.674        0.053      110.260       10.992        0.010      335.516        6.202      870.062
11/25/2013  19:34:00       -2.623      109.081      -18.123       13.546       23.414        9.348      183.489      548.211       87.381        0.653        0.041      109.112        5.244        0.002      335.534        6.233      870.057
11/25/2013  19:35:00       -4.488       66.175      -12.383       36.550       35.604       12.775     1335.904     1267.621      163.190        0.366        0.138       66.327       16.702        0.063      335.410        6.025      870.048
11/25/2013  19:36:00      -38.347      -13.347       -4.869       10.635       14.069       10.162      113.093      197.927      103.276        0.104        0.021       40.603        6.206        0.023      334.746        4.924      870.049
11/25/2013  19:37:00      -29.989       -1.197       -9.216       23.362       31.926       16.210      545.763     1019.263      262.779        0.141        0.091       30.013       16.147        0.289      334.925        5.219      870.040
11/25/2013  19:38:00      -27.679        3.229       -5.404       33.465       33.818       14.631     1119.923     1143.658      214.067        0.164        0.124       27.867        5.890        0.045      334.927        5.222      870.043
11/25/2013  19:39:00      -66.902      -17.506      -10.373       12.959       12.710        9.082      167.946      161.550       82.486        0.265        0.021       69.154        6.385        0.009      334.477        4.476      870.051
11/25/2013  19:40:00      -56.094      -27.184       -7.818       16.105       15.111       11.668      259.381      228.334      136.153        0.229        0.031       62.333        7.526        0.015      334.607        4.692      870.060
11/25/2013  19:41:00      -66.291      -14.716      -16.761       14.271       11.726        7.609      203.658      137.505       57.896        0.265        0.020       67.905        3.199        0.002      334.559        4.613      870.063
11/25/2013  19:42:00      -82.752       -2.381      -14.032       14.902       14.241       13.474      222.077      202.801      181.545        0.383        0.030       82.786        8.375        0.010      334.382        4.317      870.052
11/25/2013  19:43:00      -75.688       -7.484      -15.218       19.602       17.487       15.889      384.249      305.808      252.459        0.348        0.047       76.057       12.500        0.027      334.371        4.298      870.046
11/25/2013  19:44:00      -73.743       -4.273      -16.313       15.427       12.352       10.459      238.003      152.570      109.386        0.311        0.025       73.867        8.052        0.012      334.351        4.265      870.049
11/25/2013  19:45:00      -76.337        8.478      -18.858       12.590       14.651        9.984      158.497      214.640       99.686        0.336        0.024       76.807        8.574        0.012      334.574        4.637      870.046
11/25/2013  19:46:00      -34.500       -2.383       -7.412       16.968       17.595        8.066      287.919      309.567       65.060        0.096        0.033       34.582        3.528        0.010      334.763        4.949      870.032
11/25/2013  19:47:00      -10.915       -7.838       -3.907       15.799       12.079        8.736      249.607      145.890       76.318        0.033        0.024       13.438        7.295        0.295      334.638        4.743      870.034
11/25/2013  19:48:00      -25.611       -5.961       -5.783       14.663       12.119        9.143      215.005      146.878       83.593        0.059        0.022       26.296        6.868        0.068      334.655        4.771      870.046
11/25/2013  19:49:00      -24.333        2.576       -5.808       23.240       22.242       19.230      540.119      494.692      369.791        0.102        0.070       24.468       14.184        0.336      334.841        5.081      870.061
11/25/2013  19:50:00      -32.176       -8.453       -2.702       20.330       15.719       11.551      413.294      247.078      133.428        0.095        0.040       33.268        9.834        0.087      334.729        4.894      870.060
11/25/2013  19:51:00      -48.780       -7.780      -10.924       17.963       19.457       16.582      322.675      378.557      274.956        0.177        0.049       49.396       13.424        0.074      334.685        4.819      870.058
11/25/2013  19:52:00      -76.911       -6.174      -11.796       15.794       10.536        9.012      249.442      111.016       81.212        0.327        0.022       77.158        5.458        0.005      334.257        4.110      870.065
11/25/2013  19:53:00      -98.809        0.370      -14.783       16.643       12.625       10.378      276.981      159.391      107.708        0.526        0.027       98.810        5.723        0.003      334.249        4.098      870.056
11/25/2013  19:54:00      -85.067       -4.580      -13.215       16.933       15.540       11.427      286.741      241.496      130.585        0.405        0.033       85.190        9.760        0.013      334.250        4.099      870.048
11/25/2013  19:55:00      -99.514       -4.215      -17.710       15.682       15.934       13.251      245.921      253.886      175.591        0.545        0.034       99.604       10.908        0.012      334.121        3.886      870.033
11/25/2013  19:56:00      -71.392        1.051      -18.312       19.980       13.246       12.435      399.207      175.455      154.622        0.308        0.036       71.400        8.764        0.015      334.156        3.943      870.023
11/25/2013  19:57:00      -49.452       10.920      -11.158       15.958       24.436       13.223      254.652      597.134      174.861        0.186        0.051       50.644       13.271        0.069      334.465        4.456      870.010
11/25/2013  19:58:00      -55.850        6.505      -10.805       13.348       17.941       11.166      178.174      321.875      124.675        0.195        0.031       56.227        7.823        0.019      334.225        4.056      870.005
11/25/2013  19:59:00      -78.341       -7.296      -11.273       19.272       29.798       16.457      371.404      887.892      270.818        0.392        0.077       78.680        9.369        0.014      334.221        4.052      870.021
11/25/2013  20:00:00      -90.685      -17.087      -19.689       19.209       19.438       14.025      368.999      377.828      196.713        0.492        0.047       92.281        9.105        0.010      334.037        3.746      870.036
11/25/2013  20:01:00     -111.967      -10.706      -18.713       35.137       26.566       19.564     1234.621      705.777      382.731        0.766        0.116      112.478       11.045        0.010      333.931        3.571      870.045
11/25/2013  20:02:00     -102.543      -18.211      -14.525       23.533       16.582       15.792      553.798      274.952      249.393        0.607        0.054      104.148        6.733        0.004      333.962        3.622      870.060
11/25/2013  20:03:00     -107.777       -7.914      -19.010       25.961       20.930       14.050      673.990      438.049      197.400        0.667        0.065      108.067        9.976        0.009      334.004        3.691      870.078
11/25/2013  20:04:00      -94.768       -1.778      -18.626       17.862       17.666       10.797      319.059      312.091      116.570        0.504        0.037       94.785        6.107        0.004      334.010        3.702      870.069
11/25/2013  20:05:00      -68.150       -6.226      -17.751       19.005       16.875       10.129      361.201      284.758      102.593        0.287        0.037       68.434        9.501        0.019      334.175        3.976      870.060
11/25/2013  20:06:00      -69.548      -18.055      -15.273       12.591       12.133       10.091      158.529      147.207      101.831        0.290        0.020       71.853        7.151        0.010      334.179        3.980      870.055
11/25/2013  20:07:00      -54.563      -18.930      -10.950       15.585       17.717        9.328      242.901      313.875       87.014        0.205        0.032       57.753        9.823        0.029      334.084        3.825      870.039
11/25/2013  20:08:00      -63.873      -14.841      -13.960       13.509       14.153       11.063      182.506      200.304      122.400        0.250        0.025       65.575        6.146        0.009      334.047        3.763      870.045
11/25/2013  20:09:00      -72.329      -12.630      -12.141       14.952       13.975       13.810      223.575      195.307      190.718        0.307        0.030       73.423        9.622        0.017      334.059        3.781      870.044
11/25/2013  20:10:00      -99.775       -5.930      -17.753       18.017       13.560       14.276      324.596      183.861      203.796        0.551        0.036       99.951        9.169        0.008      333.999        3.683      870.042
11/25/2013  20:11:00      -85.120      -18.126      -12.378       16.969       16.098       13.928      287.955      259.149      193.979        0.423        0.037       87.029        9.128        0.011      334.027        3.730      870.046
11/25/2013  20:12:00      -84.180      -29.130      -16.081       11.925       12.663        9.161      142.201      160.344       83.918        0.429        0.019       89.078        5.524        0.004      334.027        3.731      870.042
11/25/2013  20:13:00      -73.389      -41.588      -14.833       16.580       14.508       11.575      274.899      210.493      133.992        0.398        0.031       84.353        9.096        0.012      333.987        3.662      870.050
11/25/2013  20:14:00      -97.045      -35.637      -17.556        9.044        8.111        6.514       81.786       65.789       42.429        0.559        0.010      103.381        3.834        0.001      333.979        3.648      870.063
11/25/2013  20:15:00      -94.497      -26.266      -19.134       10.108        9.508        7.983      102.170       90.397       63.731        0.512        0.013       98.080        5.522        0.003      334.086        3.826      870.069
11/25/2013  20:16:00      -96.702      -22.119      -22.671       14.223       10.502        8.784      202.294      110.295       77.151        0.537        0.019       99.200        7.267        0.005      334.015        3.708      870.075
11/25/2013  20:17:00      -76.740      -35.452      -12.880       18.987       22.277       18.863      360.514      496.275      355.796        0.426        0.061       84.533       11.404        0.018      334.006        3.694      870.063
11/25/2013  20:18:00      -53.030      -60.476      -18.400       23.373       21.131       13.201      546.275      446.533      174.263        0.399        0.058       80.434        8.713        0.012      334.025        3.725      870.057
11/25/2013  20:19:00     -113.327      -12.114      -13.111       28.047       18.950       17.175      786.624      359.098      294.969        0.730        0.072      113.973       16.935        0.022      333.950        3.601      870.040
11/25/2013  20:20:00     -113.698       -1.634      -17.868       24.950       20.474       18.371      622.480      419.185      337.510        0.731        0.069      113.710       14.813        0.017      333.884        3.492      870.020
11/25/2013  20:21:00     -106.772       10.670      -19.752       24.628       18.712       13.348      606.531      350.144      178.158        0.652        0.057      107.304        7.872        0.005      333.959        3.615      870.003
11/25/2013  20:22:00      -76.142       -1.627      -20.493       15.561       16.500       11.040      242.151      272.241      121.885        0.343        0.032       76.159        7.929        0.011      334.009        3.701      870.002
11/25/2013  20:23:00      -82.770      -15.449      -14.948       14.390       19.004       10.404      207.085      361.142      108.249        0.399        0.034       84.200        6.487        0.006      333.986        3.663      870.000
11/25/2013  20:24:00      -86.212      -20.846      -10.852       24.889       18.143       14.667      619.441      329.173      215.130        0.457        0.058       88.696       13.326        0.023      333.939        3.584      870.010
11/25/2013  20:25:00     -125.653      -12.093      -15.620       39.377       16.284       15.964     1550.569      265.176      254.843        0.912        0.104      126.234       14.853        0.014      333.892        3.503      870.018
11/25/2013  20:26:00      -90.864      -28.617      -13.250       19.321       21.536       17.281      373.304      463.793      298.640        0.519        0.057       95.264       11.088        0.014      333.864        3.458      870.015
11/25/2013  20:27:00      -88.706       -6.188      -23.474       20.778       34.485       17.730      431.714     1189.240      314.361        0.520        0.097       88.922        9.539        0.012      333.923        3.556      870.013
11/25/2013  20:28:00      -72.164      -32.347      -12.183       25.055       19.802       15.439      627.766      392.116      238.349        0.383        0.063       79.082       13.504        0.029      333.932        3.573      870.026
11/25/2013  20:29:00      -76.758      -37.593       -9.730       16.841       20.629       19.595      283.607      425.558      383.974        0.425        0.055       85.469       10.626        0.015      333.948        3.599      870.023
11/25/2013  20:30:00      -77.848      -20.281      -12.623       21.353       16.202       11.455      455.932      262.506      131.209        0.374        0.042       80.447        6.752        0.007      333.959        3.619      870.030
11/25/2013  20:31:00     -114.040      -14.019      -13.999       17.303       17.682       12.746      299.379      312.665      162.448        0.709        0.039      114.898        7.380        0.004      333.899        3.517      870.026
11/25/2013  20:32:00     -104.390      -11.850      -22.522       20.825       11.415        7.688      433.662      130.301       59.106        0.608        0.031      105.060        4.202        0.002      333.920        3.553      870.033
11/25/2013  20:33:00      -75.091      -31.629      -18.097       12.040       16.698       10.286      144.951      278.837      105.794        0.375        0.026       81.480        5.253        0.004      333.961        3.620      870.039
11/25/2013  20:34:00      -85.632      -12.461      -18.325        9.961        9.205        9.104       99.227       84.732       82.884        0.405        0.013       86.534        5.544        0.004      333.952        3.605      870.046
11/25/2013  20:35:00      -92.067       -6.834      -16.464       11.697       14.602        9.490      136.827      213.226       90.069        0.462        0.022       92.320        6.629        0.005      334.004        3.691      870.056
11/25/2013  20:36:00      -82.284      -22.235      -12.009       18.233       19.517       10.333      332.450      380.918      106.763        0.411        0.041       85.236        3.477        0.002      333.951        3.604      870.068
11/25/2013  20:37:00      -76.122      -35.321      -11.481       18.636       22.268       13.528      347.304      495.861      183.011        0.410        0.051       83.917       10.357        0.015      333.951        3.604      870.080
11/25/2013  20:38:00      -86.590      -39.846      -22.809       23.825       20.309       15.312      567.620      412.463      234.444        0.541        0.061       95.318        7.945        0.007      333.963        3.624      870.089
11/25/2013  20:39:00      -77.646      -38.302      -17.808       23.298       18.320       13.482      542.779      335.605      181.758        0.444        0.053       86.579        8.925        0.011      333.891        3.503      870.107
11/25/2013  20:40:00      -70.930      -59.848      -10.826       18.025       19.031       12.276      324.883      362.160      150.699        0.478        0.042       92.806        6.972        0.006      333.892        3.505      870.125
11/25/2013  20:41:00      -82.865      -42.566      -14.383       23.884       21.028       15.886      570.446      442.162      252.361        0.507        0.063       93.158       15.180        0.027      333.867        3.464      870.144
11/25/2013  20:42:00     -107.556      -24.937      -15.181       25.826       17.791       11.364      666.967      316.517      129.144        0.677        0.056      110.409        6.963        0.004      333.828        3.399      870.147
11/25/2013  20:43:00     -106.856      -38.772      -11.784       16.582       21.386       12.479      274.961      457.340      155.726        0.697        0.044      113.672        3.365        0.001      333.818        3.383      870.156
11/25/2013  20:44:00     -108.115      -29.942      -19.954       28.733       20.471       12.781      825.601      419.077      163.351        0.720        0.070      112.184        7.253        0.004      333.826        3.394      870.153
11/25/2013  20:45:00      -60.189      -50.942      -10.768       17.596       21.453       15.686      309.622      460.214      246.056        0.367        0.051       78.853       11.114        0.020      333.799        3.350      870.147
11/25/2013  20:46:00      -87.547      -27.563       -6.293       47.074       24.980       22.741     2215.943      624.005      517.159        0.591        0.168       91.783       22.924        0.062      333.767        3.297      870.136
11/25/2013  20:47:00     -111.236      -14.755      -12.613       29.108       19.991       18.332      847.289      399.634      336.075        0.717        0.079      112.210       17.648        0.025      333.769        3.301      870.140
11/25/2013  20:48:00     -102.027      -11.997      -17.848       29.316       23.735       12.892      859.424      563.347      166.199        0.623        0.079      102.730        7.270        0.005      333.818        3.383      870.131
11/25/2013  20:49:00      -91.564      -10.480      -17.761       33.588       18.864       14.076     1128.151      355.848      198.146        0.525        0.084       92.162       14.392        0.024      333.834        3.409      870.132
11/25/2013  20:50:00     -101.271       -8.745      -14.207       20.386       17.709       14.053      415.605      313.626      197.479        0.573        0.046      101.648        9.851        0.009      333.762        3.290      870.127
11/25/2013  20:51:00      -95.680       -9.177      -17.410       16.115       16.552       12.597      259.703      273.956      158.675        0.512        0.035       96.119        8.500        0.008      333.758        3.283      870.133
11/25/2013  20:52:00      -84.448      -21.132      -14.460       14.926       18.040       15.371      222.778      325.432      236.278        0.429        0.039       87.052        9.929        0.013      333.782        3.322      870.125
11/25/2013  20:53:00      -83.995      -34.622      -18.098       15.960       19.504       11.238      254.729      380.421      126.297        0.467        0.038       90.850        7.263        0.006      333.664        3.128      870.128
11/25/2013  20:54:00      -84.385      -16.668      -14.017       26.593       23.405       17.088      707.183      547.785      291.983        0.457        0.077       86.015       11.563        0.018      333.701        3.187      870.117
11/25/2013  20:55:00      -88.976      -21.283      -11.217       15.573       13.846       10.775      242.527      191.700      116.101        0.452        0.028       91.486        8.325        0.008      333.673        3.141      870.113
11/25/2013  20:56:00      -87.943      -17.452      -15.983       18.163       14.932       11.306      329.909      222.978      127.820        0.449        0.034       89.658       10.670        0.014      333.618        3.051      870.131
11/25/2013  20:57:00      -75.867      -24.228      -15.876       13.189       13.553       10.338      173.956      183.679      106.868        0.353        0.023       79.642        5.167        0.004      333.661        3.121      870.139
11/25/2013  20:58:00      -74.763      -16.407      -12.543       19.669       22.756       12.980      386.885      517.841      168.473        0.354        0.054       76.542        8.261        0.012      333.647        3.098      870.153
11/25/2013  20:59:00      -78.109       -4.719      -19.266       16.466       14.205       10.153      271.142      201.788      103.077        0.354        0.029       78.251        7.582        0.009      333.619        3.051      870.155
11/25/2013  21:00:00      -64.160      -23.351      -12.817       16.820       16.236       11.178      282.909      263.595      124.955        0.275        0.034       68.277        9.189        0.018      333.714        3.210      870.166
11/25/2013  21:01:00      -56.122      -29.881      -16.879       16.537       17.789       12.808      273.462      316.457      164.033        0.254        0.038       63.581        7.842        0.015      333.739        3.251      870.168
11/25/2013  21:02:00      -61.571      -32.173      -13.701       17.754       17.376        9.353      315.201      301.911       87.473        0.286        0.035       69.470        8.255        0.014      333.811        3.371      870.170
11/25/2013  21:03:00      -71.182      -14.222       -7.633       10.816       13.428       10.875      116.979      180.316      118.269        0.287        0.021       72.589        7.027        0.009      333.787        3.331      870.169
11/25/2013  21:04:00      -52.228      -19.663       -7.467       10.670       11.165       12.005      113.840      124.660      144.111        0.178        0.019       55.807        4.315        0.006      333.744        3.260      870.165
11/25/2013  21:05:00      -53.705      -26.509      -11.411       16.103       11.170        9.207      259.306      124.769       84.763        0.209        0.023       59.891        6.817        0.013      333.689        3.169      870.181
11/25/2013  21:06:00      -74.098      -23.746      -15.394       12.945        9.764        9.284      167.567       95.343       86.200        0.332        0.017       77.810        7.388        0.009      333.653        3.108      870.183
11/25/2013  21:07:00      -99.795      -36.791      -17.153       19.130        9.564        8.690      365.943       91.479       75.514        0.607        0.027      106.361        6.839        0.004      333.638        3.083      870.190
11/25/2013  21:08:00     -121.528      -25.988      -16.044       15.279       13.006       10.835      233.462      169.156      117.390        0.811        0.026      124.276        7.068        0.003      333.589        3.002      870.192
11/25/2013  21:09:00     -131.780      -43.455      -14.030       18.349       13.732       13.173      336.681      188.571      173.535        1.007        0.035      138.759       10.857        0.006      333.624        3.061      870.183
11/25/2013  21:10:00     -125.203      -55.870       -9.831       14.764       14.725       10.595      217.976      216.818      112.253        0.972        0.027      137.103        4.277        0.001      333.644        3.093      870.181
11/25/2013  21:11:00     -107.810      -37.299       -3.126       21.772       15.947       12.438      474.032      254.318      154.698        0.695        0.044      114.080       11.403        0.010      333.559        2.952      870.180
11/25/2013  21:12:00     -113.456      -32.997       -9.497       15.063       15.155       11.124      226.909      229.686      123.733        0.732        0.029      118.157        8.828        0.006      333.586        2.997      870.179
11/25/2013  21:13:00     -110.315      -49.982      -16.510        9.946        8.804        9.413       98.918       77.507       88.613        0.760        0.013      121.110        4.672        0.001      333.609        3.036      870.194
11/25/2013  21:14:00     -113.173      -31.125      -14.302        9.004       11.813        8.503       81.071      139.541       72.296        0.714        0.015      117.375        4.279        0.001      333.648        3.099      870.192
11/25/2013  21:15:00     -113.555      -28.351      -12.863       16.185       11.385       10.635      261.969      129.621      113.099        0.718        0.025      117.041        9.013        0.006      333.653        3.107      870.204
11/25/2013  21:16:00     -122.961      -42.779       -5.386       29.862       21.056       18.520      891.726      443.365      343.007        0.933        0.084      130.190       16.667        0.016      333.530        2.906      870.207
11/25/2013  21:17:00     -129.624      -32.627       -2.648       36.185       25.196       19.215     1309.380      634.832      369.212        1.009        0.116      133.667       19.126        0.020      333.521        2.889      870.203
11/25/2013  21:18:00     -133.540      -44.258       -5.003       21.857       23.469       14.753      477.722      550.779      217.648        1.053        0.062      140.683       12.870        0.008      333.500        2.856      870.202
11/25/2013  21:19:00     -150.112      -40.354      -15.767       16.137       14.105       11.877      260.414      198.940      141.059        1.251        0.030      155.442        6.437        0.002      333.462        2.790      870.193
11/25/2013  21:20:00     -145.208      -29.667      -19.111       25.791       21.898       14.574      665.163      479.531      212.397        1.184        0.068      148.207       11.100        0.006      333.337        2.586      870.189
11/25/2013  21:21:00     -144.744      -35.440      -15.563       20.002       30.047       21.600      400.087      902.846      466.577        1.211        0.088      149.019       12.650        0.007      333.293        2.513      870.204
11/25/2013  21:22:00     -142.648      -54.447       -4.810       29.711       29.192       20.243      882.735      852.149      409.779        1.274        0.107      152.686       16.815        0.012      333.278        2.488      870.193
11/25/2013  21:23:00     -156.059      -19.117       -4.615       31.003       27.339       19.938      961.181      747.431      397.524        1.342        0.105      157.226       16.558        0.011      333.319        2.556      870.190
11/25/2013  21:24:00     -147.288      -35.223       -8.659       35.897       23.848       18.565     1288.596      568.749      344.659        1.261        0.110      151.441       16.367        0.012      333.318        2.555      870.183
11/25/2013  21:25:00     -113.274      -35.034       -4.620       29.372       28.414       23.263      862.688      807.357      541.148        0.815        0.111      118.568       20.564        0.030      333.300        2.524      870.179
11/25/2013  21:26:00     -104.955      -44.515       -9.887       22.998       19.858       13.182      528.907      394.332      173.755        0.710        0.055      114.005       12.139        0.011      333.287        2.503      870.187
11/25/2013  21:27:00      -98.043      -19.984      -14.518       24.309       19.282       16.170      590.929      371.788      261.478        0.572        0.061      100.059       15.802        0.025      333.272        2.477      870.191
11/25/2013  21:28:00      -45.608      -26.128       -0.040       38.662       25.157       19.570     1494.729      632.892      382.976        0.264        0.126       52.562       21.018        0.160      333.273        2.480      870.196
11/25/2013  21:29:00      -56.533      -45.235       -3.370       25.512       27.567       17.503      650.884      759.943      306.339        0.349        0.086       72.403       12.273        0.029      333.310        2.540      870.208
11/25/2013  21:30:00      -93.465      -30.955      -10.814       19.251       27.554       13.513      370.593      759.206      182.604        0.556        0.066       98.458       10.982        0.012      333.341        2.593      870.211
11/25/2013  21:31:00      -74.977      -30.040       -5.838       28.816       23.610       15.392      830.349      557.424      236.919        0.409        0.081       80.771       13.698        0.029      333.309        2.540      870.221
11/25/2013  21:32:00      -94.508      -37.616      -15.665       19.457       20.540       15.043      378.558      421.899      226.293        0.581        0.051      101.719        7.499        0.005      333.289        2.505      870.232
11/25/2013  21:33:00      -99.630      -45.197      -18.944       17.788       20.775       12.741      316.430      431.591      162.322        0.662        0.046      109.402       10.437        0.009      333.335        2.582      870.231
11/25/2013  21:34:00      -80.242      -41.609       -9.925       26.270       28.366       19.481      690.117      804.623      379.492        0.507        0.094       90.389       17.195        0.036      333.415        2.714      870.234
11/25/2013  21:35:00      -51.251      -55.048      -15.264       25.758       26.150       17.441      663.500      683.798      304.194        0.377        0.083       75.213       13.739        0.033      333.403        2.695      870.245
11/25/2013  21:36:00      -82.471      -26.466      -11.404       33.533       28.425       18.761     1124.488      807.991      351.985        0.496        0.114       86.613       19.102        0.049      333.395        2.682      870.239
11/25/2013  21:37:00     -107.795      -22.516      -18.921       30.374       25.162       17.758      922.558      633.134      315.335        0.718        0.094      110.121       17.762        0.026      333.326        2.568      870.225
11/25/2013  21:38:00      -99.320      -25.342      -14.628       17.933       21.728       14.514      321.593      472.109      210.658        0.586        0.050      102.502        9.941        0.009      333.338        2.589      870.206
11/25/2013  21:39:00      -77.087      -31.710       -5.075       38.466       18.618       18.549     1479.631      346.623      344.048        0.457        0.109       83.354       19.792        0.056      333.365        2.632      870.205
11/25/2013  21:40:00      -73.903      -38.580       -5.423       45.210       22.554       20.574     2043.902      508.689      423.309        0.498        0.149       83.367       25.436        0.093      333.363        2.630      870.205
11/25/2013  21:41:00     -142.897      -59.931      -10.210       22.681       14.257       12.990      514.412      203.255      168.732        1.250        0.044      154.956        9.824        0.004      333.354        2.613      870.214
11/25/2013  21:42:00      -76.566      -59.069       -0.510       49.635       21.950       21.397     2463.647      481.813      457.821        0.638        0.170       96.703       18.916        0.038      333.324        2.563      870.204
11/25/2013  21:43:00       -3.909      -38.038       10.957       32.945       20.540       20.586     1085.348      421.881      423.786        0.176        0.097       38.239       13.764        0.130      333.435        2.748      870.211
11/25/2013  21:44:00      -72.666      -54.451       -0.118       33.467       33.558       19.943     1120.050     1126.162      397.704        0.544        0.132       90.803       15.237        0.028      333.422        2.725      870.219
11/25/2013  21:45:00      -87.635      -64.723       -2.246       52.265       28.161       28.080     2731.634      793.060      788.507        0.809        0.216      108.945       27.877        0.065      333.283        2.495      870.219
11/25/2013  21:46:00     -104.176      -83.219        2.265       56.995       38.720       31.877     3248.478     1499.266     1016.168        1.177        0.288      133.334       34.377        0.066      333.263        2.464      870.218
11/25/2013  21:47:00     -103.803      -55.867        5.153       63.417       33.505       25.662     4021.729     1122.557      658.559        0.986        0.290      117.882       22.829        0.038      333.293        2.513      870.222
11/25/2013  21:48:00      -91.541      -64.957        0.938       36.612       22.320       21.805     1340.421      498.189      475.464        0.746        0.116      112.246       21.839        0.038      333.268        2.471      870.219
11/25/2013  21:49:00     -122.398      -70.992       -4.371       24.826       20.338       16.022      616.334      413.652      256.713        1.066        0.064      141.496       11.021        0.006      333.239        2.421      870.200
11/25/2013  21:50:00      -93.069      -59.214       -1.965       46.289       27.520       25.062     2142.665      757.353      628.090        0.785        0.176      110.309       18.976        0.030      333.190        2.342      870.186
11/25/2013  21:51:00      -90.442      -48.572       -8.082       34.931       21.826       18.327     1220.164      476.362      335.877        0.632        0.102      102.660        8.123        0.006      333.224        2.398      870.193
11/25/2013  21:52:00     -110.360      -37.468      -10.095       20.772       15.216       13.743      431.470      231.526      188.872        0.727        0.043      116.547        9.346        0.006      333.223        2.397      870.181
11/25/2013  21:53:00     -110.425      -37.241      -10.049       19.120       21.730       12.153      365.569      472.194      147.687        0.733        0.049      116.536       10.067        0.007      333.173        2.315      870.181
11/25/2013  21:54:00     -107.085      -39.766       -4.831       21.869       19.650       14.681      478.256      386.106      215.526        0.708        0.054      114.231       11.687        0.010      333.137        2.254      870.187
11/25/2013  21:55:00     -114.731      -27.653       -5.023       23.880       20.666       14.982      570.263      427.094      224.446        0.759        0.061      118.016       14.201        0.014      333.112        2.212      870.190
11/25/2013  21:56:00      -94.015      -34.400       -0.981       29.435       23.675       15.762      866.403      560.525      248.455        0.585        0.084      100.111        9.516        0.009      333.121        2.228      870.188
11/25/2013  21:57:00      -93.243      -47.328       -1.838       35.980       22.567       14.677     1294.550      509.268      215.407        0.648        0.101      104.566       15.498        0.022      333.179        2.323      870.195
11/25/2013  21:58:00     -105.144      -69.950       -6.553       34.950       14.950       18.539     1221.531      223.500      343.711        0.889        0.089      126.287       19.581        0.024      333.228        2.405      870.191
11/25/2013  21:59:00     -118.226      -41.861       -6.958       17.306       19.395       14.808      299.483      376.180      219.273        0.834        0.045      125.418       10.257        0.007      333.223        2.396      870.183
11/25/2013  22:00:00     -116.002      -31.297       -9.763       22.789       21.132       13.287      519.336      446.577      176.553        0.784        0.057      120.150        8.970        0.006      333.212        2.378      870.185
11/25/2013  22:01:00     -129.784      -35.107      -21.961       14.791       17.329        9.779      218.762      300.292       95.633        0.959        0.031      134.448        7.564        0.003      333.167        2.304      870.185
11/25/2013  22:02:00     -129.911      -27.475      -18.624       18.736       15.604       14.954      351.041      243.470      223.609        0.940        0.041      132.784        9.682        0.005      333.094        2.184      870.179
11/25/2013  22:03:00      -85.271      -48.403       -5.584       44.253       26.806       19.659     1958.348      718.542      386.479        0.635        0.153       98.051       25.511        0.068      333.020        2.062      870.181
11/25/2013  22:04:00     -103.677      -34.892      -13.612       33.598       23.711       17.005     1128.847      562.208      289.187        0.707        0.099      109.391       13.660        0.016      333.042        2.098      870.178
11/25/2013  22:05:00       -9.082      -35.693       14.474       33.151       32.657       27.443     1098.982     1066.486      753.110        0.224        0.146       36.831       22.094        0.360      333.011        2.048      870.172
11/25/2013  22:06:00      -66.172      -39.354        4.988       61.169       46.274       26.810     3741.702     2141.322      718.766        0.628        0.330       76.990       20.885        0.074      333.033        2.085      870.164
11/25/2013  22:07:00     -114.552      -65.276       -2.161       51.941       37.915       19.838     2697.895     1437.544      393.531        1.096        0.226      131.845       14.820        0.013      333.027        2.073      870.168
11/25/2013  22:08:00     -114.831      -41.214       -8.982       25.090       28.183       17.235      629.493      794.292      297.062        0.834        0.086      122.003       11.102        0.008      332.995        2.020      870.173
11/25/2013  22:09:00     -118.556      -26.798       -7.823       22.613       21.420       17.399      511.349      458.807      302.725        0.805        0.064      121.547       14.517        0.014      332.959        1.960      870.169
11/25/2013  22:10:00     -114.472      -13.977       -2.320       42.195       47.007       33.969     1780.450     2209.697     1153.912        0.922        0.257      115.322       25.405        0.049      332.879        1.829      870.170
11/25/2013  22:11:00     -128.043       -4.234       -6.213       64.469       35.176       32.646     4156.313     1237.352     1065.769        1.145        0.323      128.113       31.565        0.061      332.860        1.799      870.179
11/25/2013  22:12:00     -128.163        3.320        0.469       61.796       49.235       32.084     3818.701     2424.133     1029.395        1.185        0.364      128.206       31.898        0.062      332.848        1.778      870.172
11/25/2013  22:13:00     -177.774       31.206      -15.530       49.827       39.991       25.331     2482.724     1599.245      641.670        1.877        0.236      180.492       22.096        0.015      332.975        1.985      870.166
11/25/2013  22:14:00     -128.372       58.600       -6.330       59.657       35.310       30.434     3558.991     1246.807      926.228        1.284        0.287      141.114       27.240        0.037      333.079        2.157      870.173
11/25/2013  22:15:00     -162.603       55.583       -9.623       53.521       36.605       25.976     2864.491     1339.943      674.745        1.725        0.244      171.841       21.140        0.015      333.158        2.289      870.168
11/25/2013  22:16:00      -75.032       10.386       -5.544       63.100       34.409       25.541     3981.597     1184.001      652.332        0.579        0.291       75.747       29.264        0.149      333.108        2.209      870.157
11/25/2013  22:17:00      -81.933      -29.520      -10.614       28.548       25.527       16.263      814.967      651.602      264.490        0.471        0.087       87.089       10.785        0.015      333.027        2.074      870.151
11/25/2013  22:18:00      -58.764      -32.318      -15.687       27.749       19.607       15.800      770.019      384.428      249.646        0.307        0.070       67.065       10.614        0.025      333.029        2.076      870.158
11/25/2013  22:19:00      -58.889      -27.409      -11.632       34.795       24.182       21.188     1210.713      584.761      448.918        0.330        0.112       64.955       18.011        0.077      332.991        2.013      870.160
11/25/2013  22:20:00     -111.457      -66.667      -11.125       51.584       23.811       17.174     2660.916      566.982      294.935        1.026        0.176      129.873       15.429        0.014      332.960        1.962      870.156
11/25/2013  22:21:00     -116.130      -61.569       -7.734       34.295       43.823       25.887     1176.153     1920.416      670.144        1.055        0.188      131.442       20.537        0.024      332.961        1.966      870.162
11/25/2013  22:22:00      -94.370      -62.837       -2.439       36.134       32.808       25.084     1305.659     1076.356      629.201        0.794        0.151      113.376       20.695        0.033      333.051        2.113      870.182
11/25/2013  22:23:00      -98.206      -18.829       -5.382       33.191       19.805       17.193     1101.628      392.224      295.596        0.591        0.089       99.995       17.122        0.029      333.018        2.058      870.185
11/25/2013  22:24:00      -85.197       -8.340       -2.438       35.115       29.435       21.878     1233.037      866.433      478.635        0.496        0.129       85.604       22.098        0.067      333.069        2.142      870.174
11/25/2013  22:25:00     -101.169        0.189       -8.519       33.130       28.828       18.697     1097.578      831.067      349.567        0.629        0.114      101.169       17.890        0.031      333.046        2.105      870.166
11/25/2013  22:26:00      -77.593        0.063       -5.451       29.775       27.345       17.441      886.568      747.728      304.184        0.399        0.097       77.593       12.610        0.026      333.121        2.228      870.157
11/25/2013  22:27:00      -48.664       -9.384       -5.742       30.103       21.349       16.745      906.183      455.770      280.393        0.207        0.082       49.560       14.424        0.085      333.035        2.088      870.149
11/25/2013  22:28:00      -88.920      -34.673      -14.263       17.053       22.587       13.368      290.816      510.160      178.694        0.515        0.049       95.441        7.097        0.006      333.006        2.039      870.143
11/25/2013  22:29:00     -100.610      -36.548      -14.831       27.746       28.026       17.623      769.839      785.440      310.565        0.677        0.093      107.043       11.105        0.011      332.884        1.840      870.138
11/25/2013  22:30:00      -69.600      -28.238       -9.338       50.497       31.894       29.580     2549.904     1017.198      874.984        0.508        0.222       75.110       27.721        0.136      332.897        1.860      870.131
11/25/2013  22:31:00     -146.679      -67.588       -6.228       36.243       27.996       18.737     1313.526      783.786      351.070        1.428        0.122      161.502       19.364        0.014      332.878        1.827      870.134
11/25/2013  22:32:00     -146.562      -40.038       -7.783       33.514       23.956       14.236     1123.200      573.898      202.677        1.252        0.095      151.932       12.855        0.007      332.898        1.861      870.140
11/25/2013  22:33:00     -100.389      -30.419      -12.045       24.012       25.688       18.379      576.574      659.884      337.800        0.636        0.079      104.896       12.085        0.013      332.864        1.805      870.133
11/25/2013  22:34:00      -98.563      -64.304       -4.139       25.434       22.507       12.464      646.901      506.568      155.362        0.759        0.065      117.685       12.854        0.012      332.875        1.823      870.142
11/25/2013  22:35:00     -102.116      -42.012       -1.187       36.870       21.666       16.636     1359.419      469.418      276.753        0.715        0.105      110.421       15.807        0.020      332.865        1.806      870.152
11/25/2013  22:36:00      -46.420      -19.057       14.177       37.619       17.923       15.420     1415.189      321.223      237.782        0.235        0.099       50.180       15.670        0.098      332.888        1.843      870.157
11/25/2013  22:37:00      -23.134      -26.545       -2.205       17.935       12.496        9.433      321.660      156.141       88.987        0.091        0.028       35.211        8.211        0.054      332.943        1.935      870.159
11/25/2013  22:38:00      -27.612      -24.833       -3.198       10.263       11.968        8.352      105.337      143.223       69.748        0.085        0.016       37.136        6.481        0.030      333.052        2.116      870.166
11/25/2013  22:39:00      -47.023      -31.530       -1.382       23.301       16.794       16.797      542.949      282.050      282.155        0.216        0.055       56.615       14.552        0.066      332.991        2.015      870.174
11/25/2013  22:40:00       -8.095      -21.796        8.931       24.892       18.911       16.926      619.634      357.632      286.503        0.094        0.063       23.251       16.851        0.525      332.884        1.837      870.183
11/25/2013  22:41:00      -23.004      -35.100        6.163       35.102       35.014       18.446     1232.180     1225.946      340.255        0.230        0.140       41.967       21.633        0.266      332.937        1.925      870.191
11/25/2013  22:42:00      -80.512      -39.352       -3.529       23.962       21.078       12.037      574.199      444.273      144.888        0.460        0.058       89.615       10.872        0.015      332.917        1.891      870.185
11/25/2013  22:43:00      -73.474      -51.426        1.076       39.766       18.664       13.134     1581.299      348.342      172.509        0.507        0.105       89.683        8.254        0.008      332.898        1.860      870.177
11/25/2013  22:44:00      -49.167      -48.263        3.814       35.955       33.984       21.820     1292.791     1154.895      476.129        0.384        0.146       68.897       16.438        0.057      332.873        1.820      870.170
11/25/2013  22:45:00      -81.845      -53.809       -3.099       39.892       32.317       18.553     1591.384     1044.357      344.218        0.629        0.149       97.949       22.815        0.054      332.926        1.906      870.158
11/25/2013  22:46:00      -92.242      -40.183        0.486       34.510       26.873       15.219     1190.926      722.135      231.614        0.613        0.107      100.614       15.802        0.025      332.892        1.850      870.142
11/25/2013  22:47:00      -93.970      -43.195        4.872       33.912       21.945       19.277     1150.033      481.594      371.586        0.636        0.100      103.422       17.207        0.028      332.772        1.652      870.137
11/25/2013  22:48:00      -59.824      -35.024        0.054       40.390       26.080       19.211     1631.318      680.180      369.063        0.374        0.134       69.322       20.740        0.090      332.766        1.643      870.142
11/25/2013  22:49:00     -115.499      -60.960       -6.305       33.299       17.403       16.691     1108.816      302.880      278.594        0.939        0.085      130.599       13.538        0.011      332.803        1.703      870.134
11/25/2013  22:50:00     -120.606      -45.843      -13.023       11.389       12.243        9.682      129.715      149.884       93.732        0.860        0.019      129.024        4.757        0.001      332.829        1.747      870.118
11/25/2013  22:51:00      -91.513      -27.849       -6.251       15.220       20.088       10.974      231.654      403.529      120.439        0.497        0.038       95.657        7.286        0.006      332.818        1.729      870.120
11/25/2013  22:52:00      -97.921      -33.403      -12.259       13.763       11.215        7.504      189.411      125.785       56.316        0.561        0.019      103.462        3.838        0.001      332.814        1.722      870.117
11/25/2013  22:53:00     -125.150      -27.928      -17.078       13.881       12.099        8.470      192.694      146.378       71.738        0.857        0.021      128.229        7.605        0.004      332.804        1.707      870.119
11/25/2013  22:54:00     -143.438      -39.761      -18.297       11.464       13.836       10.600      131.415      191.432      112.356        1.146        0.022      148.847        8.147        0.003      332.740        1.601      870.122
11/25/2013  22:55:00     -117.600      -57.530       -9.420       23.824       19.758       13.815      567.595      390.375      190.866        0.919        0.057      130.918       13.777        0.011      332.706        1.542      870.144
11/25/2013  22:56:00     -132.998      -43.250       -7.714       18.558       19.467       14.603      344.384      378.968      213.237        1.028        0.047      139.854        9.698        0.005      332.697        1.529      870.158
11/25/2013  22:57:00     -135.610      -44.921       -9.380       15.153       23.964       13.010      229.627      574.257      169.262        1.073        0.049      142.857        8.283        0.003      332.656        1.460      870.154
11/25/2013  22:58:00     -139.112      -67.124       -8.185       26.170       20.139       13.675      684.878      405.562      187.004        1.260        0.064      154.459       12.530        0.007      332.674        1.491      870.144
11/25/2013  22:59:00     -158.429      -50.471      -18.302       24.938       14.742       13.409      621.923      217.321      179.813        1.450        0.051      166.274       10.872        0.004      332.674        1.491      870.141
11/25/2013  23:00:00     -132.404      -31.821       -6.672       33.450       24.357       21.706     1118.894      593.273      471.133        1.039        0.109      136.174       20.348        0.022      332.626        1.409      870.140
11/25/2013  23:01:00     -112.895      -29.310       -4.137       37.064       22.493       16.341     1373.775      505.951      267.018        0.788        0.107      116.638       13.755        0.014      332.654        1.458      870.134
11/25/2013  23:02:00      -73.594      -13.151       -0.202       23.972       24.276       14.282      574.656      589.323      203.986        0.348        0.068       74.759        9.606        0.017      332.630        1.417      870.131
11/25/2013  23:03:00      -95.450      -24.111       -6.037       21.406       22.613       14.525      458.216      511.329      210.989        0.545        0.059       98.448       11.185        0.013      332.634        1.423      870.121
11/25/2013  23:04:00     -108.780      -44.048        0.876       32.732       21.223       15.899     1071.396      450.426      252.765        0.777        0.089      117.360       14.115        0.014      332.601        1.368      870.122
11/25/2013  23:05:00     -123.125      -50.152       -0.599       21.886       18.407       12.338      479.000      338.836      152.217        0.932        0.049      132.948        7.953        0.004      332.642        1.436      870.121
11/25/2013  23:06:00     -114.286      -56.830        1.765       29.504       21.237       17.290      870.488      450.989      298.927        0.896        0.081      127.636       16.625        0.017      332.661        1.470      870.122
11/25/2013  23:07:00     -114.797      -47.875        0.929       29.746       22.971       16.319      884.832      527.653      266.308        0.857        0.084      124.380       16.563        0.018      332.633        1.423      870.131
11/25/2013  23:08:00     -116.930      -42.742       -7.578       24.372       26.870       13.903      594.013      722.018      193.282        0.853        0.075      124.497        8.641        0.005      332.608        1.380      870.120
11/25/2013  23:09:00     -126.180      -41.643       -3.758       25.238       21.934       12.670      636.954      481.101      160.529        0.947        0.064      132.874        8.826        0.004      332.611        1.384      870.106
11/25/2013  23:10:00     -117.816      -32.009       -3.185       32.721       24.914       16.597     1070.656      620.727      275.466        0.844        0.098      122.087       17.321        0.020      332.577        1.329      870.110
11/25/2013  23:11:00     -134.400      -59.377      -16.256       23.164       19.253       13.116      536.560      370.670      172.021        1.147        0.054      146.932        6.562        0.002      332.499        1.200      870.117
11/25/2013  23:12:00     -109.916      -58.271      -14.580       25.883       22.217       14.341      669.932      493.597      205.668        0.853        0.068      124.406       11.828        0.009      332.486        1.179      870.133
11/25/2013  23:13:00     -119.907      -65.916       -5.090       25.778       25.171       18.517      664.508      633.563      342.896        1.019        0.082      136.830       15.396        0.013      332.429        1.085      870.139
11/25/2013  23:14:00     -101.291      -47.588       -4.247       40.510       32.859       20.266     1641.094     1079.744      410.708        0.784        0.157      111.912       21.964        0.039      332.399        1.037      870.138
11/25/2013  23:15:00     -106.313      -28.102       -8.439       19.817       13.154       10.496      392.704      173.025      110.159        0.642        0.034      109.964        9.326        0.007      332.374        0.995      870.126
11/25/2013  23:16:00      -76.883      -25.370       -7.611       19.409       18.262       17.310      376.723      333.485      299.646        0.381        0.050       80.961       12.066        0.022      332.441        1.105      870.118
11/25/2013  23:17:00      -85.131      -16.412       -5.801       19.311       20.193       12.405      372.913      407.755      153.883        0.424        0.047       86.699        8.012        0.009      332.347        0.951      870.116
11/25/2013  23:18:00      -66.818      -20.927      -10.877       22.905       21.528       12.833      524.621      463.442      164.691        0.309        0.058       70.018       11.253        0.026      332.425        1.079      870.114
11/25/2013  23:19:00      -81.891      -15.354      -13.889       24.848       12.099       13.150      617.400      146.386      172.915        0.404        0.047       83.318       13.313        0.026      332.446        1.114      870.102
11/25/2013  23:20:00      -74.063      -11.848       -6.647       20.308       25.233       21.575      412.425      636.725      465.460        0.359        0.076       75.005       12.132        0.026      332.466        1.147      870.098
11/25/2013  23:21:00      -96.957      -22.627      -19.030       18.023       18.691       15.611      324.813      349.362      243.701        0.560        0.046       99.562        3.645        0.001      332.483        1.175      870.093
11/25/2013  23:22:00      -93.331      -25.519      -20.832       16.232       19.110       13.472      263.484      365.191      181.497        0.530        0.041       96.756        9.266        0.009      332.467        1.148      870.080
11/25/2013  23:23:00     -101.201      -18.314      -18.847       22.724       21.738       12.715      516.397      472.549      161.661        0.604        0.058      102.845       12.802        0.015      332.434        1.097      870.072
11/25/2013  23:24:00      -89.121      -24.153      -16.215       20.090       23.730       17.162      403.593      563.131      294.524        0.502        0.063       92.336       16.109        0.030      332.463        1.143      870.061
11/25/2013  23:25:00      -91.366      -43.199      -18.873       19.778       22.456       14.885      391.151      504.275      221.574        0.584        0.056      101.064        8.969        0.008      332.420        1.070      870.064
11/25/2013  23:26:00     -114.360      -53.918      -21.853       18.524       23.267       13.768      343.141      541.340      189.569        0.877        0.054      126.433        2.900        0.001      332.368        0.984      870.065
11/25/2013  23:27:00     -149.217      -50.975      -13.711       19.764       17.812       11.207      390.622      317.259      125.604        1.294        0.042      157.684        7.817        0.002      332.315        0.899      870.062
11/25/2013  23:28:00     -133.175      -31.755      -11.214       16.143       13.843       10.431      260.599      191.639      108.800        0.972        0.028      136.909        5.867        0.002      332.330        0.922      870.052
11/25/2013  23:29:00     -116.402      -25.458      -15.952       17.423       12.846       11.496      303.553      165.008      132.148        0.753        0.030      119.153        4.373        0.001      332.298        0.871      870.048
11/25/2013  23:30:00     -131.698      -35.755       -7.749       13.681       13.118       10.241      187.182      172.078      104.882        0.957        0.023      136.466        8.043        0.003      332.402        1.040      870.043
11/25/2013  23:31:00     -122.284      -31.497       -4.890       19.274       16.910       13.596      371.490      285.956      184.839        0.841        0.042      126.275       10.119        0.006      332.363        0.978      870.045
11/25/2013  23:32:00     -115.633      -34.415       -9.529       14.840       15.040       11.027      220.224      226.191      121.597        0.761        0.028      120.645        6.991        0.003      332.395        1.030      870.041
11/25/2013  23:33:00     -110.142      -36.134      -13.529        9.176        9.665        7.253       84.202       93.419       52.612        0.693        0.012      115.918        4.145        0.001      332.417        1.066      870.042
11/25/2013  23:34:00     -103.392      -38.187      -11.848       12.903       10.148       11.178      166.483      102.976      124.937        0.634        0.020      110.219        8.669        0.006      332.431        1.090      870.027
11/25/2013  23:35:00     -108.798      -35.390      -13.958        8.915        9.647        6.899       79.477       93.073       47.593        0.675        0.011      114.409        3.441        0.001      332.428        1.084      870.011
11/25/2013  23:36:00      -88.902      -21.975       -6.586       16.496       15.864       11.594      272.104      251.655      134.419        0.454        0.033       91.578       10.819        0.014      332.411        1.056      870.010
11/25/2013  23:37:00      -84.007      -26.487      -10.184       18.589       18.644       12.016      345.562      347.593      144.388        0.435        0.042       88.084        6.362        0.005      332.408        1.050      870.018
11/25/2013  23:38:00      -82.418      -30.564      -11.960       27.421       20.942       17.728      751.921      438.586      314.291        0.469        0.075       87.903       15.760        0.032      332.350        0.956      870.021
11/25/2013  23:39:00     -100.273      -29.448      -16.447       21.297       16.100       13.873      453.580      259.203      192.450        0.605        0.045      104.508       12.441        0.014      332.355        0.963      870.027
11/25/2013  23:40:00     -103.024      -42.790      -14.786       18.332       15.018       14.146      336.052      225.554      200.110        0.671        0.038      111.557        5.438        0.002      332.361        0.971      870.021
11/25/2013  23:41:00     -126.602      -55.073      -17.392       21.026       18.057       13.609      442.087      326.060      185.212        1.016        0.048      138.062        9.252        0.004      332.247        0.786      870.009
11/25/2013  23:42:00     -155.876      -50.322      -14.999       17.071       16.097       12.865      291.435      259.127      165.516        1.389        0.036      163.798        9.411        0.003      332.208        0.724      870.013
11/25/2013  23:43:00     -118.919      -64.278       -6.822       45.776       23.916       19.339     2095.410      571.986      374.000        1.068        0.152      135.179       22.082        0.027      332.278        0.838      870.020
11/25/2013  23:44:00     -126.542      -53.278      -12.226       25.718       34.255       13.550      661.416     1173.400      183.591        1.051        0.101      137.300        4.846        0.001      332.316        0.901      870.025
11/25/2013  23:45:00      -90.627      -26.533       -1.689       32.883       17.284       16.059     1081.318      298.751      257.899        0.528        0.082       94.431       15.272        0.026      332.275        0.832      870.014
11/25/2013  23:46:00      -89.039      -27.884        0.740       30.391       23.375       17.829      923.591      546.398      317.882        0.525        0.089       93.303       16.616        0.032      332.330        0.922      869.993
11/25/2013  23:47:00     -100.390      -35.791        1.537       30.205       27.064       13.430      912.366      732.472      180.360        0.659        0.091      106.579       12.178        0.013      332.318        0.902      869.978
11/25/2013  23:48:00      -91.131      -37.299        2.188       31.204       21.169       18.556      973.675      448.108      344.312        0.573        0.088       98.469       17.777        0.033      332.325        0.915      869.972
11/25/2013  23:49:00      -74.409      -36.636        1.992       28.606       22.104       17.336      818.295      488.580      300.534        0.424        0.080       82.940       13.392        0.026      332.266        0.817      869.968
11/25/2013  23:50:00     -103.608      -41.515        4.012       31.649       27.662       17.731     1001.638      765.163      314.381        0.728        0.104      111.616       16.902        0.023      332.316        0.899      869.967
11/25/2013  23:51:00     -106.333      -38.355       -4.701       15.939       17.581       10.313      254.041      309.076      106.357        0.673        0.033      113.039        3.477        0.001      332.322        0.908      869.955
11/25/2013  23:52:00     -108.434      -41.694       -6.139       18.087       17.266       11.469      327.145      298.119      131.543        0.715        0.038      116.174       10.029        0.007      332.336        0.932      869.942
11/25/2013  23:53:00      -89.104      -42.467       -2.023       25.821       17.235       14.965      666.726      297.047      223.964        0.547        0.059       98.707       15.249        0.024      332.321        0.907      869.935
11/25/2013  23:54:00     -102.736      -38.406        1.365       21.251       26.153       11.318      451.591      683.978      128.100        0.665        0.063      109.680        8.230        0.006      332.322        0.909      869.928
11/25/2013  23:55:00     -116.105      -37.422       -4.958       24.628       21.499       11.671      606.546      462.225      136.202        0.805        0.060      121.987       13.348        0.012      332.384        1.011      869.916
11/25/2013  23:56:00     -122.063      -38.078       -9.541       16.371       20.595       12.697      268.016      424.156      161.209        0.865        0.043      127.865        7.385        0.003      332.400        1.038      869.895
11/25/2013  23:57:00     -127.122      -42.400       -4.758       21.373       21.555       13.855      456.798      464.618      191.954        0.955        0.056      134.006       12.750        0.009      332.378        1.001      869.880
11/25/2013  23:58:00     -125.022      -33.641       -5.530       26.083       17.250       15.851      680.301      297.575      251.256        0.901        0.061      129.470       11.130        0.007      332.289        0.856      869.883
11/25/2013  23:59:00     -128.932      -51.764        0.881       42.109       26.611       19.727     1773.192      708.139      389.146        1.109        0.144      138.935       23.298        0.028      332.348        0.951      869.907
